GFSGL_850_thetae_000.txt.gz
Theta_e
310 310 310 309 309 308 307 306 305 305 303 301 298 294 291 291 292 291 290 290 289 289 288 288 288 287 286 285 286 287 288 288 288 288 288 288 288 287 286 287 287 286 286
309 309 309 308 308 307 306 305 305 304 301 298 293 291 291 292 291 290 289 289 289 288 288 288 287 287 286 285 286 287 287 288 288 288 288 287 286 287 287 287 285 284 284
308 307 307 307 306 305 304 304 304 302 297 293 291 291 292 291 290 290 289 288 288 288 287 287 287 286 285 285 286 287 287 287 287 287 286 286 287 287 286 285 284 283 283
307 306 305 305 304 303 304 303 301 298 293 291 291 292 291 290 290 289 288 288 287 287 287 286 286 285 285 285 286 287 286 285 286 286 287 286 288 286 284 283 283 282 283
306 304 304 303 303 303 303 301 298 293 291 291 292 292 291 290 289 288 287 287 287 286 286 286 285 285 285 286 286 286 286 286 287 287 286 286 285 284 283 283 282 283 284
305 303 302 302 303 302 300 298 294 291 290 292 291 291 290 289 288 287 286 287 286 286 285 286 285 285 285 285 285 285 286 287 286 286 286 284 283 283 282 283 284 284 282
303 301 301 302 301 299 297 294 291 290 291 291 291 290 289 288 287 286 286 286 286 285 285 285 285 284 284 284 284 285 285 285 285 284 283 283 283 283 284 282 282 282 282
301 300 301 300 298 297 294 290 289 290 291 291 290 289 288 287 285 285 285 285 284 284 284 284 284 284 283 284 285 285 286 284 283 282 282 283 283 282 282 282 282 282 282
300 301 300 298 297 294 290 289 289 290 290 290 289 288 286 285 284 283 285 284 284 283 283 284 284 283 284 285 286 285 283 283 282 283 282 282 281 281 282 282 281 281 280
300 299 298 297 295 290 289 288 289 289 289 289 288 286 285 284 283 283 284 284 284 284 284 284 284 284 285 285 284 283 282 282 283 282 281 281 281 281 281 280 280 280 280
299 298 296 294 290 289 287 288 288 289 289 288 287 285 284 283 283 283 284 285 284 285 285 284 283 284 284 283 282 281 282 283 282 280 280 280 280 280 281 281 281 280 280
298 296 294 290 288 287 286 287 288 288 288 286 285 284 283 282 283 283 284 285 285 285 284 283 284 283 282 281 280 281 282 281 280 279 280 280 280 281 281 281 281 281 282
296 294 290 288 287 286 286 287 288 288 286 284 283 282 282 282 282 283 284 285 284 284 284 284 283 281 280 280 280 280 280 279 279 279 280 280 281 281 281 281 281 282 282
294 290 288 286 285 286 287 287 287 285 284 283 282 282 282 282 282 283 284 283 284 284 283 282 281 280 279 279 280 280 279 279 279 279 279 281 281 281 281 281 281 282 282
290 288 286 285 286 287 287 286 285 284 282 282 282 282 282 282 282 283 283 284 284 283 282 281 279 279 279 279 280 279 279 279 279 280 280 281 281 281 282 282 282 282 282
288 286 286 286 287 287 286 286 284 282 282 281 281 281 282 282 282 282 283 283 282 281 280 278 278 278 278 278 279 279 279 279 279 280 281 281 281 282 282 282 282 282 282
286 286 286 287 287 286 285 283 282 282 281 281 280 280 281 281 281 282 282 281 280 279 278 278 278 278 278 279 279 279 279 279 280 281 282 282 282 283 282 282 282 282 283
286 286 287 287 286 284 283 282 281 280 280 280 280 280 280 280 281 281 280 279 279 278 278 277 277 278 279 279 279 279 280 281 281 282 283 284 284 283 283 283 282 282 283
286 287 287 286 284 282 282 281 280 280 280 280 280 280 280 280 280 279 279 278 277 278 277 278 278 278 279 280 280 280 280 281 281 283 284 284 284 284 284 284 283 283 283
286 287 285 284 282 282 281 280 280 280 279 279 279 279 279 280 279 279 279 278 277 277 278 278 279 280 280 280 281 281 282 283 284 284 285 285 285 285 285 284 284 284 284
287 285 283 282 281 281 280 280 279 279 279 279 279 279 279 279 278 278 278 278 277 278 278 278 280 281 281 281 281 282 283 284 285 286 286 286 286 285 285 285 285 285 284
285 283 282 281 280 280 280 279 279 279 279 279 279 279 278 278 278 278 278 278 278 278 278 280 281 281 282 282 283 283 284 285 286 287 287 287 286 286 285 286 286 285 285
283 281 281 280 280 279 279 279 279 279 278 278 278 278 278 278 278 278 278 278 278 278 279 281 282 282 283 283 284 284 285 286 287 287 287 287 286 286 286 287 287 286 286
281 281 280 280 279 279 279 279 278 278 278 278 278 278 278 278 278 278 278 278 279 279 281 281 282 283 284 285 285 286 287 287 287 287 287 287 287 287 287 287 288 288 286
280 280 279 279 279 278 278 278 278 278 278 278 278 278 278 278 278 278 278 279 279 279 281 282 283 283 285 286 287 287 287 288 287 287 287 288 287 287 287 287 288 288 287
280 279 279 278 278 278 278 278 278 278 278 278 278 278 278 278 278 278 279 279 279 281 282 282 283 284 286 287 287 287 287 287 287 288 288 288 287 287 288 288 288 288 288

GFSGL_850_thetae_003.txt.gz
Theta_e
315 311 310 309 308 308 308 307 305 304 304 303 300 296 293 291 292 292 291 291 290 289 289 288 288 287 286 286 285 285 285 286 287 287 287 287 286 286 286 286 286 287 286
311 310 309 308 307 307 307 305 304 303 302 300 296 293 291 292 292 291 290 290 289 289 288 287 287 286 285 285 285 285 285 286 287 287 286 285 285 287 285 285 287 285 283
309 308 307 307 306 306 305 303 303 302 300 296 293 292 292 292 291 291 290 289 288 288 287 286 286 285 285 285 285 285 286 286 286 285 285 286 287 285 285 286 284 283 282
307 307 306 305 305 304 303 303 302 300 297 293 291 292 291 291 291 290 289 288 288 287 286 285 285 285 285 285 285 286 286 285 285 285 286 286 285 285 284 283 283 283 283
307 305 304 304 303 302 302 301 299 297 294 291 291 291 291 291 290 289 288 287 287 286 285 285 285 285 285 285 285 286 285 285 286 287 286 286 284 283 283 282 283 283 283
305 304 303 302 301 301 301 299 297 294 291 291 291 291 291 290 290 288 286 286 286 284 284 284 283 283 283 284 284 284 285 286 286 286 285 283 282 282 282 283 283 282 282
304 302 301 301 301 300 299 297 294 290 290 290 291 290 290 290 288 286 285 286 284 284 283 283 283 283 283 283 284 285 286 285 284 284 282 282 282 283 283 282 282 282 282
303 301 300 300 300 299 297 293 290 289 289 290 290 290 289 287 286 284 285 284 284 284 283 283 284 284 283 284 286 285 284 283 282 282 282 283 283 282 282 282 282 282 281
300 299 300 300 299 296 292 290 289 288 288 289 289 289 287 286 284 283 284 284 284 284 284 284 284 284 283 286 285 283 282 282 282 282 282 282 281 281 281 282 281 280 280
299 300 300 298 295 293 290 288 287 287 288 288 288 287 285 284 283 283 284 284 284 284 285 284 283 284 285 285 284 282 282 281 283 282 281 281 281 281 281 281 281 280 280
300 299 297 295 293 290 289 287 286 287 288 288 287 285 284 283 283 282 284 285 284 285 284 284 283 283 284 283 282 281 281 283 282 281 280 281 281 281 282 282 281 280 280
298 297 295 292 290 288 287 286 287 287 288 286 285 284 283 283 282 282 284 284 285 284 284 283 283 283 282 281 281 281 282 281 280 280 280 280 281 282 282 282 282 282 281
297 295 292 290 288 286 285 286 288 287 285 284 283 282 282 282 282 282 283 284 284 284 283 283 282 281 280 280 280 280 280 280 279 279 279 281 281 282 282 282 282 282 282
294 293 290 288 286 285 286 287 286 284 283 282 282 282 281 281 282 282 283 283 284 283 282 282 281 280 279 280 280 280 280 279 279 279 280 281 282 282 282 282 282 282 282
293 290 288 286 286 287 287 285 284 283 282 281 281 281 281 281 282 283 283 284 283 282 282 280 279 279 279 280 280 280 280 280 280 280 281 282 282 282 282 282 282 282 282
290 287 286 286 287 287 285 285 283 282 282 281 281 280 281 281 282 282 283 282 282 281 280 279 278 278 278 279 279 280 280 280 281 281 282 282 282 282 283 283 283 283 282
287 286 286 287 286 285 284 283 282 283 282 281 281 280 280 281 281 282 282 281 280 279 279 278 278 278 278 279 279 279 280 281 281 282 283 283 282 283 283 284 283 283 283
286 286 287 287 285 283 282 282 281 281 280 281 280 280 280 280 280 281 280 279 279 279 278 278 278 278 279 280 280 280 281 282 283 283 283 284 284 283 284 284 284 283 283
286 287 287 285 283 282 282 281 281 280 280 280 280 279 279 280 280 279 279 279 278 278 278 278 278 279 280 280 281 281 282 282 283 284 285 285 285 284 285 285 284 284 284
286 286 285 284 282 282 281 281 280 280 279 279 279 279 279 279 279 279 279 278 278 278 278 278 280 280 281 281 282 282 283 284 285 285 285 285 285 285 285 285 285 284 284
286 285 284 282 282 281 280 280 279 279 279 279 279 279 278 279 278 278 278 278 278 278 278 279 280 281 281 282 282 283 284 285 286 286 286 286 286 286 286 285 285 285 285
286 284 282 281 281 280 280 279 279 279 279 279 279 279 279 279 278 278 278 278 278 278 278 279 281 282 282 283 283 284 285 286 286 286 286 286 286 286 286 286 286 286 285
283 282 281 280 280 280 279 279 278 278 278 278 278 279 279 278 278 278 278 278 278 279 279 281 282 282 283 284 285 285 286 286 286 286 286 287 287 287 287 287 287 287 286
281 281 280 280 279 279 278 278 278 278 278 278 278 278 278 278 278 279 279 279 279 279 281 282 282 283 284 285 286 287 287 287 286 286 287 287 287 287 287 287 288 287 286
281 280 280 279 278 278 278 278 278 278 278 278 278 278 278 278 279 279 279 279 279 280 282 282 283 284 285 286 287 287 287 287 286 287 287 288 287 287 287 287 288 288 286
280 279 279 278 278 278 278 278 278 278 278 278 278 278 278 279 279 279 279 279 279 281 282 283 284 285 286 286 287 287 287 287 287 287 288 288 288 287 287 288 287 287 286

GFSGL_850_thetae_006.txt.gz
Theta_e
318 313 311 310 309 308 306 306 305 305 304 304 303 300 297 293 292 292 292 292 292 292 291 290 289 287 286 286 285 285 285 285 285 285 285 285 285 284 286 285 285 285 285
314 313 311 309 308 306 306 305 304 303 303 303 301 298 294 292 292 292 292 292 292 291 290 288 287 286 285 285 285 285 285 285 285 285 285 284 284 286 285 285 285 284 284
314 312 310 308 307 306 305 304 303 303 303 302 298 294 292 292 292 292 292 291 290 289 288 286 285 285 285 284 285 285 285 285 285 285 284 285 285 286 285 284 283 282 282
311 309 308 306 305 305 304 303 303 302 301 298 294 292 292 292 292 291 291 290 289 287 286 285 284 284 283 284 284 285 285 284 284 285 285 285 286 285 283 283 282 282 282
308 307 305 305 304 303 302 302 302 300 298 294 292 291 291 291 291 290 289 288 287 286 285 284 284 283 283 284 285 284 284 285 286 287 285 284 284 283 282 282 282 282 282
306 305 304 303 302 301 301 300 299 297 294 291 290 290 290 290 290 289 287 286 285 285 284 284 283 283 283 284 283 284 286 286 285 284 283 283 282 282 282 283 283 282 282
305 304 302 301 300 300 300 299 296 294 291 290 289 289 289 290 289 287 285 285 285 284 284 284 284 284 283 283 284 285 285 284 283 282 281 282 282 283 283 282 282 281 281
303 301 300 299 299 299 298 296 294 291 290 289 288 288 289 289 287 285 284 284 284 284 284 284 284 283 283 284 285 285 284 283 282 281 282 282 283 282 282 282 281 282 281
301 300 299 299 298 297 295 294 292 290 288 287 288 289 289 286 285 284 283 284 284 284 284 284 283 283 283 285 285 284 283 282 281 282 282 281 281 281 281 282 281 280 280
299 298 298 298 297 295 294 292 290 288 286 287 289 288 285 284 284 283 283 284 284 284 285 284 283 283 284 284 284 282 282 281 283 282 281 282 282 282 282 281 281 280 280
298 298 298 297 295 294 292 289 287 286 287 288 287 286 285 283 282 282 283 284 284 285 284 283 283 283 284 283 282 281 281 282 281 281 281 282 282 282 283 283 282 281 280
298 297 297 296 294 291 289 287 286 288 288 287 285 285 284 283 282 281 283 284 284 284 284 283 283 283 282 281 280 281 281 281 281 280 280 281 282 283 283 283 283 283 282
297 296 295 293 291 289 287 287 288 288 286 284 283 283 282 282 281 282 282 283 283 284 283 283 282 281 280 280 280 280 280 281 280 279 280 282 282 283 283 283 283 283 283
296 295 293 291 289 287 287 288 287 285 284 283 282 281 281 281 281 282 282 283 283 282 282 282 281 280 279 280 281 281 281 280 278 280 281 282 283 283 283 283 283 283 283
295 293 291 288 287 288 288 287 285 283 282 281 281 280 281 281 281 282 282 283 282 282 281 280 279 279 279 280 281 281 281 281 281 282 282 283 284 283 284 283 283 283 282
292 290 288 287 288 288 287 285 283 282 282 281 280 280 280 280 281 281 282 282 281 280 280 279 279 278 279 280 280 281 281 281 282 282 283 283 283 283 283 284 283 283 283
289 288 287 288 288 287 284 283 283 283 282 281 280 280 280 280 280 281 281 280 280 279 279 279 278 278 280 280 280 280 281 282 282 283 283 284 283 283 284 284 284 283 284
287 287 287 287 286 284 282 282 281 280 280 280 280 280 280 280 280 280 279 279 280 280 279 278 278 279 280 280 280 281 282 283 283 284 284 284 284 283 284 284 284 284 283
287 287 287 286 284 282 282 281 281 280 280 279 279 280 279 280 280 279 279 279 279 279 278 278 279 280 281 281 281 282 283 283 284 285 285 285 285 284 285 285 285 285 284
286 286 286 284 282 282 281 281 280 279 279 279 279 279 279 279 279 279 279 279 278 278 278 278 280 281 281 281 282 283 284 285 285 285 285 285 285 285 285 285 286 285 285
286 286 284 282 281 281 280 280 279 278 278 279 279 279 278 278 279 279 279 279 278 278 278 279 281 281 282 282 283 284 285 286 286 285 285 286 286 286 286 286 287 286 285
286 284 282 281 281 280 280 279 278 278 278 278 279 279 279 279 279 279 279 279 279 278 278 280 281 282 283 283 284 285 286 286 286 286 286 287 287 286 286 287 287 287 285
283 282 281 281 280 279 279 278 278 278 278 278 278 279 279 279 279 279 279 279 279 279 279 281 282 283 283 284 285 286 286 286 286 286 287 287 287 287 287 287 287 287 285
282 281 281 280 279 279 278 278 278 278 278 278 278 279 279 279 279 279 279 279 279 279 281 282 283 283 284 285 286 287 287 287 286 286 287 287 287 287 287 287 287 287 286
281 281 280 279 278 278 278 279 279 279 278 278 279 279 279 279 279 279 279 279 280 280 282 283 283 284 285 286 286 287 287 287 287 287 288 288 288 287 288 288 287 287 285
281 280 279 278 278 279 279 279 279 278 278 279 279 278 278 279 279 279 280 280 280 281 283 283 284 285 286 286 287 287 287 287 287 288 288 288 288 288 288 288 288 287 285

GFSGL_850_thetae_009.txt.gz
Theta_e
326 327 324 317 309 308 308 307 306 306 305 304 303 303 301 299 295 293 293 293 292 292 291 291 289 288 287 286 285 285 285 285 285 285 285 285 285 285 285 285 286 285 285
326 320 315 309 308 308 307 305 305 304 303 303 303 301 299 296 293 292 292 292 292 291 291 289 288 286 285 285 284 284 284 284 285 285 285 285 285 286 286 285 285 285 284
319 314 309 309 308 307 306 305 304 303 302 302 301 298 296 294 292 292 291 291 291 290 288 287 286 285 284 284 284 284 285 285 285 284 285 286 285 285 285 284 283 283 282
314 311 310 308 307 305 304 303 302 302 302 300 298 296 294 292 291 290 290 290 290 288 287 285 284 284 284 284 284 285 285 285 285 285 286 285 284 284 283 282 282 282 283
312 310 308 306 304 304 303 301 301 301 300 298 296 294 292 290 290 290 290 288 287 286 285 284 284 284 284 284 285 285 285 285 286 286 285 284 283 282 282 282 282 283 283
309 307 305 304 303 302 301 300 300 299 298 296 294 291 289 289 289 290 288 286 285 285 284 284 284 284 284 284 284 284 285 286 285 284 283 283 282 282 282 283 282 282 282
306 305 303 302 301 300 300 299 298 297 296 293 291 289 288 289 290 288 286 285 284 284 284 284 284 284 283 283 284 284 286 284 283 283 282 282 282 282 282 282 282 282 282
304 303 301 300 299 299 299 298 297 296 293 290 288 287 289 289 287 286 284 284 283 284 284 284 284 283 283 284 285 285 284 283 282 282 282 282 283 282 282 282 282 282 282
301 300 299 299 299 298 298 297 295 292 290 288 287 289 289 287 285 284 283 283 283 284 284 284 284 284 284 285 285 284 283 282 281 282 282 282 281 282 282 281 282 281 281
300 299 298 298 298 298 297 294 292 290 287 287 289 288 286 284 284 283 282 283 284 284 284 284 283 283 284 284 283 283 282 281 282 282 281 282 282 283 283 282 282 280 279
298 298 298 298 298 297 294 292 289 287 288 289 287 285 284 283 283 282 282 284 284 284 284 284 283 283 283 283 282 281 281 282 282 281 282 282 283 283 283 283 283 281 280
298 298 298 298 296 294 292 288 287 288 288 287 285 285 284 283 282 282 282 283 284 284 283 283 282 283 282 281 280 280 281 281 281 281 280 281 282 284 284 284 284 284 283
298 298 297 296 293 290 287 287 288 288 286 284 284 284 283 283 282 281 282 282 283 283 282 282 282 281 280 280 281 281 281 281 280 279 280 282 283 284 284 284 285 284 284
298 297 295 292 289 287 288 289 287 285 283 283 283 282 281 281 281 282 282 282 283 282 282 281 280 280 280 281 281 282 281 281 280 279 281 283 284 284 284 284 284 284 284
296 294 292 288 287 288 288 287 285 283 282 282 281 280 280 280 281 282 282 282 282 282 281 280 280 280 280 281 281 282 281 282 282 282 283 283 284 284 284 284 284 284 283
293 290 288 287 288 288 287 285 283 283 282 281 280 280 280 280 281 281 282 281 281 280 280 279 279 279 280 281 281 281 282 282 283 283 284 284 284 283 283 284 284 284 284
290 287 287 288 288 287 285 284 284 283 282 281 280 280 280 280 280 281 281 280 280 279 280 279 279 279 280 281 281 281 282 283 283 284 284 285 284 283 283 284 284 285 285
287 287 287 288 287 285 283 282 281 281 281 281 280 280 280 280 280 280 279 280 280 280 279 279 279 280 281 281 281 282 283 284 285 285 284 284 284 283 284 285 285 285 285
287 287 287 287 285 283 282 281 281 280 280 279 279 280 279 280 280 279 279 279 279 279 279 279 279 280 281 281 282 283 284 285 285 284 285 285 285 284 285 285 286 286 285
287 287 287 285 283 282 281 281 280 280 279 279 279 279 279 279 279 280 279 279 279 279 279 279 280 281 282 282 283 284 285 285 286 285 285 286 286 286 285 286 286 286 286
287 287 284 282 282 281 280 280 279 279 279 279 279 279 279 278 279 279 279 279 279 279 279 279 281 282 282 283 283 285 285 286 286 285 286 286 287 286 286 286 286 286 286
286 284 282 282 281 280 279 279 279 279 279 279 279 279 279 279 279 279 279 279 279 279 279 280 282 282 283 283 284 285 286 286 286 286 286 287 287 286 286 286 287 287 286
284 282 281 281 280 279 279 279 279 279 279 279 279 279 279 279 279 279 279 279 279 279 279 281 282 283 284 284 285 286 286 286 286 287 287 287 287 287 287 287 287 287 285
282 281 281 280 279 279 279 279 279 279 279 279 279 278 278 278 279 279 279 280 280 280 281 282 283 284 284 285 286 286 286 286 287 287 287 287 287 287 288 287 287 286 285
281 280 280 279 279 279 280 279 279 279 279 279 278 278 278 278 279 279 280 280 280 280 282 283 284 284 285 286 286 286 286 287 287 287 287 288 288 288 288 288 287 286 286
280 279 279 279 279 279 279 279 279 279 279 278 277 277 278 279 279 279 280 280 280 281 283 284 285 285 286 286 286 286 286 286 287 287 288 288 289 288 288 287 287 286 286

GFSGL_850_thetae_012.txt.gz
Theta_e
329 329 327 324 323 321 314 307 307 306 305 304 303 303 302 301 300 297 295 293 293 292 291 291 290 289 287 287 287 287 287 287 287 287 287 287 287 287 287 287 287 286 286
330 328 326 325 322 314 307 306 305 304 304 303 302 302 301 299 297 295 293 292 291 291 291 290 288 287 286 286 286 286 286 286 287 287 287 286 287 287 287 287 286 285 285
327 326 322 318 314 307 306 305 304 303 302 301 301 301 299 297 295 292 291 290 290 291 289 288 287 286 285 285 285 286 286 286 286 286 286 286 287 287 286 285 285 284 285
324 320 320 314 307 306 305 304 303 301 301 301 300 299 297 295 292 290 289 290 290 289 288 286 286 285 285 285 286 286 286 286 286 286 286 287 287 286 285 284 284 284 284
319 316 311 307 307 305 303 302 301 300 300 299 298 297 294 291 290 289 290 289 288 288 287 286 286 285 284 285 286 286 286 285 285 286 288 286 285 285 284 284 284 284 284
313 310 308 307 305 303 301 301 300 300 299 298 296 294 291 289 288 290 290 287 287 287 286 286 286 286 285 285 285 285 285 286 286 286 285 285 284 284 284 284 284 283 283
309 307 306 304 302 301 300 300 299 298 297 296 293 291 288 288 290 289 287 285 286 286 285 286 286 285 285 285 284 285 285 285 285 285 284 284 283 284 283 284 283 283 283
306 305 303 301 300 299 299 298 298 297 295 292 290 288 289 290 289 286 285 285 285 286 285 285 285 285 285 285 285 285 285 284 284 284 283 283 283 283 283 283 282 282 283
303 302 300 300 299 298 298 298 297 294 291 289 288 290 290 287 286 285 284 284 285 285 285 285 285 285 284 285 285 284 284 284 283 283 283 284 283 283 282 282 282 282 282
301 300 299 298 298 298 298 296 293 291 288 288 290 289 287 285 285 284 284 284 285 285 285 285 285 284 284 284 284 284 283 283 282 283 283 282 282 282 282 282 282 282 281
299 299 298 297 297 297 295 293 290 288 289 289 288 286 285 285 284 283 282 284 284 285 285 285 284 284 284 283 283 282 282 282 282 282 281 282 282 283 283 283 283 282 281
298 298 298 297 296 294 292 289 288 289 289 287 285 285 285 284 283 282 282 283 284 284 284 284 283 283 282 282 281 281 281 281 281 281 281 282 282 283 284 285 285 284 284
297 297 297 295 293 291 288 289 289 288 286 285 285 285 284 283 282 282 283 283 284 284 283 283 283 282 281 280 281 281 281 281 281 280 280 281 282 284 285 284 284 284 285
297 296 294 292 290 288 289 289 288 286 284 284 284 283 282 282 282 282 283 283 283 283 283 282 282 280 280 280 281 280 280 280 280 280 280 280 282 283 284 283 283 284 284
295 293 292 289 288 289 289 288 286 284 284 283 282 281 282 282 282 282 282 283 283 282 281 281 280 280 280 280 280 280 280 280 280 281 282 283 283 282 284 284 284 284 283
294 291 288 288 288 289 288 286 284 283 283 282 281 280 280 280 281 281 282 282 281 281 280 280 280 280 279 279 279 281 281 282 282 284 284 283 283 283 283 284 284 284 284
290 288 288 288 289 288 286 284 284 283 283 282 281 280 280 279 280 280 281 280 280 280 279 279 279 279 279 279 280 281 282 283 284 284 284 284 283 283 283 284 285 285 285
288 288 288 288 288 286 284 283 283 283 282 281 280 279 280 280 280 280 280 280 279 279 279 278 278 278 279 281 282 282 283 284 285 285 284 284 285 284 284 285 285 285 285
288 288 288 287 285 283 283 282 282 281 280 279 279 280 280 280 280 280 280 279 279 278 278 278 278 280 281 282 282 283 284 285 285 285 285 285 285 285 285 285 285 286 284
287 287 287 285 283 283 282 281 280 279 279 279 279 279 279 279 279 279 279 278 278 278 278 278 279 281 282 282 283 283 284 285 286 286 286 286 286 286 285 286 286 286 286
287 287 285 283 282 282 281 280 279 279 279 279 279 279 279 278 278 278 278 278 278 278 279 279 281 282 282 283 283 284 285 286 286 286 286 286 287 287 287 287 286 286 286
287 284 283 282 282 281 280 279 279 279 279 279 279 279 279 279 278 278 278 279 279 279 279 280 282 282 283 283 284 285 285 286 286 286 286 287 287 287 287 287 287 286 286
284 283 282 281 280 280 279 280 280 279 279 279 279 279 278 278 278 279 279 279 279 279 280 281 283 283 284 284 285 285 286 286 286 286 287 287 287 287 287 287 287 287 286
282 282 281 280 279 280 280 280 279 279 279 279 279 278 278 278 279 279 279 279 279 280 281 283 283 284 285 285 286 286 286 286 286 287 287 287 287 288 288 287 287 286 286
282 281 280 279 280 280 280 279 279 279 279 279 278 278 278 279 279 279 279 279 280 280 283 284 284 285 285 286 286 286 286 286 287 288 288 288 288 288 287 287 287 286 286
281 280 279 280 280 280 279 279 279 279 279 279 278 278 278 279 279 279 280 280 280 282 284 284 285 285 286 286 286 286 287 288 287 287 288 288 287 287 286 286 286 286 285

GFSGL_850_thetae_015.txt.gz
Theta_e
323 328 330 329 325 325 318 314 314 309 307 307 306 304 304 304 303 301 298 296 294 292 291 291 291 291 290 288 288 287 287 287 288 288 288 288 288 287 287 287 288 287 287
317 327 328 328 324 321 313 312 310 306 306 305 304 303 303 302 301 299 296 293 292 291 291 291 291 289 288 287 287 287 287 287 287 288 288 287 288 287 287 288 287 286 285
320 326 325 323 321 314 310 311 306 305 304 303 303 302 302 301 299 296 293 291 290 290 291 290 289 288 287 287 287 287 287 287 287 287 287 287 286 287 288 287 286 286 285
322 323 324 320 314 309 307 306 304 303 303 302 302 302 301 299 297 293 291 290 290 291 290 289 288 287 287 286 286 286 287 286 286 286 286 286 287 287 286 286 285 284 285
321 320 315 314 308 305 304 303 303 302 301 301 301 300 300 298 294 291 289 290 290 289 288 288 288 287 286 286 287 286 286 285 285 285 286 287 286 285 285 284 284 284 284
318 315 303 305 304 303 304 303 302 301 301 300 300 299 297 293 291 289 291 289 287 287 287 287 287 286 286 286 287 286 286 286 286 286 287 286 285 285 284 284 283 284 285
314 306 305 304 304 303 303 302 301 300 299 299 298 296 293 290 290 290 289 286 286 286 286 286 286 286 286 286 285 285 285 285 286 285 285 285 284 283 283 284 284 284 283
304 303 301 305 304 303 301 300 299 298 298 297 295 292 289 291 290 287 286 286 285 286 286 286 286 286 286 286 285 285 285 284 284 284 284 284 283 284 285 285 283 283 283
304 300 306 305 301 300 299 298 298 298 297 294 291 290 291 288 287 286 286 285 285 286 286 286 286 286 285 285 285 285 284 283 283 283 283 284 284 284 284 283 283 283 283
304 300 300 300 299 298 298 298 298 295 292 290 291 290 288 286 286 286 284 283 285 285 285 285 285 285 285 285 285 284 283 282 282 282 283 282 282 282 283 283 283 283 283
301 300 299 298 298 298 298 296 294 291 290 291 289 287 286 286 285 284 283 282 284 284 284 284 284 285 284 285 284 283 282 283 283 282 282 282 282 282 283 283 284 283 282
298 298 298 298 298 297 295 293 290 290 290 289 287 286 285 285 284 283 283 284 284 284 284 284 284 284 284 283 282 282 282 283 281 281 281 281 281 282 284 284 284 284 283
299 299 298 297 296 294 292 290 290 290 289 287 285 285 284 284 283 283 283 284 284 284 283 284 283 283 283 281 281 282 282 281 281 281 281 281 282 284 284 284 284 283 284
299 298 297 295 293 290 290 290 290 288 286 285 284 284 283 283 283 282 282 282 283 283 283 282 282 282 281 281 281 281 281 281 281 281 281 282 283 284 284 283 283 284 282
298 296 294 291 289 290 290 289 287 286 284 284 283 283 281 281 281 281 282 282 282 282 282 281 281 281 281 280 281 281 281 281 280 282 282 283 284 283 284 284 284 283 281
296 293 290 289 289 289 288 287 286 285 284 283 283 281 281 280 280 280 281 282 282 282 281 280 280 280 280 280 280 281 282 282 283 283 284 284 283 283 284 285 284 284 282
293 289 289 289 289 288 286 285 284 283 283 282 281 281 280 280 280 280 281 281 281 280 280 279 279 279 279 279 280 281 282 283 283 284 284 284 284 284 284 285 284 284 285
289 288 288 288 288 286 285 284 284 283 282 281 280 280 280 280 280 281 281 280 280 279 279 279 279 279 279 280 281 282 282 283 284 285 285 285 285 284 285 285 285 284 284
288 288 288 288 286 284 284 283 283 281 280 280 280 280 280 280 280 281 280 279 279 279 278 278 279 279 280 281 282 282 283 284 285 285 285 285 286 285 286 286 286 286 285
288 288 288 285 284 283 283 282 281 280 280 280 279 279 279 280 280 279 279 278 278 278 278 279 279 280 281 282 282 283 284 285 285 285 285 286 286 286 286 286 287 287 286
288 287 285 284 283 283 281 280 280 280 280 280 279 279 279 279 279 278 278 278 278 279 279 279 280 282 282 283 283 284 284 285 285 286 286 286 287 287 287 287 287 287 287
287 285 283 283 283 281 280 280 280 280 279 279 279 279 279 278 278 278 278 279 279 279 279 280 282 283 283 283 284 284 285 285 286 286 287 287 287 287 287 287 287 287 287
284 283 283 283 281 280 280 280 280 279 279 279 279 279 278 278 278 279 279 279 279 280 280 281 283 283 284 284 285 285 285 286 286 286 286 287 287 287 286 287 287 286 286
283 283 282 281 280 280 280 280 280 279 279 279 279 279 278 278 279 279 279 280 280 280 281 283 283 284 285 285 285 286 286 287 287 286 286 286 286 286 286 286 286 286 285
283 282 281 280 280 280 280 280 279 279 279 279 279 279 279 278 279 279 280 280 281 282 283 284 284 285 285 285 286 286 287 287 287 286 286 287 286 286 286 286 285 285 286
282 280 280 280 280 280 280 279 279 279 279 279 279 279 279 278 279 280 281 281 282 283 284 285 285 286 286 286 286 287 287 287 287 286 286 286 286 286 286 286 286 286 287

GFSGL_850_thetae_021.txt.gz
Theta_e
321 325 326 327 327 329 326 324 324 323 319 313 312 312 307 307 305 306 305 305 304 303 299 295 292 291 292 292 291 290 288 287 287 287 287 286 286 286 285 285 285 286 286
321 324 324 325 326 325 324 322 322 321 312 311 309 306 305 306 304 305 304 304 302 299 294 292 291 292 291 290 289 288 288 287 286 286 286 286 285 285 285 285 286 285 284
321 323 324 325 324 322 322 320 316 315 312 311 304 304 304 303 304 303 303 302 298 295 292 291 292 291 290 289 288 288 287 287 287 286 286 286 285 285 286 286 284 284 284
322 323 324 322 320 322 317 314 314 310 309 304 304 304 303 303 303 303 302 299 294 292 292 291 289 288 288 288 287 287 287 287 287 286 286 286 285 285 285 284 284 284 284
322 320 321 317 313 309 309 307 305 306 306 305 302 302 302 302 302 303 298 294 292 292 290 288 287 287 287 287 287 287 287 287 286 286 285 285 285 284 284 284 283 283 284
316 316 312 309 305 304 303 302 305 300 301 301 300 302 301 302 302 296 293 292 292 290 289 288 287 287 286 286 286 286 287 286 287 285 285 285 284 283 283 283 283 284 284
310 309 306 303 302 302 303 300 298 299 298 299 301 300 301 300 296 293 292 291 289 288 288 286 286 286 286 285 285 286 286 286 286 285 284 283 283 283 283 284 284 284 283
306 304 303 302 301 301 301 302 300 304 300 301 300 299 297 293 292 292 291 289 288 287 286 285 285 285 285 285 286 286 286 285 284 284 283 283 283 284 284 284 283 283 283
298 298 299 302 304 306 306 304 300 303 302 298 296 292 291 292 291 290 289 288 287 286 284 284 284 284 284 285 286 286 285 285 284 283 283 283 283 283 283 283 283 282 283
304 304 306 307 307 305 301 301 297 295 296 294 290 291 291 289 288 288 288 287 285 284 284 284 283 284 284 285 286 285 284 284 283 283 283 283 283 284 284 284 283 282 282
306 304 303 301 301 300 296 295 296 296 291 290 291 290 289 288 287 286 285 284 284 284 283 283 283 283 284 285 284 284 283 283 284 283 283 284 284 285 285 285 284 283 283
305 303 301 295 294 294 295 295 292 291 291 291 290 288 287 286 285 284 284 284 284 283 282 282 283 283 283 283 283 282 283 283 282 282 283 284 284 285 285 285 285 285 285
298 296 294 294 294 295 292 291 291 291 291 289 287 287 286 284 283 282 282 281 281 281 282 283 283 282 281 281 281 281 281 282 282 283 283 284 284 285 285 285 285 286 286
294 295 295 294 292 290 291 292 291 290 288 287 286 285 284 283 282 281 281 281 281 282 283 283 283 281 280 280 281 282 282 282 282 282 283 284 285 285 285 285 285 285 285
298 297 295 293 291 291 291 290 289 287 286 286 285 284 282 282 282 281 281 282 282 283 283 282 281 280 280 280 281 282 283 283 283 283 284 284 285 285 285 285 285 285 283
296 293 291 290 290 290 289 288 286 286 285 284 283 282 282 281 281 281 281 282 283 282 281 280 280 280 280 280 281 283 283 283 283 284 284 284 284 285 285 285 285 285 284
292 290 290 290 289 289 287 286 285 284 284 282 281 281 281 281 281 281 281 282 281 280 279 280 279 280 280 281 282 283 283 284 284 284 284 285 285 285 284 285 285 284 285
290 290 289 289 288 286 286 286 285 284 282 282 281 281 281 280 280 280 280 280 280 280 279 279 279 280 280 282 283 283 284 284 284 285 285 285 285 284 284 284 285 285 285
290 289 289 288 287 286 286 284 283 282 281 281 281 281 281 281 280 279 279 279 279 279 279 280 280 280 282 283 283 284 284 284 285 285 285 285 285 284 284 285 285 285 285
290 290 289 287 286 285 284 282 282 281 281 281 280 280 280 280 280 279 279 279 279 279 279 280 281 282 283 283 284 284 284 285 285 286 285 285 285 285 285 285 285 285 285
290 288 287 286 285 284 282 281 281 281 281 280 280 280 279 280 279 279 279 279 279 280 280 281 283 283 284 284 284 284 285 286 286 286 285 285 285 285 285 285 285 285 285
288 286 285 285 284 282 281 281 281 281 280 280 280 280 279 279 279 279 279 280 280 280 281 282 283 284 284 284 285 285 285 286 286 286 286 285 286 286 286 285 285 285 285
286 285 285 284 282 281 281 281 280 280 279 279 279 279 279 279 279 279 279 280 280 281 282 283 284 284 285 285 285 285 286 286 286 286 286 286 286 286 286 286 285 285 285
285 285 284 282 281 281 280 280 280 279 279 279 279 279 279 279 279 279 279 280 281 282 283 284 284 284 285 285 285 286 286 286 286 286 287 287 287 287 287 286 286 285 285
285 284 282 281 281 280 280 280 279 279 279 279 279 279 279 279 279 279 280 281 282 283 283 284 284 285 285 286 286 286 286 287 286 287 287 287 287 286 286 286 286 286 286
284 282 281 281 281 280 280 280 279 279 279 279 278 279 279 279 279 279 280 281 282 283 284 284 285 285 285 286 286 286 286 287 287 287 287 288 287 287 287 286 286 286 286

GFSGL_850_thetae_024.txt.gz
Theta_e
313 316 317 319 325 326 327 326 327 327 328 325 323 318 310 307 309 307 306 304 306 303 304 302 298 295 293 292 292 291 290 289 288 287 287 287 287 286 286 285 285 286 285
314 317 319 320 322 325 326 326 327 327 326 322 320 313 308 307 306 309 306 303 304 302 302 299 295 293 292 292 291 289 288 288 287 287 287 287 286 286 285 285 285 284 284
316 319 322 321 323 324 325 326 325 324 322 317 314 309 306 306 305 304 301 302 302 301 298 295 293 292 291 290 288 288 288 287 287 287 287 286 286 285 285 284 283 283 284
319 318 320 321 323 323 324 324 322 320 317 310 306 304 305 303 299 299 301 300 301 299 295 293 292 290 288 288 288 287 287 287 287 286 286 286 285 285 284 283 283 283 284
317 317 320 321 320 321 320 317 316 309 305 303 306 304 300 300 300 298 300 300 297 294 293 291 289 288 287 287 286 287 287 287 286 286 286 286 285 284 284 283 283 284 284
313 314 315 315 314 316 312 309 307 304 303 304 298 298 300 297 299 300 298 293 293 292 290 289 288 287 286 286 286 286 286 287 287 286 286 285 284 284 283 283 284 284 284
311 307 307 311 309 303 304 302 302 301 299 300 300 299 297 297 298 300 292 292 291 289 288 288 287 286 285 285 285 285 285 286 286 285 285 284 284 283 284 284 284 283 283
304 303 303 304 301 301 301 300 301 301 301 301 298 299 300 301 296 292 291 289 288 288 287 286 285 284 284 284 285 285 285 285 285 285 284 283 283 284 284 284 283 283 283
301 299 298 300 302 302 302 302 303 303 302 300 299 300 296 291 291 290 289 288 287 286 286 285 284 283 283 285 285 285 285 285 284 283 283 283 284 284 283 283 284 283 283
299 299 302 304 304 303 303 303 302 300 300 295 293 291 291 290 288 287 288 287 286 285 284 283 283 282 283 285 285 285 284 283 283 283 283 284 284 284 284 284 284 283 283
300 301 302 303 302 301 300 300 298 296 294 292 290 290 289 287 286 286 285 285 284 284 283 282 282 282 284 284 284 283 283 283 283 283 283 284 284 285 285 285 285 284 284
302 302 303 302 301 299 296 293 293 293 290 290 289 288 287 286 286 285 284 283 282 282 282 282 282 283 283 282 282 281 282 282 282 283 283 284 284 285 285 285 285 285 285
303 300 297 295 295 296 294 292 291 291 290 289 287 286 285 286 285 284 283 281 281 281 282 283 283 283 282 281 280 281 281 282 283 283 283 284 284 285 285 285 285 285 286
298 297 295 296 295 292 290 290 290 289 287 286 286 286 285 284 283 282 282 282 282 282 283 283 283 281 280 280 281 281 282 283 283 283 284 284 285 285 285 285 285 285 285
298 296 295 292 290 290 290 290 289 288 287 286 286 285 283 282 282 282 282 282 283 283 283 282 281 280 280 281 281 283 283 283 283 283 284 284 285 285 285 285 285 285 284
296 292 290 290 290 290 289 288 287 287 286 285 283 282 282 282 282 282 281 282 282 282 281 280 280 280 280 280 282 283 283 284 284 284 285 285 285 285 285 285 284 284 284
293 291 290 290 290 290 288 287 285 285 283 282 282 281 281 281 281 281 281 281 280 280 279 280 280 280 280 281 283 283 284 284 284 285 285 285 285 284 284 284 284 284 285
290 290 290 290 289 287 286 285 285 283 282 282 282 281 281 280 280 280 280 280 279 280 279 280 280 280 281 283 283 283 284 284 285 285 285 285 285 284 284 284 284 284 284
290 290 289 288 286 286 285 284 283 282 282 282 281 281 280 280 280 280 279 279 279 280 280 280 280 281 283 283 283 284 284 285 285 285 285 285 285 285 285 285 285 284 284
289 289 287 286 285 285 284 283 282 282 281 281 281 280 280 280 280 279 279 279 279 280 280 280 282 283 283 284 284 284 285 285 286 286 285 284 285 286 286 286 286 285 285
289 287 286 285 285 284 283 282 281 281 281 280 280 280 279 280 279 279 279 279 280 280 280 282 283 283 284 284 285 285 285 285 286 285 284 285 286 287 286 286 286 285 285
288 286 286 285 284 283 282 281 281 281 280 280 280 279 279 279 279 279 279 279 280 281 282 283 283 284 284 285 285 285 285 286 285 284 285 286 287 286 286 286 286 286 286
287 286 285 284 283 282 281 281 281 280 280 279 279 279 279 279 279 279 279 280 280 281 282 283 283 284 285 285 285 285 285 285 285 285 286 287 287 286 286 286 286 286 286
286 285 284 283 282 281 281 280 280 280 279 279 279 279 279 279 279 279 279 280 281 282 283 283 284 284 285 285 285 286 286 286 284 285 286 287 287 287 286 286 286 286 286
285 285 283 282 281 281 281 280 280 279 279 279 279 279 279 279 279 279 279 280 281 282 283 284 284 285 285 285 286 286 286 286 285 286 286 287 287 287 287 286 286 286 286
285 283 282 281 281 281 280 280 279 279 279 279 279 279 279 279 279 279 279 280 281 282 284 284 285 285 285 286 286 286 286 286 286 286 287 287 287 287 286 286 285 285 285

GFSGL_850_thetae_027.txt.gz
Theta_e
311 310 311 312 314 315 316 317 326 327 327 326 326 326 323 322 316 309 307 305 306 307 304 303 304 303 298 294 293 293 292 291 289 289 288 287 287 287 286 286 286 285 285
310 310 310 314 316 318 319 320 325 326 326 326 325 324 320 311 308 307 303 308 306 304 306 305 300 299 295 292 293 292 290 289 288 288 287 287 287 286 286 285 285 285 284
310 310 311 313 317 319 320 323 325 325 324 324 323 317 309 307 306 303 307 305 306 305 303 299 296 295 293 292 291 289 288 288 287 287 287 286 286 286 285 285 284 284 284
311 311 312 317 319 320 321 322 321 321 319 317 314 312 307 305 304 305 304 304 301 299 298 298 294 292 291 289 288 288 287 287 287 287 286 286 286 285 285 284 283 284 285
312 314 316 318 318 318 318 319 315 315 314 313 310 304 304 303 302 302 301 298 299 299 294 293 290 289 288 288 287 287 287 287 286 286 286 286 285 285 284 283 283 284 284
311 312 312 312 313 314 315 316 311 308 306 305 302 302 302 302 302 302 300 298 296 292 294 290 288 287 287 286 286 286 286 286 287 286 286 286 285 284 284 283 284 284 283
308 308 307 308 309 308 307 307 304 304 303 302 302 303 301 299 301 298 296 296 297 290 289 288 287 287 286 285 284 284 284 284 286 286 285 285 284 283 284 284 284 284 283
303 306 304 302 302 301 300 300 301 301 302 302 302 301 301 301 300 299 298 292 288 287 287 287 286 285 284 284 284 285 285 285 285 285 284 283 283 284 284 284 283 283 283
300 300 300 300 300 301 302 301 302 302 303 302 302 300 298 298 297 295 288 287 287 287 286 285 284 283 283 283 285 285 285 285 284 283 283 283 283 283 283 283 284 283 284
297 299 300 299 299 299 301 300 300 301 300 299 298 299 295 291 288 287 287 287 287 286 285 284 283 282 282 285 285 285 284 283 283 283 283 283 283 284 284 284 284 283 283
298 299 299 299 300 300 300 299 301 300 300 299 295 291 289 288 288 286 285 285 285 284 283 282 282 282 283 284 284 283 282 283 283 282 282 284 284 285 285 285 285 284 284
300 300 299 299 299 299 300 300 298 295 292 290 289 289 288 287 286 286 285 283 282 282 282 282 282 284 283 283 282 281 281 282 282 282 283 284 284 285 285 285 285 285 285
300 300 299 297 295 294 296 294 291 290 290 289 288 287 287 286 285 284 282 281 282 282 283 283 283 283 282 281 281 281 281 281 283 283 284 284 285 285 285 285 285 285 285
296 294 294 294 293 291 290 290 290 289 288 287 286 285 285 284 282 282 282 283 283 283 283 283 283 282 280 280 280 280 282 282 283 283 284 284 285 285 285 285 285 285 285
296 295 293 292 290 290 290 289 288 287 286 286 285 284 283 283 283 283 283 283 283 283 283 282 281 280 280 280 281 282 283 283 283 284 284 285 285 285 285 285 285 285 284
296 293 291 291 290 290 289 289 288 287 287 286 285 284 283 283 282 282 281 282 282 281 281 280 280 280 280 280 281 283 283 284 284 284 284 285 285 285 285 285 285 285 285
293 291 290 290 290 290 288 287 287 286 285 284 282 282 281 281 281 281 281 281 280 280 280 280 280 280 280 281 282 283 284 284 284 284 285 285 285 285 285 286 286 286 286
291 290 290 290 289 288 287 286 285 284 283 282 282 282 281 281 280 281 281 280 280 280 280 280 280 280 281 283 283 284 284 284 284 285 285 285 284 285 286 286 286 285 285
290 290 290 289 287 286 286 285 284 283 282 282 282 281 281 280 280 280 280 279 279 279 280 280 280 281 283 283 284 284 284 284 284 285 285 284 284 284 286 286 286 285 285
290 290 289 287 286 285 285 284 282 282 282 281 281 281 280 280 280 280 279 279 279 279 280 280 282 283 283 284 284 284 285 285 285 285 285 284 284 285 285 286 286 286 286
289 289 287 286 285 285 284 282 282 281 281 281 280 280 279 280 279 279 279 279 279 280 280 281 283 283 284 284 284 285 285 285 285 285 283 285 285 285 286 286 286 286 286
289 287 286 285 284 283 282 282 281 281 280 280 280 279 279 279 279 279 279 279 279 280 281 282 283 283 284 284 284 285 285 285 285 284 284 286 286 286 287 286 286 286 286
287 286 285 284 284 282 282 281 281 280 280 280 279 279 279 279 279 279 279 279 280 280 281 282 283 284 284 284 285 284 284 285 285 284 285 286 286 287 287 287 286 286 285
286 285 285 284 282 282 281 281 281 280 280 279 279 279 279 279 279 279 279 280 280 281 281 283 283 284 284 285 285 285 285 285 285 284 285 286 286 287 287 286 286 286 285
285 285 284 283 282 282 281 281 280 280 279 279 279 279 279 279 279 279 279 280 280 281 282 283 284 284 285 285 285 286 286 286 286 284 286 286 286 287 286 286 286 286 286
285 284 283 282 282 282 281 280 280 280 279 279 279 279 279 279 279 279 280 280 281 281 282 284 284 285 285 286 286 286 287 287 287 286 285 286 287 287 286 286 286 286 285

GFSGL_850_thetae_030.txt.gz
Theta_e
311 310 310 310 310 310 312 314 316 319 323 326 325 326 327 326 323 321 319 314 308 305 304 307 306 304 304 304 297 296 294 293 291 291 289 289 288 288 288 287 286 286 286
312 311 310 310 309 310 314 315 317 321 323 325 325 325 324 323 320 317 312 308 305 303 305 306 306 301 304 303 301 294 292 291 290 288 288 288 287 287 286 286 286 285 285
310 310 310 310 310 311 314 318 319 321 322 322 321 321 321 320 318 311 307 305 301 304 304 304 303 296 296 296 293 292 290 289 288 287 287 287 286 286 286 285 285 285 284
310 310 310 311 313 314 317 318 317 319 319 317 318 318 318 314 308 305 302 302 304 304 304 302 297 295 296 295 291 290 288 288 287 287 287 286 286 286 285 285 284 283 284
310 310 311 311 314 315 316 316 317 318 318 315 315 313 308 305 302 303 304 303 302 302 301 298 293 293 295 292 289 288 287 287 287 286 286 286 286 285 285 284 283 284 285
309 308 309 311 311 313 313 313 313 314 313 311 306 305 303 303 303 302 303 302 302 300 300 296 297 291 288 288 287 286 285 285 285 286 286 285 285 284 284 283 284 284 284
304 306 307 308 309 310 309 308 306 306 304 304 303 302 301 302 302 302 302 302 301 299 299 294 287 288 287 286 285 284 284 284 285 285 285 285 284 283 283 284 284 283 283
300 301 302 303 304 304 303 303 302 301 299 300 300 301 302 301 300 300 299 299 300 293 286 287 287 287 286 284 283 284 285 285 285 285 284 283 283 284 284 284 283 283 283
297 298 299 299 301 300 300 301 301 300 300 300 299 299 299 299 298 298 299 292 287 287 287 287 286 285 283 283 284 285 285 285 284 283 283 283 283 283 283 283 284 283 284
297 297 298 299 299 299 298 299 299 299 298 298 298 298 298 298 294 288 288 287 287 287 286 285 283 282 282 284 285 285 284 283 282 282 282 283 283 284 284 284 284 284 283
298 298 298 299 299 299 299 299 298 299 299 299 299 296 290 289 289 287 287 286 286 285 283 282 282 282 283 285 284 283 282 282 282 282 282 284 284 285 285 285 285 284 284
300 299 299 299 298 298 298 297 297 295 291 290 290 289 288 287 286 286 285 284 283 282 282 283 283 283 284 283 282 281 281 281 281 282 284 284 285 285 285 285 285 285 285
300 300 299 297 296 295 294 291 290 289 289 289 288 287 286 285 285 284 283 282 282 282 282 283 283 283 282 281 280 280 280 281 282 283 284 284 285 285 285 286 286 285 286
298 295 295 294 291 290 290 289 289 289 288 287 286 286 285 285 284 283 283 283 283 283 283 282 282 281 280 280 280 280 281 282 283 283 284 284 285 285 286 285 285 286 286
296 294 292 290 290 290 290 289 288 287 287 286 286 285 284 283 283 283 283 282 282 282 282 281 280 280 280 280 281 281 283 283 284 284 284 284 285 285 285 285 286 286 286
294 291 290 290 290 289 288 288 287 287 286 285 284 283 282 282 282 282 281 281 281 280 280 280 280 280 280 281 282 283 284 284 284 284 284 285 285 285 285 286 285 286 286
291 290 290 289 289 288 287 286 285 285 284 284 283 282 282 282 281 281 281 281 280 280 280 280 280 280 281 282 283 283 284 284 284 284 285 285 285 285 284 285 286 286 286
290 290 290 289 288 287 286 286 286 285 284 283 282 282 281 281 281 281 281 281 280 280 280 280 280 280 282 283 283 284 284 285 285 285 285 285 283 283 284 284 285 286 286
290 290 290 289 288 287 286 286 284 283 283 282 282 281 281 280 280 280 280 280 280 279 280 280 280 282 283 283 284 284 284 285 285 284 285 284 283 284 284 284 286 286 286
290 290 290 288 287 286 285 285 284 283 282 282 281 281 280 280 280 280 279 279 279 279 280 280 281 283 283 283 284 284 285 285 285 285 285 283 284 285 285 285 286 286 286
290 290 288 287 286 285 285 284 282 282 281 281 280 280 279 280 279 279 279 279 279 279 280 281 282 283 283 284 284 284 284 285 285 285 285 285 285 286 286 286 286 286 286
290 289 287 286 285 285 283 282 281 281 281 280 280 280 279 279 279 279 279 279 279 279 280 281 283 283 283 284 284 284 284 285 284 284 284 284 285 286 286 286 286 286 286
289 288 286 285 284 283 282 282 281 281 280 280 280 279 279 279 279 279 279 279 280 280 280 281 283 284 284 284 284 284 284 284 283 283 284 284 285 286 286 286 286 286 286
288 286 285 285 283 282 282 282 281 281 280 280 279 279 279 279 279 279 279 280 280 280 280 281 282 283 284 284 285 285 285 285 285 285 285 285 285 286 286 287 286 286 286
287 285 285 284 282 282 282 282 281 281 280 279 279 279 279 279 279 280 280 280 280 281 281 282 283 284 284 285 285 285 286 286 286 285 284 284 285 286 286 286 286 286 286
286 285 284 283 282 282 282 281 281 280 280 279 279 279 279 280 280 280 280 280 281 281 282 282 283 284 284 285 286 286 286 286 286 286 284 284 285 286 286 286 286 286 286

GFSGL_850_thetae_033.txt.gz
Theta_e
312 312 312 311 310 310 310 310 311 312 314 319 322 325 326 326 326 326 325 324 321 316 312 308 309 308 306 303 303 304 299 295 296 295 294 292 291 290 289 288 287 287 287
311 310 310 310 310 309 310 310 313 315 315 318 321 322 323 324 324 322 322 321 321 310 307 306 305 303 304 305 302 301 298 295 294 292 291 290 289 288 288 287 287 286 286
310 311 310 310 310 311 311 311 314 316 317 318 320 321 320 320 320 319 318 315 310 306 306 304 303 304 304 302 303 294 294 292 293 290 288 288 288 287 286 286 285 285 285
309 310 310 310 310 310 311 310 313 316 316 317 318 319 319 317 316 315 313 307 304 303 303 303 304 303 302 298 299 299 298 292 288 287 287 287 286 286 286 285 285 284 284
309 309 310 311 310 311 310 311 312 313 313 313 315 316 316 312 309 306 302 301 302 302 302 302 300 300 300 299 300 293 289 288 288 287 286 286 286 285 285 285 284 283 285
307 308 308 309 310 310 310 310 311 311 311 309 309 308 309 305 302 299 301 301 302 303 302 301 300 300 299 295 288 287 286 286 286 286 286 285 285 285 284 284 283 284 284
302 303 304 305 306 306 306 306 307 306 305 303 303 301 300 300 300 300 301 302 301 300 299 298 299 293 287 286 286 286 285 284 284 285 285 285 285 284 283 283 284 284 283
299 300 301 301 303 302 301 301 301 301 302 302 301 299 299 299 299 300 300 299 299 298 299 295 287 286 286 286 285 284 284 284 285 285 285 284 283 283 284 283 283 283 283
298 299 299 299 299 299 299 299 299 299 299 299 299 299 299 298 297 299 299 299 300 292 288 286 286 285 284 284 283 284 285 285 285 284 283 282 282 282 283 283 283 283 283
298 298 298 299 299 299 298 298 297 297 298 298 297 297 297 298 298 297 291 287 287 287 286 285 284 284 284 283 285 285 285 284 282 282 282 282 282 283 284 284 284 284 284
298 298 298 298 298 298 298 298 297 298 297 297 298 297 296 292 288 287 287 288 286 285 284 283 283 283 283 285 284 284 282 282 282 281 281 283 284 284 285 285 285 285 284
299 298 298 298 298 298 298 297 297 296 294 291 289 289 288 287 286 286 285 284 283 283 283 283 283 283 284 283 282 281 281 281 281 281 283 284 285 285 285 285 286 285 285
299 298 298 296 295 292 291 290 290 290 289 289 288 287 286 286 285 284 283 282 282 283 283 283 283 282 281 281 280 280 280 281 282 283 284 285 285 285 286 286 286 286 287
296 295 293 291 290 290 290 290 289 288 287 286 286 286 285 284 283 283 283 283 283 283 282 282 281 281 280 280 280 280 281 282 283 284 284 285 285 285 286 286 286 287 288
294 292 291 290 290 290 289 288 287 287 286 286 285 284 283 283 283 283 282 282 282 282 281 281 280 280 280 280 281 282 283 284 284 284 284 285 285 285 286 286 286 287 287
292 291 290 290 290 289 288 287 287 286 285 284 283 283 282 282 282 281 281 281 281 281 280 280 280 280 280 281 283 284 284 284 284 285 285 285 285 285 286 286 286 286 286
291 291 290 290 289 288 287 286 285 285 284 283 282 282 281 281 281 281 281 281 280 280 280 280 280 280 281 282 283 284 284 284 285 285 285 285 285 285 285 285 285 285 286
290 290 290 289 288 287 286 286 285 285 284 283 282 282 281 281 280 280 280 280 280 280 280 280 280 281 282 283 284 284 285 285 285 285 285 285 284 284 284 285 284 285 286
290 290 289 289 287 287 286 286 285 284 283 282 282 281 281 280 280 280 280 280 280 280 280 280 280 281 283 283 284 284 284 285 285 284 285 285 284 283 284 285 285 286 286
290 289 289 288 287 286 286 285 284 283 282 282 281 281 280 280 280 280 280 280 280 280 280 280 281 282 283 283 284 284 285 285 285 284 285 284 284 284 285 285 286 286 286
289 289 289 287 286 286 285 284 283 282 282 281 281 280 280 280 280 279 280 279 279 280 280 280 281 282 283 283 283 284 284 285 284 284 283 284 284 284 285 285 286 286 286
289 289 288 287 286 285 284 283 282 282 282 281 280 280 279 279 279 279 279 279 280 279 280 280 281 282 283 283 283 284 284 285 284 283 284 284 285 285 285 285 285 286 285
289 289 288 287 286 285 283 283 282 282 281 280 280 280 279 279 279 279 279 279 279 280 280 280 281 282 282 283 283 284 284 285 284 283 284 284 285 284 285 285 285 285 285
289 289 287 286 285 284 283 283 282 281 281 280 280 279 279 279 279 279 279 280 280 280 280 280 281 282 282 283 284 284 285 285 285 285 285 285 285 285 284 284 285 286 286
289 289 287 286 284 283 283 282 282 281 280 280 280 280 279 279 280 280 280 280 280 281 281 281 282 282 283 284 284 285 285 285 285 286 285 284 283 284 284 285 285 286 286
289 288 286 285 284 283 283 282 282 281 281 281 280 280 280 280 280 280 280 281 281 281 281 282 283 283 284 285 286 286 286 286 286 286 285 284 284 284 285 285 286 286 286

GFSGL_850_thetae_036.txt.gz
Theta_e
311 311 311 311 311 311 310 310 311 312 312 314 316 318 320 321 323 324 324 324 323 323 322 321 315 318 308 305 307 308 309 305 303 303 297 294 297 299 294 290 289 288 288
310 311 311 310 310 310 310 310 311 312 313 314 315 320 321 322 323 322 322 322 322 322 320 317 313 308 305 305 304 304 304 304 301 299 300 301 301 297 293 289 288 287 287
310 310 310 311 310 310 310 312 313 314 315 315 316 319 318 318 319 320 319 317 317 317 316 311 305 303 303 303 304 304 302 301 300 300 299 297 291 289 288 287 287 287 287
309 309 309 310 310 311 310 310 310 311 311 313 314 315 316 315 315 316 317 315 312 311 308 304 304 302 303 303 302 300 300 299 296 297 293 289 288 287 286 286 287 287 286
306 307 308 308 309 310 310 310 310 310 310 310 313 314 314 312 310 311 310 310 308 305 302 301 301 302 302 301 300 300 299 297 296 290 288 287 287 287 288 287 286 286 285
303 305 306 307 307 307 309 309 310 311 311 311 313 310 308 306 304 302 301 302 300 300 301 302 302 301 300 299 298 299 296 289 287 286 287 287 287 287 287 286 286 285 285
301 302 303 304 305 307 307 307 307 308 308 306 304 303 303 302 300 298 298 299 301 301 301 300 300 299 298 298 292 287 286 285 285 287 287 287 287 286 286 284 284 285 285
300 301 301 302 303 303 303 303 303 303 301 300 299 298 298 298 298 299 299 300 300 299 299 298 297 295 291 287 286 285 284 284 284 285 285 286 285 285 285 284 284 284 285
299 299 300 300 300 300 300 300 299 299 298 298 297 297 298 296 298 298 297 297 297 298 294 288 287 287 286 284 283 284 284 285 285 285 284 283 282 282 283 283 283 284 284
298 298 298 298 299 299 299 299 298 298 297 297 297 296 296 297 295 297 297 293 289 287 287 286 285 284 283 283 285 286 285 285 284 283 283 283 282 282 284 284 284 284 283
298 298 298 298 298 297 297 297 297 297 297 297 296 296 295 293 290 287 287 286 286 285 284 284 283 283 283 284 284 284 284 283 282 282 282 282 284 284 284 284 285 285 285
299 299 299 298 298 297 297 297 297 296 294 291 289 288 287 287 286 286 286 285 283 283 283 284 284 284 283 283 283 282 281 281 281 281 282 283 284 284 285 285 285 285 285
298 298 297 294 292 291 290 290 290 289 289 288 287 287 286 285 285 284 283 283 284 284 283 283 283 282 281 281 281 281 281 281 281 283 284 284 284 285 285 285 286 286 286
294 293 291 291 291 290 290 289 289 288 287 287 286 286 285 284 284 283 283 283 283 282 283 282 281 281 280 281 281 281 281 282 283 284 284 285 285 285 286 286 286 286 286
293 291 291 291 290 290 289 288 288 287 287 286 285 284 283 283 283 283 282 283 283 282 281 281 280 280 280 280 281 281 283 284 284 284 284 285 285 285 285 285 286 286 286
292 291 291 290 290 289 288 287 287 286 286 285 283 283 282 282 282 281 281 281 281 281 280 280 280 280 281 281 282 283 284 284 284 284 285 285 285 285 285 285 285 285 285
291 291 290 290 289 288 287 287 286 285 284 283 283 282 282 281 281 281 281 281 281 281 280 280 280 280 281 281 283 284 284 284 284 285 285 285 285 285 284 285 285 285 285
291 291 290 290 289 287 287 286 285 284 283 283 282 282 281 281 281 280 280 280 280 280 279 279 280 280 281 282 283 284 284 284 284 284 285 285 284 284 284 285 285 285 285
290 290 290 289 288 287 287 286 285 284 283 282 282 282 281 281 280 280 280 280 280 280 279 279 280 280 281 283 284 284 284 285 285 284 284 284 284 284 284 284 284 285 285
290 290 290 289 287 287 287 286 285 283 283 282 282 281 281 280 280 280 279 279 279 279 279 279 279 280 281 283 283 284 284 284 284 284 284 284 284 284 284 284 284 284 285
290 290 290 288 287 287 286 285 284 283 283 282 282 281 280 280 280 280 279 279 279 279 279 280 280 280 281 282 283 284 284 284 284 284 284 284 284 284 284 284 284 284 285
290 290 289 288 287 287 286 284 283 283 282 282 281 281 280 280 280 279 279 279 280 280 280 280 281 281 281 282 282 283 284 284 284 285 285 285 284 284 284 284 284 284 284
289 289 289 288 287 286 285 284 283 283 282 282 281 280 280 280 280 280 280 280 280 280 280 280 281 282 282 282 282 283 284 284 285 285 285 284 284 284 284 283 283 284 284
289 289 288 287 286 285 284 284 283 283 282 281 281 280 280 280 280 280 280 280 280 281 281 281 281 282 282 282 283 283 284 285 285 285 285 284 284 284 284 284 283 284 285
289 289 288 286 286 284 284 284 283 283 282 282 281 281 280 280 280 280 280 281 281 281 281 281 282 282 283 283 284 285 286 286 285 285 285 284 283 283 284 284 285 286 285
289 289 288 286 285 284 284 284 283 283 283 283 282 282 282 281 281 281 281 281 281 281 282 282 283 283 285 286 286 287 286 286 285 285 284 284 284 285 285 285 285 285 285

GFSGL_850_thetae_039.txt.gz
Theta_e
309 310 311 312 313 313 311 311 311 310 310 312 317 322 322 322 323 321 321 322 321 320 320 319 319 319 317 312 308 312 315 314 305 304 304 298 295 297 300 302 302 302 301
309 309 310 311 313 314 311 310 311 312 312 313 314 314 315 318 318 318 317 317 317 316 316 315 316 314 314 311 310 307 303 303 306 305 301 301 302 301 301 300 301 294 291
309 309 309 309 310 311 310 310 310 312 312 312 313 314 315 315 315 317 316 316 314 313 313 312 313 311 308 307 305 301 302 303 303 303 303 301 300 299 299 298 294 291 288
306 307 307 307 309 309 310 310 310 310 310 311 311 311 312 312 313 314 315 313 312 309 307 307 306 306 304 302 302 303 304 303 302 301 300 299 298 296 294 289 288 288 288
302 304 305 306 308 308 309 309 309 310 309 309 310 310 311 311 311 309 311 309 307 305 303 302 300 300 302 302 303 303 302 301 300 298 296 294 291 288 288 288 288 288 287
301 302 303 304 306 307 307 307 307 307 308 307 306 306 307 307 308 305 306 303 302 302 301 301 301 300 302 300 300 299 299 298 297 294 289 287 287 288 288 288 287 287 285
301 301 303 304 304 306 307 306 306 305 303 304 304 303 306 305 302 300 298 298 299 299 299 299 299 299 298 297 297 297 297 291 287 286 287 288 288 288 287 287 286 285 285
300 300 302 304 303 303 302 303 302 302 303 301 301 301 301 298 298 298 298 298 298 298 297 297 296 297 298 292 291 288 287 285 285 285 286 286 286 286 285 285 285 285 284
301 301 302 301 301 300 300 300 300 300 300 300 299 299 298 298 297 297 297 297 297 296 297 297 290 287 287 287 286 285 285 285 286 286 285 285 284 283 283 283 283 283 284
299 299 299 299 299 299 299 299 298 298 298 298 298 297 297 297 297 297 298 295 290 288 287 286 285 285 284 283 283 286 287 286 285 284 283 284 283 282 283 283 284 284 284
299 299 299 299 299 298 298 297 298 298 297 297 296 295 294 292 289 288 287 286 286 285 284 284 284 284 284 283 284 285 285 284 283 282 283 282 282 284 284 284 285 284 285
299 299 299 299 298 297 297 296 295 292 290 289 289 288 288 287 287 286 286 285 284 284 284 284 284 284 283 283 283 282 282 282 282 282 282 283 284 284 284 285 285 285 285
298 296 294 293 291 290 290 290 289 289 288 288 287 287 286 286 285 284 284 284 284 284 284 283 283 282 282 282 282 282 281 281 281 282 283 284 284 285 285 285 285 286 286
293 292 291 290 290 290 290 289 288 288 287 287 287 286 285 285 284 284 284 283 283 283 283 283 282 282 281 281 281 281 281 282 283 284 284 284 285 285 286 285 285 286 286
292 291 291 291 290 290 289 289 289 288 288 287 286 285 284 284 284 283 283 282 282 282 282 281 281 281 281 281 281 281 282 283 283 284 284 285 285 285 285 285 285 285 285
292 291 291 291 290 289 289 288 288 288 287 286 285 284 284 283 283 282 282 281 281 281 281 280 280 280 280 280 281 282 283 284 284 285 285 285 285 285 285 285 285 285 285
292 291 291 291 290 289 288 288 288 287 287 285 284 284 283 282 282 281 281 281 281 281 280 280 280 280 280 280 281 283 284 284 284 285 285 285 285 285 285 285 285 285 285
292 291 291 291 290 289 288 287 286 286 284 283 284 283 283 282 281 281 281 281 280 280 280 280 280 280 280 281 282 284 284 284 284 284 285 285 285 285 285 285 284 284 284
291 291 291 290 290 289 288 287 286 285 284 284 283 283 283 282 281 281 281 280 280 280 280 280 280 280 280 281 282 283 284 284 284 284 284 285 285 285 285 284 284 284 282
291 291 290 290 289 288 287 286 286 284 284 284 283 283 282 281 281 281 280 280 280 280 280 280 280 280 280 281 282 283 283 284 284 284 284 284 284 284 284 284 284 283 284
291 290 290 290 289 288 287 286 285 284 284 284 283 282 281 281 280 280 280 280 280 280 280 280 280 280 281 281 282 282 283 283 284 284 283 284 285 284 284 284 283 283 283
291 290 290 290 289 287 287 286 284 284 284 283 283 282 281 281 280 280 280 280 280 280 280 280 280 281 281 281 281 282 282 283 283 283 283 285 284 284 284 284 284 284 283
290 290 289 289 288 287 286 285 284 284 284 283 283 282 281 281 281 281 280 280 280 280 280 280 281 281 281 281 282 282 283 283 283 283 285 285 284 284 284 284 284 284 284
290 289 289 289 288 287 286 285 284 284 284 283 283 282 282 281 281 281 281 281 281 281 281 281 281 282 282 282 282 283 283 284 285 285 285 284 284 284 284 284 284 284 284
290 289 289 289 288 286 286 284 284 284 284 284 283 283 282 282 282 281 281 281 281 281 282 282 282 282 283 284 285 285 286 286 285 285 285 284 284 284 284 284 284 284 284
290 289 289 289 287 286 285 284 284 284 284 284 284 284 283 283 283 283 283 283 283 283 283 283 284 285 285 286 287 287 286 286 285 285 284 284 284 284 284 284 284 284 285

GFSGL_850_thetae_042.txt.gz
Theta_e
308 309 309 311 312 314 313 311 310 311 311 311 310 312 315 318 319 319 319 320 320 321 321 319 317 317 316 316 315 314 311 307 305 308 306 307 301 300 300 301 296 298 302
308 309 309 310 312 312 312 310 310 310 311 311 312 312 313 314 318 318 316 316 316 317 317 316 315 314 313 312 311 308 306 306 305 305 304 304 304 302 299 296 300 302 302
307 307 307 308 309 309 310 310 310 310 310 310 310 310 311 311 313 313 312 312 314 315 315 314 312 310 309 308 306 305 304 305 305 305 304 303 302 300 300 300 299 300 299
305 306 307 307 308 308 308 309 309 309 310 310 310 310 310 311 311 311 311 311 312 312 313 311 309 308 305 304 303 303 302 302 302 302 302 301 300 299 299 298 297 290 289
301 303 303 305 307 307 308 308 308 308 308 309 308 308 308 308 307 308 310 309 309 308 307 304 303 303 301 300 300 301 301 300 300 299 300 298 298 298 293 288 288 288 288
301 302 302 304 305 306 307 306 306 307 307 306 307 306 305 305 303 304 304 303 303 302 301 301 300 299 299 299 299 299 299 299 298 297 297 296 289 288 288 288 288 288 287
302 302 302 303 303 303 304 304 306 307 305 305 305 304 303 301 299 299 299 300 299 298 298 298 298 297 297 297 297 297 297 296 293 290 287 288 288 288 287 287 287 286 285
301 301 301 301 301 300 302 303 303 303 303 302 300 300 300 299 299 298 298 298 298 298 297 297 296 296 296 296 295 290 288 286 285 286 286 285 286 286 286 286 285 284 284
300 300 300 300 300 300 301 301 301 300 300 299 299 299 299 298 297 297 297 297 296 296 296 296 294 290 287 286 285 284 285 286 286 287 286 285 284 284 283 283 283 283 283
298 298 299 300 299 300 299 299 298 298 298 298 298 298 298 297 296 296 293 289 288 288 287 286 285 284 283 283 284 285 286 287 286 286 285 283 283 283 282 283 283 284 284
300 300 299 299 299 298 298 298 297 297 295 292 290 290 290 289 288 288 287 286 285 285 284 284 284 284 284 284 284 284 284 284 284 283 282 282 282 283 284 284 285 285 285
300 300 299 298 297 295 294 292 291 290 290 289 289 288 288 287 287 286 285 284 284 284 284 284 284 283 283 283 283 282 282 282 281 281 282 282 283 284 284 284 285 285 285
296 294 293 292 292 291 291 290 289 289 288 288 288 288 287 286 285 285 284 284 284 284 284 283 283 283 282 282 282 281 281 281 281 282 282 284 284 285 285 285 285 286 286
293 292 292 291 291 290 290 290 289 289 288 288 288 287 286 285 285 285 284 283 283 283 283 282 282 282 281 281 281 281 281 282 282 283 284 285 285 285 285 286 286 286 285
293 292 292 291 291 291 290 289 289 288 288 287 287 286 285 284 284 284 283 283 282 282 282 282 282 281 281 281 281 281 282 283 284 285 285 285 286 286 286 286 286 285 284
293 292 292 291 291 290 290 289 289 288 287 287 286 285 284 284 283 283 282 282 281 281 281 281 281 281 280 280 281 281 282 284 285 285 285 285 286 286 286 286 285 285 285
293 292 292 291 291 290 289 289 289 288 288 286 285 284 284 283 283 282 282 282 281 281 281 281 280 280 280 280 281 281 283 284 285 285 285 285 285 285 285 285 285 284 285
294 292 292 291 291 290 289 289 288 288 287 285 285 284 284 283 282 282 281 281 281 281 280 280 280 280 280 280 280 281 283 284 284 284 284 284 284 284 284 284 284 284 284
294 292 291 291 291 290 289 288 288 287 286 285 284 283 283 283 282 282 282 281 281 280 280 280 280 280 280 280 280 281 281 283 283 284 283 283 283 283 283 284 284 284 283
295 292 291 291 291 290 289 288 288 287 286 284 284 283 283 282 282 281 281 280 280 280 280 280 280 280 280 280 280 280 281 282 282 282 282 282 282 282 283 283 283 283 284
295 293 291 291 291 290 289 288 287 287 285 285 284 283 283 282 282 281 281 281 280 280 280 280 280 280 280 280 280 281 281 281 282 282 282 282 283 283 284 284 284 284 283
296 293 291 290 290 290 289 288 287 286 285 285 284 284 283 282 282 281 281 281 281 280 280 281 281 281 281 281 281 281 281 282 282 282 283 284 284 285 284 284 283 283 283
295 293 291 290 290 289 288 287 287 285 285 285 284 284 283 283 282 282 281 281 281 281 281 281 281 281 281 281 281 281 282 283 284 284 285 285 284 284 284 284 283 283 284
297 293 290 290 290 289 288 287 286 285 285 285 284 284 284 283 283 282 282 282 282 282 282 282 282 282 282 283 283 284 285 285 285 285 285 285 284 284 284 284 284 284 284
296 292 290 289 289 289 288 287 286 285 285 285 285 285 284 284 284 284 284 284 284 284 284 283 284 284 284 285 286 286 286 286 285 285 284 284 284 284 284 284 284 284 284
294 291 290 289 289 289 288 287 285 285 285 285 285 285 285 285 286 286 286 286 286 286 286 286 285 285 285 286 286 286 286 285 285 284 284 284 284 284 284 285 285 285 285

GFSGL_850_thetae_045.txt.gz
Theta_e
308 308 308 309 311 312 312 312 310 310 310 311 311 311 311 312 316 316 314 317 317 318 318 317 317 317 317 317 316 314 312 310 310 309 307 307 305 305 306 302 303 302 301
308 308 309 309 310 311 310 311 310 310 310 310 310 310 310 310 312 313 315 315 315 313 313 314 315 315 313 313 313 313 311 307 305 304 305 304 304 303 304 303 303 302 299
307 307 308 308 308 309 309 309 309 309 310 310 310 310 310 310 310 311 311 311 311 311 312 312 312 311 310 311 310 310 308 305 303 303 303 303 303 302 302 299 299 298 297
305 305 306 307 307 308 308 308 308 309 309 309 309 309 309 309 309 310 309 309 308 308 309 308 308 309 309 307 305 304 304 303 302 301 302 301 301 301 298 298 297 296 297
302 303 304 305 306 307 307 307 307 307 307 307 307 308 309 308 309 309 308 308 308 307 307 307 307 305 304 302 300 300 300 300 300 300 300 299 298 297 297 296 295 290 289
302 302 302 304 305 306 306 306 306 306 306 306 307 306 306 305 304 304 304 304 303 303 302 302 301 300 299 299 299 297 297 297 297 297 297 296 295 295 291 288 288 288 288
301 301 302 303 304 305 305 305 305 304 303 304 303 303 303 301 300 300 299 300 300 299 299 299 299 298 298 298 298 297 296 295 294 294 293 291 288 288 288 287 287 287 287
301 302 302 302 303 303 302 303 301 301 301 301 301 300 300 300 299 299 298 299 299 298 298 297 297 296 296 296 296 294 291 287 286 286 286 286 286 286 286 286 285 285 284
302 302 302 302 302 301 301 300 299 299 299 299 299 299 299 299 298 298 297 296 295 295 294 291 290 287 287 286 285 285 285 286 286 287 286 286 285 285 285 284 283 283 283
301 302 302 300 300 300 299 299 299 299 299 297 296 294 293 290 289 289 288 288 287 287 286 286 285 285 285 284 284 284 284 285 286 286 286 285 283 282 283 282 283 283 284
301 301 300 299 299 299 299 298 295 292 290 290 290 289 289 288 288 287 286 286 285 285 285 285 285 284 284 283 283 283 283 284 283 283 282 282 282 282 283 284 284 284 285
300 300 299 298 297 295 293 291 291 290 290 289 288 288 287 286 286 285 285 285 285 284 284 284 283 283 283 282 282 282 282 281 281 281 282 282 282 284 284 284 284 285 285
297 295 294 293 292 291 291 291 290 290 289 288 288 287 286 286 286 285 285 284 284 284 283 283 283 282 282 282 281 281 281 281 281 281 282 283 284 285 285 285 286 286 286
294 292 292 292 292 291 291 290 289 289 289 288 288 287 286 285 285 285 284 283 283 283 282 282 282 282 281 281 281 281 281 281 282 283 284 284 285 285 285 286 286 286 287
293 292 292 292 291 291 290 289 289 288 288 288 288 287 285 285 284 284 283 283 282 282 282 282 282 281 281 281 281 281 281 282 283 284 284 285 285 286 286 286 286 287 287
294 292 292 292 291 291 290 289 289 289 288 288 287 286 285 285 284 283 283 282 282 282 282 282 281 281 280 280 280 281 281 282 283 284 285 285 285 285 286 286 286 286 286
295 293 292 292 291 291 290 290 289 289 288 288 287 285 285 284 284 283 283 282 282 281 282 281 281 280 280 280 280 280 281 282 284 284 285 285 285 285 285 285 285 285 285
296 294 292 292 291 291 290 290 289 289 288 287 286 285 285 285 284 283 282 282 282 281 281 281 281 280 280 280 280 280 281 282 283 284 284 284 284 283 283 284 284 284 284
298 295 293 292 291 291 290 289 289 288 288 287 286 285 285 284 283 282 282 282 282 281 281 281 280 280 280 280 280 280 281 281 282 282 283 282 282 281 282 282 282 283 283
298 296 293 291 291 291 290 290 289 288 288 286 285 286 285 284 283 282 282 282 281 281 281 281 281 280 280 280 280 280 281 281 281 282 281 281 282 281 282 282 283 283 284
298 298 294 292 291 290 290 289 289 288 287 286 286 285 285 284 283 283 282 282 282 281 281 281 281 281 281 281 281 281 281 282 282 282 282 282 282 283 284 284 284 284 283
297 299 297 292 291 290 290 289 289 288 287 286 285 285 285 284 283 283 283 282 282 281 281 281 282 281 281 281 282 282 282 282 282 283 284 285 285 285 284 284 284 284 283
296 299 296 292 291 290 290 289 288 288 287 286 285 285 285 285 284 283 283 283 282 282 282 282 282 282 282 282 282 282 283 284 285 285 285 285 285 285 284 284 284 284 284
297 298 296 292 290 289 289 289 288 287 286 285 285 285 285 285 285 284 284 284 284 284 284 284 284 284 284 284 285 285 285 285 285 285 285 285 285 284 284 284 284 284 284
296 297 297 294 290 289 289 289 288 287 286 285 285 285 285 285 285 285 286 287 287 287 286 286 286 286 286 286 286 286 286 285 285 284 284 284 284 284 284 284 284 284 284
295 295 296 292 290 289 289 288 288 287 285 285 285 285 285 286 286 287 287 287 287 287 287 287 286 286 286 286 286 285 285 284 283 283 283 283 284 284 284 284 284 284 284

GFSGL_850_thetae_048.txt.gz
Theta_e
309 308 308 308 309 310 311 311 311 311 309 310 310 310 310 311 311 311 312 313 313 314 314 316 316 316 315 315 314 314 313 313 311 310 309 310 307 306 305 305 303 302 303
308 307 308 308 309 310 310 309 310 310 310 310 309 309 309 309 309 309 310 310 310 313 313 312 313 313 311 312 312 310 310 308 309 309 307 306 304 303 303 302 302 300 300
307 307 307 308 308 308 309 309 309 309 309 309 309 310 310 310 309 309 309 310 310 310 309 308 310 309 310 309 308 307 306 305 303 303 303 302 301 300 299 300 300 298 298
305 305 305 306 307 307 308 308 308 308 309 308 308 308 308 309 309 309 309 309 309 308 306 306 307 307 307 307 307 305 303 302 301 300 300 300 300 300 298 299 297 297 296
303 303 303 304 305 306 307 307 307 307 307 307 307 308 308 308 308 308 307 308 307 306 305 306 305 305 304 303 302 301 300 300 300 299 299 298 298 298 297 296 295 295 295
299 300 301 301 304 305 306 306 306 306 306 307 307 306 305 304 303 303 304 303 303 302 302 301 301 301 300 300 300 300 299 298 299 298 297 296 296 295 295 294 294 291 288
299 300 300 302 304 304 305 305 305 305 305 305 304 303 302 301 300 300 300 300 300 300 299 299 299 298 297 297 297 297 297 296 296 296 295 294 293 290 288 288 288 287 287
299 300 301 302 302 303 304 304 304 303 302 302 301 301 301 301 300 299 299 298 298 298 298 298 298 297 295 294 294 291 290 288 287 286 286 286 286 286 286 286 286 285 285
301 301 301 301 302 302 303 302 301 300 300 300 300 299 297 294 291 290 289 289 288 288 288 288 287 287 286 286 285 285 285 285 286 286 286 286 286 285 285 284 284 284 283
301 300 301 301 301 301 300 299 299 299 297 294 292 290 290 289 289 289 288 287 287 286 286 286 286 285 285 284 284 284 284 284 284 285 285 285 285 283 282 282 283 282 283
302 301 301 300 299 299 299 299 294 291 291 290 290 289 289 288 288 287 286 286 286 285 285 285 284 284 284 284 283 283 283 283 283 282 282 282 282 282 282 282 283 284 284
302 301 299 299 299 298 294 292 291 290 289 289 289 289 288 287 287 286 285 285 285 284 284 284 283 283 283 283 282 282 282 282 281 281 281 281 281 282 283 283 284 284 284
300 299 297 295 293 292 292 291 290 289 289 289 288 288 287 287 286 286 285 284 284 283 283 283 282 282 282 282 281 281 281 281 281 281 281 282 283 284 284 284 285 285 285
296 294 293 292 292 292 291 290 290 289 289 288 288 288 287 286 286 285 285 284 283 283 282 282 282 282 281 281 281 281 281 281 281 282 283 284 284 284 285 285 286 286 286
295 293 293 292 292 291 291 290 290 289 288 288 288 287 286 286 285 285 284 284 283 282 282 282 282 281 281 281 281 281 281 281 281 282 283 284 285 285 285 285 286 286 286
295 293 293 292 292 291 290 290 290 289 288 289 288 287 286 286 286 285 284 283 282 282 282 282 281 281 281 281 281 281 281 281 281 283 284 284 285 285 285 285 285 285 286
295 294 292 292 292 291 291 290 290 289 289 288 288 286 286 286 285 284 284 283 282 282 282 281 281 281 281 281 281 281 281 281 282 283 284 284 284 284 284 284 284 284 285
297 295 293 292 292 291 291 290 290 289 289 288 287 286 286 286 285 284 284 283 283 282 282 282 282 281 281 281 281 281 281 281 281 282 282 283 283 282 282 283 283 283 283
300 297 295 292 291 291 291 290 290 289 288 288 287 286 286 286 285 284 284 283 283 282 282 281 281 281 281 281 281 281 281 281 281 282 282 282 282 281 282 282 282 282 283
301 298 295 293 292 291 291 290 290 289 288 288 287 286 286 286 285 284 283 283 283 282 282 282 281 281 281 282 282 281 282 282 282 282 282 282 282 281 282 283 283 284 284
302 299 299 295 294 291 290 290 290 289 288 288 287 286 286 286 285 284 284 283 283 282 282 282 282 282 282 282 282 282 282 282 282 282 282 282 283 284 284 285 285 284 284
301 300 296 296 296 293 290 290 289 289 288 287 287 286 286 286 285 285 284 284 283 283 283 283 283 282 282 282 282 282 283 283 283 283 284 285 285 285 285 285 284 284 284
299 299 296 294 296 293 289 289 289 289 288 287 286 285 286 285 285 285 285 285 284 284 284 284 284 284 284 284 284 284 284 285 285 285 286 286 285 285 285 284 284 284 284
299 297 294 295 295 294 291 289 289 288 288 287 286 285 285 285 286 286 286 286 286 287 287 287 287 287 287 286 286 285 285 285 285 285 285 285 285 284 284 283 283 284 284
298 297 296 295 295 295 294 289 289 289 288 287 286 285 285 285 286 286 286 287 287 287 287 287 286 286 286 286 286 285 285 285 284 284 283 283 283 283 283 283 283 283 283
297 295 294 294 294 294 293 290 288 288 288 287 285 285 285 285 286 286 287 287 287 287 287 287 286 286 285 285 284 284 283 283 282 281 282 282 282 282 283 283 283 283 284

GFSGL_850_thetae_051.txt.gz
Theta_e
310 310 309 308 308 309 310 310 310 310 310 309 309 310 310 310 310 310 311 311 312 313 313 313 314 313 312 314 315 314 313 311 310 309 309 309 309 308 306 304 300 300 300
308 308 308 307 308 309 309 310 309 309 310 309 309 309 309 309 309 309 309 309 309 310 311 311 310 310 310 309 309 310 309 309 308 307 307 307 306 305 304 300 299 299 298
307 307 307 307 307 307 308 308 309 308 308 308 309 309 309 309 309 309 309 309 309 309 309 308 307 306 307 307 307 307 307 307 306 305 304 303 302 302 301 300 299 299 298
304 305 305 305 306 306 307 307 308 308 308 308 308 308 308 308 308 308 308 308 308 308 307 306 306 306 305 306 306 306 306 304 303 301 301 300 300 300 300 299 297 297 297
302 302 303 303 304 305 306 307 307 307 306 306 306 307 307 307 307 308 307 307 306 305 305 304 304 303 303 302 302 302 301 301 300 300 299 299 298 299 298 297 296 296 296
300 299 300 300 301 304 305 306 306 305 306 306 306 305 305 305 304 303 304 303 303 302 302 301 300 300 299 299 299 299 300 299 299 298 298 297 297 296 295 295 294 294 292
299 299 299 299 300 303 304 304 304 304 305 304 304 304 303 302 301 302 301 301 301 300 300 299 298 298 297 297 297 297 297 297 296 295 295 294 293 291 290 288 288 287 287
299 299 299 299 299 300 302 302 304 304 303 302 302 301 301 300 297 294 292 291 290 290 290 289 289 288 287 287 287 287 286 286 286 286 286 286 286 286 286 286 286 285 285
300 299 300 298 299 299 300 303 302 301 301 301 299 295 292 291 290 290 290 289 289 288 288 287 287 286 286 286 285 285 285 285 285 285 286 286 286 286 285 285 284 283 283
301 302 300 299 299 300 301 300 300 300 297 293 291 290 290 290 289 289 288 288 288 287 287 286 286 285 285 284 284 284 284 284 284 284 284 284 284 283 283 282 282 282 282
302 302 301 301 301 300 299 299 296 292 291 290 290 290 289 289 288 288 288 287 287 286 286 285 285 284 284 284 283 283 283 283 283 282 282 282 282 282 282 282 282 283 284
302 301 301 301 300 299 298 292 291 290 290 290 289 290 289 288 288 287 287 286 286 285 285 284 284 283 283 283 283 282 282 282 282 282 282 282 282 282 282 283 284 284 284
301 301 300 300 298 295 292 291 290 290 290 290 289 289 288 287 287 287 286 286 285 285 284 283 283 283 283 282 282 282 282 282 282 282 282 282 283 284 284 285 285 285 285
300 299 297 295 293 292 292 291 290 290 290 290 289 289 288 287 287 286 286 285 284 284 283 283 283 283 282 282 282 281 281 281 281 282 282 283 284 284 285 285 286 286 286
297 295 294 293 292 292 291 291 290 290 290 289 289 288 287 287 287 286 286 285 284 284 283 283 283 283 282 282 281 281 281 281 281 281 282 283 285 285 285 285 285 285 286
296 294 293 293 292 291 291 291 290 290 290 289 289 288 287 287 287 286 285 284 284 283 283 283 283 282 282 282 282 281 281 281 281 281 282 284 285 285 285 285 285 285 284
297 295 293 292 292 292 291 291 291 290 290 289 289 289 287 287 287 286 285 284 284 283 283 283 282 282 282 282 281 281 281 281 281 281 282 282 283 284 284 284 284 283 283
299 296 294 293 292 292 291 291 291 290 290 289 289 288 287 286 286 286 285 284 284 283 283 283 283 282 282 282 282 281 282 281 281 281 281 282 282 282 282 282 282 282 282
302 300 297 295 293 292 291 291 291 290 290 289 288 288 287 286 286 286 285 285 284 283 283 283 283 283 283 282 282 282 282 282 282 282 282 281 281 281 282 282 282 282 281
304 302 300 297 294 293 291 291 290 290 290 289 288 288 287 286 286 286 285 285 284 284 283 283 283 283 282 282 282 282 282 282 282 282 282 281 281 281 281 282 282 284 284
304 304 301 300 295 294 292 291 290 290 290 289 288 287 287 286 286 286 286 285 285 284 284 284 283 283 283 282 282 282 282 282 282 282 282 282 283 283 284 285 285 284 284
303 302 301 301 300 299 297 292 291 289 289 289 288 287 287 286 286 286 286 286 285 285 285 285 285 285 284 284 284 284 284 284 284 284 285 285 285 285 285 284 284 284 284
301 300 300 300 299 298 296 296 292 289 289 289 288 287 287 285 285 286 286 286 286 286 286 287 288 288 287 286 286 286 286 286 286 285 285 285 285 284 284 284 283 283 283
299 299 299 298 298 297 297 295 295 292 290 288 288 287 287 285 285 286 286 286 286 287 288 288 288 288 288 287 286 286 285 285 285 284 284 283 283 283 282 282 282 282 283
298 298 298 297 297 296 295 294 295 294 290 288 289 287 286 285 285 285 286 286 287 287 288 288 288 287 287 286 286 285 284 284 283 283 282 282 282 282 281 282 282 282 283
295 296 296 296 295 294 294 294 294 294 292 291 287 287 286 285 285 285 285 286 286 287 287 287 287 287 286 286 285 284 283 282 282 281 281 281 281 282 282 283 283 283 284

GFSGL_850_thetae_054.txt.gz
Theta_e
310 310 310 309 309 308 309 309 310 310 309 310 309 309 309 309 310 310 310 311 311 312 313 313 312 312 313 311 310 311 311 310 310 310 309 308 308 307 307 307 306 304 303
309 309 309 308 307 308 308 309 309 309 309 309 309 309 309 309 309 309 309 309 309 309 309 309 309 308 307 307 307 307 308 308 307 307 307 307 306 306 305 304 302 301 300
308 307 307 307 307 307 307 308 308 308 308 308 308 308 308 309 309 309 309 309 308 308 308 307 307 307 306 305 305 305 305 305 305 305 303 304 304 303 303 302 301 299 298
306 305 305 305 305 306 306 307 307 307 307 307 307 308 308 308 308 308 308 307 308 308 307 306 306 306 305 305 305 305 305 304 304 303 302 302 302 301 301 300 299 298 298
303 302 302 303 303 304 304 305 306 306 306 306 306 306 307 306 306 306 306 306 306 305 305 304 303 303 303 303 303 302 302 301 300 299 299 299 299 299 298 298 297 297 296
302 301 300 300 300 301 302 304 305 305 305 305 305 305 305 304 303 303 303 302 302 302 302 301 301 301 300 300 300 299 299 298 298 298 297 297 296 295 295 294 294 294 293
300 300 300 299 299 300 300 301 302 303 303 304 303 303 302 301 301 301 301 299 297 295 294 293 292 292 291 290 289 289 290 289 289 288 288 288 289 288 288 287 287 286 286
300 299 299 299 299 299 299 299 300 302 302 302 301 300 300 299 294 291 290 290 290 289 289 288 288 287 287 287 287 286 286 286 286 286 286 286 286 286 286 286 285 285 284
299 299 299 299 299 299 299 300 301 302 301 300 299 294 291 291 290 289 289 289 289 289 289 288 287 286 286 286 286 285 285 285 284 284 284 285 285 285 285 284 284 283 283
300 299 298 299 299 300 301 302 301 300 300 295 291 290 290 289 289 289 289 289 288 288 287 287 286 286 285 285 285 285 284 284 284 284 283 283 283 283 282 282 282 282 282
301 301 300 299 299 301 301 300 300 296 291 291 290 290 289 289 288 288 288 288 288 287 287 286 286 285 285 284 284 284 284 284 283 283 283 282 282 282 282 282 282 283 284
302 302 301 301 301 300 299 300 293 291 291 290 290 290 289 289 288 287 287 288 288 287 286 286 285 285 284 284 284 283 283 283 283 282 282 282 282 282 283 283 284 284 285
302 302 301 301 300 300 297 293 291 291 290 290 290 289 289 288 287 288 287 287 286 286 286 285 285 284 284 283 283 283 282 282 282 282 282 282 283 284 285 285 285 285 285
301 301 300 299 299 296 292 291 291 290 290 290 290 289 289 288 288 288 288 286 286 285 285 285 284 284 284 283 283 282 282 282 282 282 282 283 283 284 285 286 286 286 286
300 299 299 297 295 292 291 291 291 290 290 289 289 289 289 288 288 288 287 287 286 285 285 284 284 284 283 283 282 282 282 282 282 282 282 282 283 285 286 286 286 286 286
299 297 296 295 293 292 291 291 291 290 290 290 289 289 288 288 287 287 287 286 285 285 284 284 284 283 283 283 283 282 282 282 281 281 281 282 282 283 284 284 284 285 285
299 297 295 294 293 292 292 292 291 290 290 290 290 289 288 288 287 287 287 286 285 285 285 284 284 283 283 283 282 282 282 282 282 281 281 281 281 282 282 282 282 282 283
302 299 296 294 293 292 291 291 291 291 290 290 289 289 288 288 287 287 287 286 286 285 285 284 284 283 283 283 283 282 282 282 282 282 281 281 281 281 281 281 281 281 282
304 303 301 298 295 293 292 291 291 291 291 290 289 289 288 288 287 286 287 287 286 285 285 284 284 284 283 283 283 283 282 282 282 282 282 281 281 281 281 281 281 281 281
305 305 304 302 298 296 294 292 291 291 290 290 290 289 288 287 287 286 286 286 286 286 285 285 284 284 284 283 283 283 283 283 283 282 282 282 282 282 282 282 283 284 284
304 304 304 303 302 301 296 294 292 291 290 290 290 289 288 288 287 287 286 286 286 286 286 286 286 285 285 285 285 285 285 285 284 284 284 284 284 284 284 284 284 284 284
304 303 303 303 302 301 300 299 296 297 290 290 290 289 288 288 287 287 286 286 286 286 286 287 287 287 287 288 287 287 287 287 286 286 286 286 285 285 284 284 283 283 283
303 302 302 302 301 300 299 299 298 297 297 294 289 289 288 288 287 286 286 286 286 286 287 287 288 288 288 288 287 287 287 286 286 285 285 285 285 284 283 283 282 282 282
300 300 300 300 300 299 298 298 297 297 296 295 292 291 288 288 287 286 285 285 286 287 287 287 288 287 288 288 287 287 286 285 284 284 283 283 283 282 282 281 281 282 282
298 299 299 298 298 297 297 296 296 295 295 294 293 290 288 288 287 286 286 285 286 287 287 287 287 287 287 287 287 286 285 285 284 283 283 282 282 282 282 282 282 282 283
298 297 297 296 295 295 295 294 294 294 294 293 292 293 291 288 286 287 285 287 286 286 286 286 286 286 286 287 287 286 285 284 284 283 281 281 281 281 282 282 283 283 283

GFSGL_850_thetae_057.txt.gz
Theta_e
313 312 311 311 311 310 309 309 309 309 309 309 309 309 309 309 309 309 310 310 311 312 313 313 313 313 314 313 310 310 309 310 310 309 308 308 307 307 306 305 305 306 305
311 310 309 309 309 308 308 308 309 309 309 309 309 309 309 309 309 309 309 309 309 309 309 310 309 308 308 308 307 307 306 307 306 306 306 306 305 305 305 305 305 305 304
310 309 308 307 307 307 307 307 308 308 308 308 308 308 308 308 308 309 308 308 308 308 307 307 307 307 307 306 306 305 304 304 304 305 305 304 303 303 302 303 304 303 303
309 307 306 305 305 305 306 306 306 307 307 307 307 307 307 307 307 307 307 307 307 307 307 307 306 306 306 305 305 305 304 304 304 303 302 302 301 300 301 301 302 301 301
307 305 304 303 303 304 304 305 305 306 306 306 306 306 306 306 306 306 306 306 306 306 305 304 304 303 303 303 303 303 302 302 301 300 298 298 298 299 299 298 298 297 297
305 304 302 301 301 301 302 303 303 305 305 305 305 305 304 304 304 304 304 303 303 302 302 301 300 299 299 298 298 298 297 297 297 297 297 296 296 296 295 294 293 291 290
303 302 301 300 300 300 300 300 301 302 302 303 304 303 303 302 302 302 302 298 295 293 292 291 290 290 289 289 288 288 288 288 288 287 287 287 287 287 287 286 286 286 286
303 301 300 299 299 299 300 300 300 300 300 302 302 301 301 300 294 291 291 290 289 289 289 288 288 288 288 288 287 287 286 286 286 286 286 286 286 286 286 285 285 285 284
303 300 300 299 299 299 299 299 299 299 299 300 300 297 291 291 290 289 289 289 288 288 288 288 287 287 287 287 286 286 286 285 285 285 285 284 284 284 284 284 284 283 283
302 300 299 299 299 299 299 299 298 299 300 298 293 290 290 289 289 289 289 289 288 288 287 287 286 286 286 286 285 285 285 285 285 284 284 284 284 283 283 283 283 283 283
301 300 299 298 299 299 298 298 299 299 296 291 290 290 289 289 289 289 289 288 289 288 287 286 286 285 285 284 285 285 285 284 284 284 284 283 283 283 283 283 283 284 284
301 300 299 298 298 298 298 299 298 294 290 290 290 289 289 288 289 288 289 289 288 287 286 286 286 285 284 284 284 284 284 283 283 283 283 283 283 283 284 285 285 285 285
301 300 299 298 299 299 299 298 292 291 290 290 290 289 289 289 288 288 288 288 288 287 286 285 285 285 284 284 283 283 283 283 283 283 283 283 283 284 285 285 285 286 286
301 301 300 300 300 299 299 294 290 290 290 290 290 290 289 289 288 288 288 288 287 286 286 285 285 285 285 284 283 283 283 283 283 283 283 283 283 284 285 285 286 286 286
301 300 300 300 300 299 295 292 291 290 290 290 290 289 289 289 288 288 288 288 287 286 286 285 285 284 284 284 284 283 283 283 283 282 282 283 283 283 283 284 285 285 286
301 300 299 299 298 296 293 292 291 291 291 290 290 289 289 289 289 288 288 288 287 286 286 285 285 284 284 284 284 283 283 283 283 282 282 282 282 282 282 283 283 283 284
303 300 298 297 296 294 293 292 292 291 291 290 290 289 289 289 289 288 287 287 287 286 286 285 285 285 284 284 284 283 283 283 283 282 282 282 282 282 282 282 282 282 283
307 302 299 298 296 294 293 292 292 291 291 290 290 289 289 289 288 288 287 287 287 287 286 285 285 285 284 284 284 284 283 283 283 283 282 282 282 282 282 282 282 282 282
307 305 303 300 298 295 294 292 291 291 291 290 290 290 290 289 288 288 287 287 287 287 286 286 285 285 285 285 284 284 284 283 283 283 283 282 282 282 282 282 282 282 282
305 305 305 303 301 299 296 294 292 291 291 290 290 290 289 289 288 288 287 287 286 286 286 286 286 286 285 285 285 285 285 285 285 285 285 284 284 284 284 284 284 284 284
305 304 304 304 303 302 301 300 299 295 293 291 290 290 289 288 288 288 287 287 286 286 286 286 286 286 286 286 287 288 288 288 287 287 286 286 286 285 285 285 284 284 284
304 304 303 303 303 302 302 301 300 300 299 298 296 294 290 289 290 288 287 287 286 286 286 286 287 287 287 287 287 287 287 287 287 286 286 285 285 284 284 284 283 283 283
303 303 303 302 302 301 301 300 300 299 299 298 297 295 292 291 289 288 287 287 285 285 285 286 287 287 287 287 287 287 287 287 286 286 285 284 284 283 283 283 282 282 282
301 301 301 301 300 300 299 299 298 298 297 297 296 294 293 293 289 288 289 286 285 285 285 286 287 287 287 287 286 286 287 286 286 285 284 284 284 283 282 282 282 282 282
299 299 298 298 299 297 297 296 296 295 295 295 294 294 294 293 292 291 287 286 287 288 285 285 286 286 286 286 286 286 286 286 285 285 284 284 283 283 282 282 283 283 283
298 298 297 297 296 295 294 294 293 294 293 293 293 293 292 292 292 291 287 287 289 287 289 286 286 285 285 285 285 286 286 286 285 285 283 282 282 282 283 282 283 283 283

GFSGL_850_thetae_060.txt.gz
Theta_e
313 313 313 313 312 311 311 310 310 310 309 309 309 309 309 309 309 309 309 310 311 312 314 314 315 314 314 314 314 313 312 310 309 310 309 308 307 307 306 306 305 305 305
313 313 312 311 311 310 309 309 309 309 309 309 309 309 309 309 309 309 309 309 309 309 310 310 311 310 309 309 309 309 307 307 306 306 306 306 306 306 305 304 304 304 304
313 312 311 310 309 308 308 308 308 308 308 308 308 308 308 308 308 309 309 309 308 308 308 308 308 307 307 307 307 307 306 305 304 304 304 304 304 303 303 303 303 303 304
312 311 310 309 307 306 305 306 306 307 307 307 307 308 308 308 307 307 307 308 308 307 307 307 307 307 307 306 306 305 305 305 304 304 302 302 301 301 301 301 301 301 301
311 310 308 306 305 304 304 304 305 305 306 306 307 307 307 307 306 306 306 307 307 307 306 306 305 305 305 304 304 304 304 303 302 300 298 298 298 298 298 298 297 297 297
310 309 306 304 303 302 302 303 302 302 304 305 305 305 305 305 305 305 305 305 304 303 303 302 300 298 296 294 294 295 294 293 295 296 296 295 294 293 291 290 288 288 289
309 306 304 303 301 301 301 301 300 301 302 303 304 304 303 303 303 303 303 302 300 297 294 292 291 290 289 289 289 289 288 288 288 288 287 287 287 287 287 287 287 286 286
307 304 303 302 301 300 300 300 300 301 301 301 302 302 301 301 301 299 294 292 291 290 291 290 289 289 289 288 288 287 287 287 287 287 286 286 286 286 286 286 285 285 285
305 303 302 300 300 300 300 300 300 300 300 299 301 300 299 294 291 290 290 290 290 290 290 289 289 288 288 287 287 286 286 286 286 286 285 285 285 284 284 284 284 284 284
304 303 302 300 300 300 299 299 299 299 298 299 298 294 290 290 290 289 289 289 290 289 288 288 288 287 287 287 286 285 285 285 285 285 284 284 284 284 284 283 283 283 284
303 302 301 300 300 299 299 299 298 298 297 297 294 290 289 289 289 288 289 289 289 287 287 287 287 287 286 286 286 285 285 284 284 284 284 284 284 284 284 284 284 285 285
303 302 301 300 299 299 299 299 298 297 297 293 289 289 289 289 289 288 289 289 288 287 287 287 287 286 286 286 285 285 285 284 284 284 284 284 284 284 284 285 285 286 286
303 303 301 300 299 299 299 298 298 298 294 290 289 289 289 289 289 289 289 289 288 287 287 287 286 286 286 285 285 285 284 284 284 283 283 283 284 284 285 285 286 286 286
302 302 301 300 299 299 298 299 299 294 291 290 290 289 289 289 289 289 288 288 288 288 287 286 286 286 286 285 285 284 284 284 283 283 283 283 283 284 284 285 286 286 286
302 301 301 300 299 300 299 299 296 291 290 290 290 289 289 289 289 288 288 288 288 287 286 286 286 286 285 285 284 284 284 284 284 283 283 283 283 283 283 284 284 284 285
302 301 300 300 300 299 299 298 293 291 290 290 290 290 289 289 289 288 287 287 287 287 287 286 286 286 285 285 284 284 284 284 284 284 283 283 283 283 283 283 283 283 283
303 301 300 299 299 298 298 295 292 291 291 290 290 290 289 289 288 288 288 288 287 287 287 286 286 285 285 285 285 284 284 284 284 283 283 283 283 283 282 282 282 282 282
305 304 301 299 298 297 296 295 293 292 291 291 291 290 289 289 288 288 288 288 287 287 287 286 286 285 285 285 284 284 284 284 284 283 283 283 283 282 282 282 282 282 282
306 305 305 303 300 298 296 295 294 293 292 291 291 290 290 289 289 289 288 288 287 287 286 286 286 286 286 285 285 285 285 284 284 284 284 283 283 283 283 284 284 284 284
305 305 304 304 302 300 299 297 295 293 292 291 291 292 293 290 290 289 288 287 287 287 286 286 286 286 286 286 285 286 286 286 287 287 286 286 285 285 286 286 285 285 285
304 304 304 304 303 303 301 300 299 299 300 298 296 294 291 290 290 289 289 287 287 287 286 285 286 286 286 286 286 288 288 288 287 287 287 286 286 285 285 285 284 284 284
303 303 303 303 303 303 302 302 302 301 300 299 299 297 296 293 292 289 290 289 290 286 286 285 285 286 286 287 287 288 288 287 287 287 286 286 286 285 284 284 283 283 283
303 303 303 302 303 302 301 301 301 300 300 299 298 298 297 295 294 293 290 291 287 287 286 285 285 286 286 286 287 287 287 287 286 286 286 286 285 285 284 284 283 283 282
301 301 301 301 301 300 300 300 299 298 298 297 297 297 296 295 294 294 293 291 286 289 284 285 288 288 285 286 287 286 286 286 286 286 286 286 285 285 284 283 283 282 282
298 298 299 299 298 298 298 297 297 296 296 295 295 295 295 294 293 293 292 292 290 286 286 287 288 285 288 286 285 285 285 285 285 286 285 285 285 284 283 283 282 282 282
298 298 298 297 297 297 296 296 295 294 294 294 294 293 293 293 292 292 291 290 290 287 286 289 289 288 285 286 285 285 285 285 285 285 285 285 285 284 283 282 282 282 282

GFSGL_850_thetae_063.txt.gz
Theta_e
313 313 313 313 313 313 312 312 311 311 311 310 310 309 309 309 309 309 309 309 310 312 315 315 315 314 315 316 316 315 314 312 312 311 310 310 310 309 307 306 306 306 305
314 313 313 313 313 313 312 312 311 310 310 310 309 309 309 308 309 309 309 309 309 310 310 310 311 311 311 310 309 310 310 309 308 307 307 307 306 306 306 305 305 305 304
313 313 313 313 312 312 311 310 309 308 308 308 308 308 308 309 308 308 309 309 309 309 309 309 309 308 308 307 307 308 307 307 306 305 305 305 304 305 304 304 304 303 303
313 312 312 312 311 310 308 307 307 307 307 307 307 307 308 308 308 308 307 308 308 308 308 307 307 307 307 307 307 306 306 305 305 304 303 302 302 302 302 302 301 301 301
312 312 311 310 310 308 306 305 305 305 305 306 306 307 307 307 307 307 307 307 307 307 307 307 306 306 306 305 305 304 304 303 302 301 299 298 298 298 298 298 297 296 294
312 311 311 310 308 306 305 304 304 303 304 304 305 306 306 306 306 306 306 306 306 306 305 304 303 299 296 296 294 295 295 294 294 295 295 295 294 293 291 290 289 288 289
311 311 310 308 305 304 303 302 302 301 301 302 303 304 304 304 304 305 304 304 303 302 300 296 293 291 291 290 291 290 290 289 289 288 288 289 289 288 287 287 287 287 287
311 310 308 306 304 303 302 301 301 301 301 302 302 301 302 302 301 302 302 300 295 293 291 290 290 290 290 290 289 289 289 289 288 288 287 288 287 287 287 286 286 286 286
311 310 308 305 304 302 300 300 300 300 300 300 300 300 300 300 300 296 292 290 290 290 289 289 289 289 289 289 288 288 288 287 287 287 287 287 286 286 285 285 285 285 285
311 309 307 304 303 301 300 300 300 300 299 299 299 299 299 295 290 289 289 289 289 289 289 289 289 289 289 288 287 287 287 286 286 286 286 286 286 286 285 285 284 284 284
309 307 305 304 303 300 300 300 300 300 299 299 299 297 293 289 289 289 289 289 289 289 289 289 289 288 288 287 286 286 286 286 286 285 285 285 285 285 285 285 285 285 286
307 305 304 303 302 300 300 300 299 299 298 297 298 295 290 289 289 289 288 288 289 288 288 289 288 288 287 286 286 286 286 285 285 285 285 284 284 285 285 285 286 286 286
305 304 303 302 301 300 300 300 299 298 297 298 296 291 290 289 289 289 288 288 288 288 288 288 288 287 287 286 286 286 285 285 285 285 285 284 284 285 285 285 286 287 287
304 303 302 302 301 300 300 299 299 298 298 298 293 290 290 290 290 289 289 289 288 288 288 288 288 287 286 286 286 285 285 285 285 285 284 284 284 284 284 285 285 286 286
303 303 303 301 300 300 299 299 299 299 299 295 291 290 290 290 290 289 289 288 287 287 288 288 287 287 287 287 286 285 285 285 285 284 284 284 284 283 284 284 284 284 284
304 302 302 302 301 300 298 299 299 298 296 291 290 290 290 289 289 289 288 288 287 287 287 287 287 287 287 286 285 285 285 285 284 284 284 284 283 283 283 283 283 283 284
305 302 301 301 300 299 298 299 299 298 294 290 290 290 290 289 289 289 288 288 287 287 287 287 287 287 286 286 286 285 285 284 284 284 284 284 283 283 283 283 283 283 283
305 303 302 300 300 299 299 298 298 297 293 292 291 291 290 290 289 288 288 288 288 288 288 287 287 287 286 286 286 285 285 285 285 284 284 284 284 283 283 283 283 283 283
306 304 303 302 300 299 298 297 297 296 294 292 291 291 291 290 289 288 288 288 288 288 288 287 286 286 286 286 286 285 285 285 285 285 285 285 285 285 285 285 285 285 285
304 305 303 302 301 300 300 300 298 296 295 298 298 298 295 293 291 290 290 290 289 289 287 287 286 285 285 286 286 286 286 286 286 287 287 287 287 287 287 287 286 286 285
302 302 303 303 302 301 301 300 300 299 297 296 294 293 292 292 292 294 293 292 293 289 290 290 288 285 285 285 285 286 286 287 287 287 287 287 287 287 287 286 286 285 284
300 301 302 302 302 302 302 301 300 300 300 299 299 299 297 296 296 296 293 290 290 289 288 289 289 286 287 285 285 286 286 287 288 287 287 286 286 286 286 286 285 284 284
301 301 301 301 301 301 300 300 300 300 300 299 299 299 298 297 298 297 296 295 294 292 291 291 286 288 285 284 285 287 286 287 287 286 286 286 286 286 285 285 285 284 283
300 300 300 300 300 300 300 300 299 299 299 299 298 298 297 297 296 296 295 294 294 293 292 290 286 288 285 287 290 285 285 287 285 285 285 285 285 285 285 284 284 283 282
298 298 299 299 299 299 299 299 299 298 298 297 297 296 296 295 295 294 294 293 293 292 291 290 289 286 286 287 284 288 286 284 284 284 284 285 285 285 285 284 283 282 281
297 297 297 297 297 297 297 297 297 297 296 295 295 294 294 293 293 292 292 292 292 291 290 290 290 289 288 288 288 284 284 284 284 284 284 285 285 285 284 283 282 281 282

GFSGL_850_thetae_066.txt.gz
Theta_e
314 314 313 313 314 313 313 312 312 313 312 312 311 311 311 310 309 309 308 309 309 309 312 312 312 313 313 314 315 316 316 315 314 314 313 311 310 308 308 307 306 306 305
313 313 313 313 313 313 312 312 312 312 312 311 310 310 310 309 309 308 308 308 308 309 309 310 311 311 311 311 311 312 313 312 311 309 307 306 307 306 306 305 305 304 304
312 312 313 313 312 312 312 312 312 311 309 309 308 308 309 309 308 308 308 308 308 308 308 309 309 309 309 308 307 308 308 308 307 307 306 305 305 305 304 304 303 303 303
312 312 312 312 312 312 312 311 310 309 307 307 307 307 307 307 307 308 307 307 308 308 308 307 307 307 307 307 306 306 306 306 306 305 304 302 302 303 303 303 302 302 301
312 312 312 312 312 311 311 310 308 306 306 306 306 306 306 307 307 307 307 307 307 307 306 306 306 306 306 306 306 306 305 305 304 303 302 300 298 297 297 297 297 296 294
312 312 312 312 312 311 310 307 306 305 304 304 304 305 305 306 306 306 306 305 305 305 305 305 304 303 301 300 300 298 298 296 295 296 295 293 293 293 292 290 290 289 289
312 312 312 312 311 310 308 306 305 304 301 301 301 302 302 304 305 304 305 304 304 304 303 302 299 294 291 291 291 290 290 290 289 289 289 290 290 290 289 288 288 288 288
311 311 311 310 309 308 306 305 303 301 301 301 300 301 301 302 303 302 303 302 301 300 297 293 290 290 290 290 290 290 290 289 288 288 288 288 288 288 288 287 287 287 287
311 311 310 309 308 307 305 303 301 299 299 300 301 300 300 301 300 300 300 297 293 290 290 290 290 290 290 289 289 288 289 288 288 287 287 287 287 286 286 286 286 286 286
311 310 310 309 308 306 304 303 301 300 300 300 300 299 298 299 298 296 291 289 289 289 289 289 289 289 289 288 288 288 288 288 288 287 286 286 286 286 286 286 286 286 286
309 309 309 308 307 305 303 301 300 300 300 299 299 298 298 297 293 289 289 289 289 290 290 289 289 289 288 287 287 287 287 287 287 286 286 286 286 286 286 286 286 286 287
308 308 308 307 306 304 302 301 300 300 299 299 298 298 297 291 290 289 288 289 289 289 289 289 289 289 288 287 287 287 287 286 286 286 286 286 285 285 285 285 285 286 287
307 307 307 306 304 303 301 300 300 300 299 299 298 298 297 290 289 289 289 288 288 289 289 289 289 288 288 287 287 287 287 286 286 286 286 285 285 285 285 285 285 286 286
306 306 305 304 303 302 302 300 300 299 299 299 298 298 294 290 289 289 289 289 289 288 288 288 288 288 287 287 287 287 287 286 286 286 285 285 285 285 284 285 285 286 286
305 304 304 302 302 301 301 300 299 300 299 298 299 297 292 290 290 289 289 289 289 288 288 288 288 288 288 288 287 287 286 286 286 285 285 285 284 284 285 285 285 285 285
307 305 304 303 304 303 300 300 299 299 297 297 298 295 291 290 290 289 289 289 288 288 287 288 288 288 288 288 287 287 286 286 285 285 285 285 284 284 285 284 284 284 284
307 307 306 304 302 302 300 300 300 299 298 298 297 292 290 290 290 289 289 289 288 288 289 288 288 288 288 288 287 286 286 285 285 285 285 285 284 285 284 284 284 284 284
307 306 305 304 302 302 301 300 300 299 298 298 296 291 290 290 290 289 289 288 288 288 289 289 288 287 287 287 287 286 286 285 285 285 285 285 284 285 285 285 284 284 284
305 306 306 304 302 301 300 299 299 298 298 297 295 291 291 290 290 290 289 289 289 289 289 289 288 287 286 286 286 286 285 285 285 285 285 285 286 286 287 287 287 286 286
303 303 304 304 302 301 301 300 300 298 298 297 296 294 291 291 292 291 290 290 290 290 289 290 290 289 287 286 285 285 285 285 285 285 286 287 287 287 287 287 287 286 286
301 300 301 302 302 301 301 300 301 300 300 299 299 298 297 297 296 295 296 296 294 293 293 294 293 289 291 292 286 287 286 285 287 285 286 287 287 287 286 286 286 286 285
299 299 299 300 301 302 301 301 300 300 300 299 299 299 298 297 297 297 296 296 296 296 295 289 290 289 287 289 285 288 284 288 286 287 286 287 287 286 285 285 285 285 285
298 299 299 300 300 300 300 300 300 300 300 300 299 299 299 298 298 298 298 297 296 296 294 292 291 290 288 289 286 287 285 286 287 286 285 287 286 285 285 285 285 285 284
298 299 298 299 298 299 299 299 299 299 299 299 299 299 299 298 298 297 297 296 295 295 294 293 292 291 289 289 288 285 285 287 284 284 287 285 284 284 284 284 284 284 283
296 297 297 298 298 298 298 298 298 298 298 298 298 298 297 297 297 296 295 294 294 293 293 292 291 291 290 289 288 287 286 285 287 286 284 283 284 284 284 284 284 284 283
295 296 296 296 296 296 297 297 296 296 296 296 296 296 296 296 295 294 293 293 292 292 291 291 291 290 289 289 289 287 288 287 284 282 284 284 284 285 284 284 284 283 282

GFSGL_850_thetae_069.txt.gz
Theta_e
316 315 315 316 316 315 313 313 314 316 313 312 312 312 312 311 311 310 310 309 309 308 308 308 310 312 312 314 315 316 317 317 317 316 314 313 312 311 308 306 307 306 305
315 315 315 314 314 313 313 312 312 312 312 312 312 311 311 310 310 309 309 309 308 308 308 308 308 310 310 310 311 312 311 313 314 313 312 310 308 306 305 305 305 304 304
314 314 313 313 313 312 312 312 312 312 312 312 311 310 309 308 308 308 308 308 308 308 308 308 308 308 308 308 309 309 308 309 309 309 308 306 305 304 304 304 304 302 302
313 313 312 312 312 311 311 312 312 311 311 310 308 307 307 307 307 307 307 307 307 307 307 307 307 307 307 307 307 306 306 306 307 306 306 304 303 302 302 302 302 301 301
312 312 312 312 311 311 311 311 311 310 309 307 306 306 306 306 306 306 306 306 306 306 306 306 306 306 306 306 306 306 306 306 305 305 304 302 300 299 296 297 297 297 295
312 312 311 311 311 311 311 311 310 309 307 305 305 304 304 305 305 306 306 305 305 305 305 305 305 305 305 304 304 303 302 301 300 300 299 296 293 293 293 291 290 290 288
311 311 311 311 311 311 311 310 309 307 305 305 303 301 302 301 301 304 305 303 302 302 303 303 302 300 295 293 291 290 290 290 290 290 291 291 291 291 290 289 289 288 288
312 311 311 311 311 310 310 309 308 305 304 302 301 301 301 301 300 302 302 302 301 301 301 300 297 291 290 289 290 290 290 289 289 289 289 289 289 289 288 288 288 287 287
312 311 311 311 310 310 309 308 306 304 303 300 299 300 301 300 300 300 301 301 300 299 295 291 289 289 290 289 289 289 289 289 288 288 288 288 288 287 287 287 287 286 286
312 311 310 309 309 309 308 306 304 303 301 299 300 300 300 299 299 299 298 296 292 290 289 289 289 289 289 288 288 289 288 288 288 288 288 287 287 287 287 287 286 285 285
311 310 309 308 307 307 306 305 303 302 299 300 300 299 298 299 298 297 291 289 288 289 289 289 289 289 288 288 288 288 287 288 288 287 287 287 287 287 286 286 286 286 286
309 309 308 307 306 306 305 303 302 301 299 300 300 299 299 298 295 290 289 288 288 288 289 289 289 288 288 287 287 287 287 287 287 287 286 286 286 287 286 285 285 286 287
307 307 307 306 306 305 303 302 301 299 299 300 300 299 299 297 292 289 288 287 288 288 288 288 288 288 288 288 288 287 287 287 287 286 286 286 286 286 286 285 285 286 286
306 306 306 305 305 304 302 301 300 299 299 299 300 299 298 297 292 289 289 288 288 288 288 288 288 288 288 288 288 288 287 287 287 286 286 285 286 286 285 285 285 285 285
306 305 304 304 303 302 301 301 300 299 299 299 299 298 298 297 291 289 289 288 288 288 288 288 288 288 289 288 288 288 287 287 287 286 286 285 285 285 285 285 285 285 285
307 306 305 306 304 302 301 301 300 298 298 298 297 297 298 295 290 289 289 289 289 288 288 288 288 288 288 288 288 288 287 287 286 286 285 285 285 285 284 284 284 284 285
307 307 306 305 304 304 302 302 300 299 298 298 297 298 299 294 290 289 289 288 288 288 288 288 288 288 287 288 288 288 287 286 287 286 285 285 285 284 284 284 284 284 284
306 306 306 305 304 303 302 301 300 299 298 299 298 298 297 292 290 289 289 288 288 288 289 289 289 288 288 287 287 287 286 287 286 286 285 285 284 284 285 285 284 284 285
304 304 304 304 304 303 302 301 300 299 299 299 298 298 297 293 290 289 289 289 289 289 289 289 290 289 288 287 286 289 288 286 286 286 286 285 285 285 286 286 287 287 286
302 302 301 301 303 302 302 301 300 300 299 299 298 297 295 291 290 290 290 290 290 290 290 290 289 290 291 290 292 291 287 285 286 288 286 285 286 286 287 288 286 286 286
300 300 300 300 300 302 302 302 301 300 300 300 300 300 298 295 293 292 294 297 297 297 296 296 294 291 291 291 287 288 290 288 287 288 285 288 285 289 289 288 286 285 285
298 298 298 299 299 299 301 301 301 300 300 300 300 300 299 298 298 298 298 298 297 294 293 293 292 291 293 291 290 288 288 289 288 284 287 286 287 288 287 287 285 285 285
297 297 297 297 298 298 299 300 300 300 300 300 299 299 299 298 298 298 298 298 298 298 297 296 295 295 293 290 288 288 288 288 287 284 286 287 287 287 286 285 284 284 284
295 296 296 296 297 297 298 298 299 299 299 299 299 299 299 298 298 298 298 298 297 297 296 294 294 293 292 291 290 290 288 288 286 285 286 286 287 286 285 284 283 284 284
295 295 295 295 296 296 297 297 297 297 297 297 297 297 297 297 297 297 296 295 296 295 294 293 293 291 291 290 290 289 288 288 287 286 286 286 286 284 283 283 283 284 284
293 294 294 294 295 295 296 296 296 296 296 296 296 296 296 296 295 294 294 294 294 293 292 292 291 291 290 290 289 288 288 287 286 287 286 283 283 284 284 284 284 284 283

GFSGL_850_thetae_072.txt.gz
Theta_e
317 317 316 316 316 318 319 318 319 318 315 313 312 312 312 312 312 312 311 311 310 309 309 308 308 309 309 311 312 313 316 314 314 317 315 313 312 312 311 309 309 307 306
316 316 316 315 316 316 316 315 314 313 313 312 312 311 311 312 311 310 309 309 309 309 308 308 308 308 309 309 309 310 311 312 313 313 313 312 311 310 308 306 305 305 305
314 315 315 315 315 314 314 313 313 312 312 311 311 311 311 310 309 309 308 308 308 308 308 308 308 307 307 307 308 308 309 310 309 310 311 310 308 306 304 304 304 304 303
314 314 314 313 313 313 312 312 312 311 311 311 311 310 309 307 307 307 307 307 307 307 307 307 307 307 307 307 307 307 307 307 307 307 307 306 305 304 303 303 302 302 301
313 313 313 312 312 312 312 311 311 311 311 311 310 308 307 306 306 306 306 306 306 306 306 306 306 306 306 306 305 305 305 305 305 305 305 304 302 302 300 300 299 299 297
311 312 312 311 311 311 311 311 311 311 310 309 308 306 306 305 305 305 305 305 305 305 304 304 304 305 305 305 305 304 304 304 304 303 302 302 299 295 294 293 292 291 289
312 311 311 311 311 310 310 310 310 310 309 307 306 305 304 302 301 300 301 304 302 301 301 301 301 303 302 298 296 294 293 292 292 292 292 293 292 292 292 291 290 289 288
313 312 312 311 311 310 310 310 309 308 307 305 305 304 302 300 301 300 299 300 299 300 300 299 301 300 296 291 289 290 290 290 290 289 289 290 290 290 289 289 288 288 288
313 313 312 312 311 310 309 309 308 307 305 304 303 302 299 300 300 300 300 301 298 298 299 299 298 292 289 289 289 289 289 289 289 289 288 288 288 287 287 287 287 287 286
313 313 312 311 310 309 309 308 307 306 304 303 302 299 300 300 300 300 300 299 299 299 298 293 289 289 290 289 289 289 288 288 289 288 288 288 287 287 287 287 286 286 286
312 312 311 311 310 309 307 307 306 305 303 302 299 299 299 300 299 299 298 297 294 290 289 288 289 289 289 289 289 288 288 288 288 287 287 287 287 286 286 286 286 286 286
311 311 310 310 309 307 307 306 306 304 302 300 299 299 299 298 298 298 297 290 288 288 288 289 289 289 289 288 288 287 287 287 287 287 287 287 286 286 286 285 285 285 286
309 309 309 308 307 306 305 305 304 303 301 299 299 299 299 298 298 297 291 289 288 288 288 288 288 288 288 287 287 287 287 287 287 287 286 286 286 286 285 285 285 285 285
306 306 306 305 305 305 304 304 303 302 301 299 299 299 298 298 298 295 289 288 287 287 287 287 287 287 288 288 288 287 287 287 287 286 286 286 286 286 285 285 285 284 285
305 305 305 305 305 304 303 303 302 301 300 299 299 299 299 298 298 296 290 289 288 288 288 288 288 288 288 288 288 288 288 288 287 287 286 286 286 285 285 285 284 284 284
305 304 304 304 305 306 305 303 302 301 300 299 298 298 298 297 296 294 289 289 288 287 288 288 288 288 287 287 287 288 288 288 287 287 287 286 286 285 285 285 284 284 284
306 305 305 303 303 304 304 304 303 301 300 299 298 297 297 297 296 294 289 289 288 287 288 288 288 288 287 287 287 288 288 287 287 288 287 286 285 285 285 285 285 285 284
305 306 305 304 304 303 304 304 302 301 300 299 298 298 297 296 296 294 290 289 288 288 288 289 289 288 288 287 287 287 287 286 286 287 287 286 285 285 285 285 284 285 285
303 303 304 303 303 303 303 302 302 301 300 299 299 297 297 296 296 292 289 289 289 289 289 289 289 288 288 288 288 287 287 287 291 290 286 286 287 285 285 285 285 286 286
299 301 301 302 301 301 302 302 301 301 300 299 299 298 298 296 295 294 290 289 289 290 290 290 291 292 292 291 290 288 288 290 292 288 285 287 288 285 284 286 288 288 288
298 299 300 300 300 300 301 301 301 300 300 300 300 299 298 297 296 294 291 291 290 291 293 295 294 293 293 294 292 290 291 290 289 289 288 286 288 285 287 287 287 287 287
296 297 297 298 299 299 300 300 300 300 300 300 300 300 298 297 298 298 298 298 297 296 296 296 295 294 293 291 289 290 291 291 288 289 289 287 284 286 287 287 287 287 286
293 294 295 296 297 297 298 299 299 299 300 300 300 299 298 298 298 298 298 297 297 297 297 296 296 296 296 294 293 291 291 290 290 287 287 286 284 286 286 286 286 286 286
292 292 293 294 295 296 297 297 298 298 298 299 299 299 298 298 298 298 298 297 297 297 297 297 296 296 295 293 292 291 291 289 288 288 287 287 286 286 286 286 286 285 285
291 291 292 293 294 295 296 296 297 297 297 297 297 297 297 297 297 297 297 297 297 297 296 295 295 294 293 292 292 291 290 289 288 288 287 287 286 286 286 285 284 284 283
290 290 291 292 293 294 295 295 295 296 296 296 296 296 296 296 296 296 297 296 295 295 294 294 293 292 292 291 291 290 289 288 288 287 286 286 286 286 283 282 283 283 283

GFSGL_850_thetae_075.txt.gz
Theta_e
318 318 317 316 316 316 317 322 325 325 320 319 318 317 317 315 312 312 311 311 311 310 310 309 309 308 308 309 309 311 311 312 315 312 314 314 314 313 311 311 311 309 307
315 317 317 316 316 315 316 318 320 319 317 317 316 314 313 312 312 311 311 310 309 309 309 309 308 308 308 308 308 309 309 311 311 311 312 312 312 311 310 309 308 307 305
312 314 315 315 315 315 315 316 316 315 315 313 313 312 311 311 311 311 309 308 308 308 308 307 307 307 307 306 307 307 307 307 308 308 309 309 310 309 308 306 305 304 304
312 313 313 314 314 314 314 314 313 313 312 312 311 311 311 310 310 308 307 307 306 307 306 307 306 306 306 306 305 306 306 305 306 307 305 307 307 306 305 304 303 303 302
312 312 313 313 313 312 312 312 312 311 311 311 311 310 310 309 307 306 306 306 306 305 306 306 306 305 305 306 305 305 305 305 305 304 304 305 305 304 304 302 301 301 300
312 312 312 312 312 311 311 311 311 310 310 310 310 309 309 307 305 305 304 304 304 304 304 303 303 302 303 305 305 305 304 304 303 302 302 302 302 302 300 295 294 295 293
311 312 311 311 311 311 311 310 310 310 310 309 308 308 306 305 304 303 301 299 300 300 301 300 301 300 300 303 301 298 298 300 299 300 299 298 297 295 293 293 292 290 289
309 312 312 311 311 311 311 310 310 309 309 308 307 306 305 304 302 300 300 299 298 299 299 299 298 299 300 298 293 290 289 289 290 289 290 291 292 292 291 291 290 289 288
309 310 312 312 311 311 311 310 309 309 308 307 307 305 304 302 300 299 300 299 299 298 298 298 298 299 296 290 289 289 289 289 289 289 289 289 289 289 288 288 288 287 287
308 310 311 312 311 311 310 309 309 308 308 307 306 304 302 299 299 299 300 300 300 297 298 298 299 294 289 289 289 288 288 288 288 288 288 288 287 287 287 287 287 286 286
308 309 311 311 311 311 309 308 308 307 307 307 305 303 301 299 300 300 299 299 298 298 298 296 290 288 288 289 288 287 287 288 288 287 288 288 287 287 286 286 286 286 286
307 309 310 311 311 310 309 308 307 306 306 306 304 303 301 299 299 299 299 299 296 292 290 288 288 288 288 288 288 287 287 287 287 287 287 287 287 286 286 286 286 286 286
306 307 309 309 309 309 308 307 306 306 305 305 304 303 299 300 299 299 298 298 293 288 288 288 288 288 288 288 287 286 287 287 287 287 287 287 286 286 286 286 286 286 286
305 306 306 306 307 307 306 305 305 304 304 304 303 302 299 299 299 298 298 297 291 288 287 288 288 288 288 288 288 287 287 287 287 287 287 286 286 286 286 286 286 286 286
304 305 305 305 305 305 305 305 304 303 302 302 302 300 299 299 299 299 298 297 290 288 287 287 287 288 288 288 288 288 288 288 288 287 286 286 286 286 286 286 286 286 285
303 304 304 304 304 304 304 303 304 304 303 302 301 300 299 298 298 298 297 297 290 288 288 288 288 288 288 288 288 288 288 288 288 287 286 286 286 285 285 285 285 285 284
301 302 303 304 305 304 303 303 304 303 303 302 301 300 298 298 298 297 297 296 290 288 288 288 288 288 288 288 287 287 288 288 287 287 287 286 286 286 285 285 285 284 284
299 301 301 302 302 303 304 304 303 303 302 302 301 300 299 298 297 297 296 295 289 288 288 288 289 288 288 288 287 287 287 287 287 287 286 286 286 285 285 284 284 284 284
298 299 300 300 301 301 302 302 303 302 302 302 301 300 299 297 297 296 295 295 292 289 289 289 289 289 288 288 287 287 287 287 286 286 287 290 290 287 285 284 284 283 284
296 297 298 299 300 300 300 301 302 302 301 301 301 301 299 297 296 296 296 296 293 290 290 289 289 289 289 288 288 291 292 290 288 287 288 291 287 284 285 285 284 283 285
293 295 296 297 298 299 299 300 300 300 301 301 301 301 299 298 297 297 298 296 292 291 290 289 289 290 293 294 292 291 290 288 287 290 291 290 288 285 285 287 286 285 287
291 292 294 295 296 297 297 298 299 299 299 300 301 301 299 298 297 297 297 295 293 294 293 292 293 296 296 295 295 293 292 292 291 290 291 289 288 288 287 286 285 286 286
290 291 292 293 294 295 295 295 297 298 298 299 299 300 300 298 298 298 298 298 298 298 297 297 296 296 296 296 295 294 294 293 292 290 290 289 288 288 287 286 285 286 286
288 289 291 292 293 293 294 294 295 297 297 298 298 299 300 299 298 298 298 298 297 297 297 296 296 296 296 296 296 295 293 292 291 290 289 288 288 287 287 286 285 285 285
287 288 289 290 291 292 293 293 294 296 297 297 297 297 298 298 298 297 297 297 297 297 297 296 296 296 296 295 295 294 292 291 290 289 288 288 287 287 286 285 285 285 285
287 287 288 289 290 291 292 293 293 294 295 296 296 296 297 297 297 296 296 296 296 296 297 296 296 295 294 294 293 292 292 291 290 289 288 287 287 286 285 285 285 283 282

GFSGL_850_thetae_078.txt.gz
Theta_e
311 314 318 318 318 317 316 316 319 323 324 324 325 325 324 322 317 316 315 313 312 311 311 310 309 309 309 308 308 309 309 310 310 311 311 313 311 313 312 312 311 311 310
311 312 315 317 317 317 316 316 316 321 325 325 323 318 316 316 315 313 312 311 311 311 310 309 308 308 308 308 308 308 308 308 309 310 311 311 311 312 310 310 309 309 308
311 311 312 314 315 315 315 315 316 317 318 318 317 316 314 313 312 311 311 311 311 309 308 307 307 307 307 307 306 306 306 306 306 307 307 308 308 310 310 309 309 308 306
311 312 311 312 313 314 314 314 314 314 314 314 313 312 312 311 311 311 310 309 308 307 306 306 306 306 305 306 305 305 305 304 304 304 304 304 305 306 307 307 306 304 303
311 312 312 312 313 313 313 313 313 313 312 312 311 311 310 310 310 310 309 307 306 306 305 305 305 304 303 303 303 303 303 304 303 304 303 302 303 304 304 303 302 302 300
309 310 312 312 312 312 312 312 311 311 311 310 310 310 310 310 309 308 306 305 304 304 303 302 301 301 301 300 300 302 303 302 302 301 301 300 302 301 301 301 300 297 298
308 309 310 312 311 311 311 311 311 310 310 309 309 309 308 308 307 306 305 304 302 299 299 300 300 300 300 299 300 300 298 300 301 299 300 299 299 299 299 297 294 293 292
309 308 309 311 312 310 310 310 310 310 309 309 309 308 308 306 305 304 304 302 300 299 298 298 298 298 299 299 298 294 290 289 289 290 291 293 293 295 293 293 293 291 290
308 308 308 309 311 311 310 310 310 309 309 308 308 308 307 306 305 304 302 300 300 299 299 299 298 298 298 298 293 289 289 289 289 289 289 289 289 290 290 290 289 288 288
308 308 308 308 310 311 311 310 309 309 308 308 308 307 307 305 304 303 301 300 300 300 299 298 297 296 297 292 289 289 289 289 288 288 288 288 287 288 287 287 287 287 287
306 307 307 308 309 310 310 309 309 308 307 307 307 307 306 304 303 301 300 299 299 300 299 297 297 297 290 288 289 288 288 288 288 288 288 288 288 288 287 287 287 287 287
306 306 306 308 309 310 310 309 309 308 307 306 306 306 306 303 302 300 299 299 299 299 297 295 292 288 288 288 289 288 288 287 287 287 287 287 287 287 287 287 287 287 287
305 305 305 306 308 309 308 308 308 307 307 306 306 305 305 303 301 300 300 299 298 299 293 289 288 288 288 288 288 287 287 287 287 287 287 286 286 287 286 286 286 286 286
303 304 304 305 305 307 307 307 306 306 306 305 305 304 304 302 300 299 300 299 298 298 292 288 287 288 288 288 287 288 288 287 287 287 286 286 286 286 286 286 286 286 286
300 302 304 303 304 304 305 305 305 305 304 303 303 302 302 302 301 300 299 299 298 297 291 288 287 288 288 288 288 288 288 287 288 287 287 287 286 287 287 286 286 286 285
297 299 301 302 302 302 303 304 304 304 303 302 302 302 302 301 299 299 299 298 298 296 291 288 287 287 287 287 288 288 288 288 288 287 287 287 286 286 286 286 286 285 285
294 296 298 300 301 301 302 302 303 303 303 302 303 303 303 301 300 299 298 298 297 296 292 289 288 288 288 288 288 288 287 287 287 287 287 287 287 286 286 287 286 285 286
291 294 295 297 299 300 300 300 300 301 302 302 303 302 302 301 300 298 297 297 296 295 293 289 289 289 289 288 288 288 287 287 287 287 287 287 287 286 286 287 287 285 284
290 290 293 295 297 299 299 300 300 300 300 301 302 301 302 301 299 298 297 296 296 296 295 290 289 289 289 288 288 288 287 287 287 287 287 287 286 288 291 291 287 284 285
288 289 290 292 294 296 297 298 299 299 300 300 301 302 301 299 299 298 296 295 296 296 296 294 290 289 289 288 288 288 288 287 288 289 289 288 287 288 289 289 284 284 286
287 287 289 291 292 293 294 297 298 298 299 300 301 301 300 299 300 299 298 297 296 296 297 296 291 289 289 289 289 288 288 289 291 292 291 288 288 290 290 288 284 284 286
287 287 288 290 291 292 293 294 296 297 298 299 300 300 299 299 299 299 298 298 297 298 297 293 293 293 290 289 289 295 295 295 294 293 292 289 289 290 289 289 288 287 286
287 287 288 289 290 291 291 293 293 296 297 298 298 299 299 299 299 299 299 298 298 297 296 294 293 294 294 296 296 296 296 295 295 294 293 291 290 289 289 288 288 287 286
286 287 287 287 288 289 290 291 293 293 294 295 297 297 298 298 298 299 299 299 299 298 298 297 297 297 297 296 296 295 295 295 295 294 292 291 290 289 288 287 287 286 285
286 286 287 286 287 288 289 290 292 293 293 293 295 296 297 297 297 298 298 298 298 298 298 297 297 297 297 296 296 295 295 295 293 292 291 290 289 288 287 287 286 285 285
286 286 286 286 287 288 289 289 291 292 292 293 294 295 296 297 297 296 297 297 297 297 297 297 296 296 296 296 296 295 294 293 291 290 289 288 287 287 287 286 285 285 285

GFSGL_850_thetae_081.txt.gz
Theta_e
311 311 312 315 318 318 318 317 317 317 322 325 325 324 324 324 323 321 320 316 315 313 312 311 311 311 310 309 309 308 309 309 309 310 310 310 310 312 311 311 312 311 310
310 311 311 311 315 317 317 317 316 316 318 324 325 325 325 325 323 319 315 315 313 312 311 311 310 309 308 308 308 308 308 309 309 309 309 309 310 311 311 311 310 309 308
311 311 311 311 312 314 316 316 316 316 318 322 323 322 319 317 316 315 313 312 311 311 310 309 308 308 307 307 307 307 306 307 306 306 306 307 307 307 308 309 308 307 307
309 311 311 311 312 313 313 314 314 315 316 316 316 316 315 314 313 312 311 310 310 310 309 308 307 307 306 306 304 305 305 305 305 304 304 304 304 305 305 306 306 306 306
308 308 310 311 311 312 313 313 313 313 313 313 313 313 312 312 311 310 310 310 310 309 307 307 306 305 304 303 303 303 303 304 303 303 303 302 303 303 304 305 304 304 303
308 309 308 309 312 311 312 312 312 312 312 312 312 311 311 310 310 310 310 309 307 306 305 304 303 301 301 301 301 300 300 301 302 302 302 301 301 301 301 302 302 301 300
303 306 308 308 309 311 311 311 311 311 311 310 310 310 309 309 309 309 309 307 306 305 303 302 301 301 301 301 300 299 299 301 300 300 300 300 299 300 300 300 299 299 295
301 303 307 308 308 309 311 310 310 310 310 309 309 309 309 308 308 308 307 306 305 303 302 300 300 300 300 300 300 300 297 293 291 291 293 295 297 297 296 296 295 293 292
301 303 306 308 307 308 310 311 310 310 309 309 308 308 308 307 307 307 306 305 303 301 301 300 300 300 300 299 298 298 293 289 289 289 289 289 290 291 292 292 292 291 290
302 303 306 307 307 307 308 310 309 309 309 308 308 308 307 306 306 306 305 304 303 301 300 299 300 299 298 297 298 291 289 289 289 289 289 288 288 288 288 288 288 288 288
301 303 305 306 306 307 308 309 309 308 308 308 307 307 307 306 306 304 304 303 301 301 301 301 298 297 297 298 290 289 289 289 288 288 288 288 288 288 287 287 287 287 287
299 300 304 305 306 307 308 308 308 307 307 307 307 306 306 306 305 303 303 301 300 300 300 300 299 299 296 290 289 288 288 288 288 288 288 288 287 287 287 287 287 287 287
298 299 301 304 304 305 307 307 308 307 306 307 306 306 306 305 304 303 301 300 299 299 298 297 295 292 289 288 289 288 288 288 287 287 287 288 287 287 286 286 286 286 286
296 298 299 301 303 304 304 306 306 306 306 306 306 306 306 304 304 303 301 299 299 299 297 296 290 288 288 288 288 288 288 288 287 287 287 287 287 286 286 286 286 286 286
292 293 296 298 300 302 303 304 305 305 305 305 305 305 304 303 304 302 301 299 299 299 298 297 289 288 288 288 288 288 288 288 288 287 287 287 287 286 286 286 287 287 287
291 292 293 295 297 299 301 302 302 303 303 303 303 303 302 302 301 301 299 299 298 297 297 297 293 288 287 288 288 288 288 288 288 287 287 287 287 286 286 286 286 287 287
290 290 291 292 293 295 297 299 301 300 301 302 302 302 302 302 302 300 300 299 298 297 296 297 296 290 288 287 287 288 288 288 287 287 288 288 287 286 286 286 287 287 287
290 289 290 290 291 293 295 296 298 300 300 300 301 301 301 302 301 301 300 298 297 296 296 296 296 294 289 288 288 288 288 287 287 287 287 288 287 287 287 287 287 287 288
289 289 289 289 291 290 293 294 296 297 299 299 300 299 300 300 300 299 298 297 298 297 297 297 297 296 289 288 288 288 288 288 287 287 287 287 287 287 287 286 289 290 290
288 288 287 289 288 289 292 293 294 296 297 298 299 299 299 298 299 298 298 298 298 297 296 296 296 297 290 289 288 288 288 287 288 288 288 287 287 287 288 287 288 290 289
287 287 287 287 287 288 289 291 292 293 295 297 298 299 299 298 300 300 299 299 298 296 296 296 296 296 293 289 288 288 288 288 288 288 288 289 291 291 289 289 289 290 287
287 286 286 286 287 288 288 290 291 291 293 295 297 298 298 297 299 299 299 299 299 297 297 297 296 296 295 290 289 289 289 289 290 293 291 291 292 292 290 289 289 289 288
286 285 286 286 286 287 288 288 289 290 291 293 295 297 297 298 299 299 300 299 299 298 297 297 297 296 293 293 294 294 295 292 293 295 294 294 293 292 291 290 289 289 288
286 286 286 286 286 286 287 287 288 289 291 291 293 295 296 297 298 299 299 299 299 298 298 297 297 296 293 293 293 293 294 295 295 295 294 294 293 292 291 290 289 288 287
285 285 285 286 286 286 286 287 288 289 290 291 292 292 294 296 297 298 298 298 299 298 298 298 297 297 297 297 296 296 296 295 295 294 294 293 292 291 290 289 288 287 287
285 285 285 285 285 286 286 287 288 289 290 291 291 291 293 295 296 296 297 298 298 298 297 297 297 297 296 296 296 296 295 295 294 294 293 292 290 290 289 288 287 286 286

GFSGL_850_thetae_084.txt.gz
Theta_e
311 311 312 312 315 318 318 317 317 317 318 324 326 326 326 326 325 323 323 324 322 318 315 315 313 312 311 311 310 309 309 309 309 310 310 310 309 309 310 310 311 310 310
310 310 310 311 312 314 316 317 317 316 316 318 324 326 326 324 324 324 324 320 319 316 315 313 311 311 311 310 309 308 308 308 308 308 309 308 308 308 310 310 310 309 309
309 310 311 310 311 311 313 315 316 316 316 317 321 325 325 325 324 324 322 320 316 314 312 312 311 311 310 309 308 308 308 307 308 308 307 306 306 306 306 306 307 308 307
309 308 308 310 311 311 312 312 314 315 315 317 321 323 324 324 323 320 316 315 313 312 311 311 310 309 308 307 307 306 306 304 305 305 305 305 305 305 305 305 305 306 306
305 306 308 308 309 311 312 312 313 314 314 315 316 316 317 316 315 314 313 312 311 310 310 310 309 308 307 306 306 304 303 304 304 304 304 304 303 303 303 303 304 304 304
304 303 304 306 308 308 311 312 312 312 313 313 313 314 313 313 312 311 311 310 310 310 309 308 307 305 304 302 301 301 302 302 302 303 303 302 302 302 302 302 302 302 302
303 302 302 303 306 307 308 311 311 311 311 311 312 312 311 311 310 309 309 309 308 307 306 305 304 302 301 301 301 301 301 300 300 301 301 301 301 301 300 301 301 301 300
302 302 302 302 304 307 307 308 311 310 310 310 310 310 309 309 308 308 308 307 306 305 305 304 303 303 301 300 301 301 300 300 298 295 296 298 299 298 298 298 298 298 297
301 301 302 303 304 306 307 307 308 310 310 310 309 309 308 308 307 307 307 306 305 304 304 302 302 302 301 301 301 300 300 296 292 290 290 290 290 291 293 294 294 294 293
300 301 301 302 304 306 306 307 307 309 309 309 308 308 307 307 307 306 307 306 305 304 303 302 302 301 300 300 299 298 299 293 289 289 289 289 289 289 290 291 291 290 290
298 299 300 300 303 305 306 306 307 307 308 308 308 308 307 307 306 306 307 306 305 303 302 302 302 301 299 298 297 298 292 290 289 289 289 289 288 288 288 288 288 287 287
293 296 298 299 301 304 304 305 307 307 307 307 307 307 307 307 306 306 306 306 304 302 301 301 301 299 298 296 297 291 289 289 289 289 289 288 288 288 288 287 287 287 287
291 291 293 297 299 301 303 304 305 306 307 307 307 307 307 307 306 306 305 305 303 301 300 299 299 298 297 296 294 288 288 288 288 288 288 288 288 288 287 287 287 287 287
290 290 290 291 294 298 301 303 303 304 305 305 306 306 306 306 305 305 305 303 300 300 299 299 298 296 295 293 288 288 288 288 288 287 287 287 288 287 287 287 287 287 287
290 290 290 290 291 293 297 300 301 302 302 304 304 305 305 305 306 306 304 304 302 300 299 299 298 294 290 288 288 289 288 288 287 287 287 287 287 287 287 286 286 287 287
289 289 290 290 290 291 292 295 298 300 300 301 302 302 303 303 303 302 302 301 300 299 298 298 298 297 292 288 288 288 288 288 288 288 287 288 288 287 287 287 287 287 288
288 289 289 289 289 290 290 292 293 297 299 299 300 301 301 302 302 301 301 300 299 297 297 297 297 297 296 289 288 288 288 288 288 287 287 288 288 287 287 287 287 287 288
288 288 288 289 288 289 289 291 291 293 296 299 298 299 300 300 300 300 300 299 298 297 297 298 298 297 296 293 289 287 287 287 287 287 288 288 288 287 287 287 287 287 287
288 288 287 288 287 288 288 289 290 292 294 295 297 298 299 298 299 299 298 298 299 299 299 299 298 297 297 296 292 287 287 287 287 288 287 287 287 287 287 287 287 286 286
288 288 288 286 287 287 287 287 288 290 292 293 295 296 297 297 297 297 298 298 298 299 299 298 298 297 296 296 294 288 288 288 288 288 288 287 287 287 287 287 286 287 287
287 287 287 287 287 287 286 286 287 288 290 291 293 295 295 296 297 298 298 298 299 299 298 297 296 296 296 295 294 288 288 288 288 288 288 288 287 287 287 287 290 289 287
287 287 286 286 286 285 285 286 288 287 288 290 291 293 294 294 296 297 298 298 299 299 298 298 296 295 296 296 292 289 289 288 288 288 288 288 288 288 288 289 292 290 289
287 285 285 286 285 285 285 285 286 287 288 289 290 291 293 294 295 296 297 298 298 298 298 298 296 296 295 295 296 292 289 289 289 291 289 291 294 293 291 292 292 291 290
286 285 285 285 285 285 285 286 287 287 287 288 289 291 292 294 294 296 297 297 298 298 298 298 296 296 296 296 294 292 292 291 291 292 294 294 294 293 293 292 292 291 289
285 286 285 285 285 285 285 285 285 286 287 288 289 290 291 292 294 295 296 297 298 298 298 297 297 297 297 296 295 293 293 294 294 294 294 294 293 293 293 292 291 289 288
285 285 284 284 284 284 284 285 285 286 287 288 289 290 291 291 292 294 296 297 297 298 298 297 297 297 297 296 295 295 295 295 295 294 294 293 293 292 292 291 290 289 288

GFSGL_850_thetae_087.txt.gz
Theta_e
311 312 312 314 316 317 317 317 318 321 323 325 326 326 327 327 327 327 326 326 324 323 322 323 322 316 314 313 311 311 311 310 311 312 311 310 309 308 309 309 309 309 309
309 310 310 311 312 313 315 316 316 316 317 318 323 326 327 326 327 327 326 324 323 322 323 322 317 315 313 311 311 311 310 309 309 309 310 308 308 308 308 308 309 310 309
308 308 308 310 311 311 312 314 315 316 316 316 317 321 325 326 326 325 325 324 323 324 321 319 316 315 312 311 310 310 309 308 308 308 307 308 307 306 306 306 306 307 307
306 306 307 308 308 310 311 311 312 314 315 316 317 320 323 325 325 325 324 324 322 320 319 316 314 312 311 310 309 308 308 307 307 306 305 306 305 305 305 305 305 305 305
305 305 305 305 306 308 309 311 312 312 313 314 316 318 320 323 324 324 324 322 320 317 314 312 311 310 310 309 308 307 307 306 305 304 304 304 304 304 304 304 303 304 304
303 303 303 303 303 304 307 308 311 312 312 313 313 314 315 317 319 319 317 315 314 312 311 310 310 309 308 306 306 305 305 304 303 303 303 303 303 303 303 302 302 302 302
302 302 302 302 302 303 303 306 307 310 311 312 312 312 313 313 313 313 312 311 310 309 309 308 307 307 306 304 304 303 302 301 301 301 301 301 302 302 301 301 301 301 301
301 302 302 302 302 302 303 305 307 307 310 311 311 311 311 311 311 311 310 309 308 308 308 307 306 305 304 303 303 302 301 300 300 300 298 299 299 300 299 299 299 298 299
299 300 300 301 301 302 303 305 306 307 307 309 310 310 310 310 310 309 308 308 308 307 306 305 305 304 303 303 302 301 300 299 299 296 292 291 291 293 294 295 295 296 296
295 295 297 299 299 300 302 304 305 306 306 307 309 309 309 309 309 308 308 307 307 306 305 305 304 303 303 301 300 300 298 299 298 294 291 290 289 290 290 291 293 293 293
292 293 293 294 297 299 300 302 304 305 305 306 307 308 308 308 307 307 307 307 307 306 305 305 303 302 301 299 299 299 298 298 295 290 290 290 289 290 289 290 290 290 290
290 291 291 291 292 294 298 299 302 302 303 304 305 306 308 308 307 307 306 307 306 306 305 304 302 301 300 299 298 297 297 295 290 289 289 289 289 289 289 288 288 288 288
290 290 291 291 291 291 291 296 299 301 302 302 302 304 306 306 307 306 305 305 305 305 305 303 301 300 299 298 297 296 296 290 289 289 289 289 289 289 288 288 287 287 287
289 289 290 290 290 291 291 291 294 298 300 301 301 301 302 304 305 306 305 304 304 304 304 302 300 299 298 297 296 295 293 289 289 288 288 288 288 288 288 287 287 287 287
289 289 289 290 290 290 291 290 290 292 296 298 299 300 301 301 303 304 304 304 304 304 304 300 299 299 298 296 294 295 291 289 288 288 288 288 288 287 287 287 287 287 287
290 290 290 290 289 289 290 290 290 290 291 296 298 298 300 301 300 301 301 303 303 302 301 300 299 299 299 298 294 292 289 289 289 288 288 287 287 287 287 287 287 287 287
289 289 289 289 288 289 289 289 289 290 290 291 295 298 298 299 300 299 301 301 301 300 299 299 299 299 298 297 296 290 289 289 289 289 288 287 288 288 287 287 287 287 287
288 288 288 287 288 288 288 288 288 288 288 290 291 294 297 297 298 298 298 299 299 298 297 298 298 298 298 298 297 293 288 288 288 288 288 288 287 287 287 287 287 287 287
288 288 288 287 287 287 287 288 287 287 287 288 290 292 294 296 296 296 296 297 298 298 297 298 299 298 298 297 297 296 291 288 287 287 287 288 288 287 288 287 287 286 287
288 288 287 287 287 287 287 287 287 286 287 287 288 291 292 293 295 295 296 296 297 298 298 298 299 298 298 298 297 296 295 292 287 287 287 287 287 287 287 287 287 287 287
288 287 287 287 286 286 286 287 286 286 286 287 288 289 291 291 293 294 294 295 296 297 298 298 298 298 298 297 296 295 295 293 288 287 288 288 288 287 287 287 287 287 286
287 287 287 286 286 286 286 286 285 286 286 286 287 288 290 290 292 293 294 294 295 296 298 298 298 298 297 297 296 295 295 293 288 288 288 288 288 287 287 287 287 287 288
286 287 286 285 285 285 285 285 285 285 286 286 287 287 288 290 291 292 294 294 294 295 296 297 297 297 297 296 295 295 295 293 289 288 288 288 288 288 287 289 291 290 288
286 285 285 285 285 285 285 285 285 286 286 286 286 286 287 289 291 292 293 294 294 294 296 297 297 297 297 296 295 295 295 290 289 288 288 288 288 289 290 294 293 292 290
285 285 286 286 286 285 285 285 285 285 285 285 285 286 287 289 290 291 293 294 294 295 296 297 297 297 297 296 295 295 295 292 289 288 288 289 293 293 293 293 293 292 291
285 285 286 285 284 284 284 284 284 284 284 284 285 286 287 288 290 291 292 293 294 295 296 296 297 297 297 296 296 295 295 293 293 293 293 293 293 293 293 292 292 291 291

GFSGL_850_thetae_090.txt.gz
Theta_e
311 312 314 315 317 319 321 323 326 328 326 327 326 326 326 325 326 326 327 326 324 325 325 324 324 323 321 322 315 314 313 311 311 312 313 312 312 311 309 308 309 309 309
309 310 310 310 311 312 314 316 316 317 317 319 321 321 324 325 326 326 326 326 326 325 325 325 324 322 323 318 315 314 312 311 310 310 310 311 310 308 307 307 307 307 308
306 307 308 308 308 310 310 311 312 314 315 316 316 317 320 324 325 325 328 327 327 326 325 323 322 323 320 316 315 313 311 310 310 309 310 308 308 306 306 306 306 306 306
307 306 306 305 306 307 308 309 310 311 312 313 315 316 318 320 324 325 325 326 326 325 323 323 321 319 316 314 312 310 310 309 308 307 309 308 305 306 306 305 305 305 305
304 305 305 305 304 304 305 307 308 310 311 312 313 314 315 317 321 323 322 324 324 323 321 320 316 314 313 312 310 309 309 308 308 307 307 306 304 304 304 304 304 304 304
303 303 304 304 304 303 303 303 305 307 309 311 312 313 313 315 316 319 321 321 320 319 318 316 314 313 311 310 309 309 308 307 306 306 305 303 302 302 303 303 303 303 302
301 301 302 302 302 302 302 303 303 305 307 308 311 311 312 312 314 316 318 317 316 315 314 313 311 310 309 309 308 307 305 304 303 302 302 302 301 302 303 302 302 301 301
297 298 298 299 301 301 302 302 303 304 305 306 308 310 310 311 311 312 312 313 312 312 311 310 309 309 308 308 306 305 303 302 302 301 300 301 301 301 301 301 300 299 299
294 294 294 294 296 297 300 301 302 303 304 305 306 307 309 310 310 310 310 310 310 310 309 308 308 308 306 306 304 303 302 302 301 300 301 300 297 297 297 297 297 297 296
293 292 292 292 292 293 294 297 300 301 303 304 304 306 306 307 309 309 309 308 308 308 308 307 306 306 305 304 303 303 302 301 301 301 299 295 292 291 291 291 292 294 295
292 291 291 291 291 291 291 292 293 298 300 301 302 304 304 305 306 307 308 307 307 307 307 306 306 305 305 303 302 302 301 300 300 300 297 294 291 290 290 290 291 292 293
290 290 290 290 290 291 291 291 291 293 297 299 301 302 302 304 305 306 306 307 307 306 306 306 305 304 303 302 301 300 299 299 298 298 293 290 290 290 290 289 290 290 289
290 289 289 289 289 289 290 290 291 291 293 296 299 301 301 302 303 303 304 305 305 306 306 305 303 303 302 301 301 299 299 298 297 295 290 290 289 289 289 288 288 288 287
289 289 289 289 289 289 289 290 290 290 290 290 294 297 299 300 300 301 301 302 302 303 305 304 303 303 301 301 299 298 298 296 297 293 289 289 288 289 289 288 288 287 287
289 289 289 289 289 289 289 289 289 290 290 290 290 292 295 296 299 299 299 299 300 301 302 301 300 300 299 300 298 297 297 296 297 291 289 288 289 289 288 288 287 287 287
289 289 289 289 289 289 288 288 288 289 288 289 289 290 292 295 296 298 298 298 298 299 299 300 299 298 299 300 299 298 297 296 296 289 289 288 288 288 288 287 287 287 287
289 289 288 288 288 288 288 288 288 289 289 288 288 288 290 292 295 297 297 297 297 297 297 299 299 299 299 299 299 299 299 297 295 290 289 289 288 287 287 287 286 286 286
288 288 288 288 288 287 286 287 286 287 288 288 287 288 288 290 293 295 296 296 296 296 296 297 299 299 299 299 298 298 297 295 292 290 289 289 288 287 288 287 287 287 286
288 288 288 288 287 287 287 287 287 287 287 286 286 286 288 288 291 293 295 295 296 296 296 296 297 298 298 298 298 297 297 297 295 290 289 288 288 288 287 288 287 286 286
287 287 288 288 287 287 286 286 286 287 287 286 286 286 286 288 289 291 293 294 295 295 296 296 297 297 297 297 297 297 297 296 294 290 288 288 288 288 287 287 287 287 286
286 287 287 287 287 286 286 286 286 286 286 285 285 285 286 287 287 288 291 293 294 294 295 296 296 296 297 297 296 296 296 296 296 294 290 287 287 287 287 287 287 287 287
286 286 287 287 286 286 286 286 286 286 286 285 285 285 286 287 287 288 289 291 293 293 294 294 295 296 296 297 297 296 296 295 295 295 293 287 287 287 287 287 287 287 287
285 286 286 286 285 285 285 285 285 285 285 285 285 286 286 286 286 287 289 290 292 293 293 293 294 295 296 296 297 296 296 296 295 295 294 288 287 288 288 288 287 286 286
285 286 285 285 285 285 285 285 285 285 285 285 285 285 285 285 285 286 289 289 291 292 293 293 294 294 295 296 296 296 296 295 295 295 293 289 288 288 288 287 287 287 290
284 285 285 285 285 286 285 284 284 284 284 284 284 284 284 285 286 287 287 289 291 292 293 294 294 294 295 296 296 296 295 295 294 294 290 288 288 288 288 288 288 290 292
283 284 285 285 285 284 283 283 282 283 283 283 284 284 284 285 285 286 288 289 291 292 293 294 294 295 295 296 296 296 295 294 294 292 289 288 288 288 288 290 293 292 291

GFSGL_850_thetae_093.txt.gz
Theta_e
312 312 314 315 318 322 321 323 324 325 326 326 326 326 325 325 324 323 324 325 325 323 323 322 324 324 323 323 322 322 321 317 313 312 312 312 313 313 312 311 309 308 308
308 308 309 310 311 312 313 314 315 316 316 316 318 320 323 325 325 325 325 325 325 325 324 323 324 324 324 323 322 322 317 313 312 311 311 312 312 311 311 309 307 307 306
306 306 306 306 307 308 309 310 310 311 312 313 315 315 316 317 318 321 325 326 326 324 326 325 325 325 324 323 322 321 314 312 311 311 311 310 310 309 308 307 305 306 306
305 306 306 306 306 306 305 306 307 308 310 311 311 312 314 316 317 317 323 324 323 324 324 325 324 325 324 323 321 317 313 312 311 310 309 308 309 308 307 305 305 305 305
305 304 305 305 305 304 304 304 304 304 306 308 310 311 312 313 315 316 319 320 321 322 322 322 322 322 322 321 318 313 312 311 310 309 308 307 307 306 306 304 304 304 304
301 302 302 302 302 303 303 303 303 303 303 304 307 310 311 312 313 314 316 318 319 321 321 321 320 319 320 317 314 312 310 310 309 308 307 306 305 304 304 302 302 303 303
298 298 298 298 298 299 301 302 302 303 303 303 304 306 309 311 311 312 313 315 317 318 319 319 318 317 315 314 312 310 309 308 308 307 306 305 305 304 301 302 302 302 302
296 295 295 295 295 295 295 296 298 301 302 303 303 304 306 307 310 310 311 311 313 314 314 314 314 314 313 311 309 308 307 306 306 305 304 303 303 303 302 302 302 301 300
293 293 293 292 292 293 293 293 293 294 297 300 301 303 304 306 307 309 309 309 310 311 311 311 310 309 309 308 308 307 305 305 304 303 303 303 303 302 301 300 300 299 298
292 292 292 291 291 291 291 291 292 292 292 293 297 300 302 303 304 305 307 308 309 309 309 309 308 308 306 306 307 305 304 304 303 303 303 303 302 300 296 295 296 295 296
291 291 290 290 290 290 290 290 290 291 291 291 292 297 300 301 302 303 305 305 306 307 307 307 307 307 306 305 306 304 303 302 303 302 302 301 298 294 292 291 291 291 292
290 290 289 289 289 289 289 289 290 290 290 290 290 291 297 300 301 302 303 304 304 305 306 306 306 305 305 304 304 302 301 301 302 302 301 300 296 292 291 290 291 291 291
290 289 288 288 288 288 289 289 290 289 289 290 290 289 289 296 298 300 300 301 301 302 304 305 304 303 303 303 303 301 300 300 300 300 300 299 294 290 290 290 290 290 290
287 287 288 288 288 288 289 289 289 289 289 290 290 289 290 289 292 297 299 299 300 300 301 301 302 302 302 301 300 300 299 299 299 299 299 296 290 290 289 289 289 289 288
286 287 287 288 289 289 289 289 289 288 288 289 288 289 289 289 289 291 294 296 298 298 299 300 300 299 299 299 299 299 299 298 298 297 297 293 289 289 289 289 289 288 288
286 286 287 288 288 288 288 288 288 287 288 288 288 288 289 288 289 290 292 295 296 297 297 298 298 298 299 299 299 299 299 298 298 297 296 293 289 289 289 288 288 288 288
286 287 287 288 288 288 288 288 287 288 287 287 287 288 287 288 289 289 290 293 295 296 296 297 297 298 298 298 299 298 298 298 297 296 296 294 289 288 288 288 288 288 287
285 286 287 288 288 288 288 287 287 287 287 287 286 286 286 286 288 288 289 292 294 296 296 296 296 297 297 298 298 298 297 297 297 296 296 293 288 287 287 287 287 288 287
285 285 285 287 287 287 287 287 287 287 286 286 286 286 286 285 287 287 288 290 292 294 295 295 296 296 296 296 297 298 297 298 297 296 295 292 289 288 287 287 287 287 286
285 285 286 286 286 287 288 287 286 286 286 286 286 286 285 285 285 286 287 288 291 292 293 294 294 295 296 296 296 296 296 296 296 295 294 292 290 289 287 287 287 287 287
284 284 285 286 286 288 287 286 286 286 286 286 285 285 285 285 286 286 287 287 288 290 291 292 293 294 295 296 296 296 296 296 295 295 295 293 290 288 288 287 287 287 287
284 285 285 285 286 286 286 285 285 285 285 285 285 285 285 285 285 287 286 286 287 289 291 291 291 292 294 295 296 296 295 295 295 295 295 294 290 288 287 287 287 287 287
284 284 284 285 285 285 285 285 285 285 285 285 285 285 285 285 285 284 285 286 286 288 289 291 291 292 293 294 295 295 295 295 296 296 296 295 293 290 287 287 287 287 287
283 283 283 283 284 284 284 285 285 285 284 284 284 284 284 284 284 284 284 285 286 287 289 291 292 293 293 293 294 295 295 295 296 296 295 294 293 291 287 287 287 287 286
283 283 284 284 284 284 284 284 284 284 283 282 282 283 283 283 284 284 284 285 286 288 290 291 292 293 293 293 294 294 295 295 295 295 294 294 293 290 287 287 287 287 287
283 283 283 283 283 283 283 283 282 282 282 282 282 282 283 284 285 285 285 285 287 289 290 291 292 293 293 293 294 294 295 295 295 294 293 293 292 289 288 289 288 287 287

GFSGL_850_thetae_096.txt.gz
Theta_e
313 316 316 318 320 321 322 323 323 323 324 325 325 326 325 323 322 323 323 324 324 324 325 323 323 324 323 321 321 321 320 320 321 321 316 314 313 313 313 313 312 311 309
307 308 308 309 310 311 312 313 314 314 315 315 316 317 319 323 324 323 324 322 322 323 324 325 323 321 321 323 323 323 322 322 322 322 318 313 312 312 313 312 311 310 307
305 306 305 305 305 305 305 306 307 309 310 311 312 313 315 316 317 320 323 325 325 324 324 324 325 323 322 323 324 323 323 322 322 319 314 312 312 312 312 311 309 308 306
303 303 303 304 304 305 305 305 305 304 305 307 309 310 311 312 314 316 317 320 322 322 323 324 323 325 324 323 324 324 323 321 319 314 312 311 311 311 311 308 307 307 305
302 302 302 301 301 301 302 302 303 304 304 304 304 306 309 311 312 312 314 315 319 319 321 322 322 322 322 323 323 322 322 320 316 312 312 311 310 310 309 308 306 305 304
300 299 298 298 298 298 298 298 299 300 302 302 303 303 304 307 310 311 312 312 314 317 318 318 319 321 321 321 321 322 321 321 316 312 311 311 310 309 308 306 305 304 303
297 296 296 297 296 295 295 295 295 295 295 297 300 302 303 304 306 309 310 311 312 314 315 316 318 319 320 321 321 320 317 314 311 311 311 311 309 307 306 304 304 303 302
295 294 294 293 293 293 294 294 294 294 294 293 294 296 300 302 303 305 308 309 309 311 313 314 315 316 315 317 317 315 315 312 312 311 310 308 307 305 304 304 302 301 302
293 292 292 292 292 292 292 292 292 292 293 292 292 293 292 296 300 301 303 305 307 308 309 311 312 314 312 312 312 312 311 311 309 309 307 306 304 303 302 302 302 301 301
291 291 291 290 290 290 290 290 290 291 291 291 291 291 291 292 297 300 301 302 305 306 307 308 309 309 310 310 310 309 308 307 307 306 305 304 302 302 301 302 301 301 300
291 290 290 289 289 289 289 289 289 289 289 289 290 290 290 290 293 299 300 301 302 303 305 306 306 307 307 307 307 306 306 305 304 303 302 302 301 301 302 300 298 297 297
289 288 288 288 288 288 288 288 288 288 289 289 289 289 289 290 290 292 298 300 300 300 302 303 305 305 305 305 305 305 304 303 302 301 301 302 302 302 300 296 293 293 292
286 286 286 287 287 287 287 288 288 288 288 288 288 288 289 289 289 290 291 296 298 300 300 301 302 303 303 303 303 303 302 301 301 301 302 302 302 299 295 292 291 291 291
287 287 287 286 286 286 287 288 289 288 288 288 288 288 288 288 288 289 290 290 295 297 298 300 300 300 300 301 301 301 301 301 300 301 301 301 299 297 293 291 290 290 291
286 286 286 286 286 286 287 288 288 288 288 288 287 288 288 287 288 288 289 290 291 293 295 297 298 298 299 299 299 299 300 300 299 299 299 299 298 296 291 290 289 289 289
286 286 286 286 286 287 287 288 288 288 288 287 287 287 287 288 288 287 288 289 289 291 294 296 296 297 298 299 298 298 298 298 298 299 298 298 297 297 291 289 288 289 288
285 285 285 285 285 286 288 288 287 287 287 287 286 286 287 287 287 287 287 288 288 290 292 295 296 296 296 298 298 298 299 298 298 297 298 298 296 296 290 289 288 288 288
284 284 284 285 285 285 286 287 286 286 287 287 287 286 286 286 286 286 287 287 288 289 290 293 295 296 296 296 296 297 297 297 297 297 297 297 296 296 291 288 288 288 287
283 283 284 284 285 285 286 286 287 287 286 286 286 287 286 285 285 285 286 286 287 288 289 291 293 294 295 295 296 296 296 297 297 297 296 296 295 294 292 288 288 288 287
283 284 284 284 285 285 285 286 287 287 286 286 286 286 285 285 285 285 285 286 286 287 288 289 291 293 294 294 295 295 296 296 295 296 296 296 295 294 293 288 288 287 287
283 283 283 284 284 285 285 286 286 286 285 285 285 285 285 285 285 285 285 285 286 286 286 288 289 291 292 293 294 294 295 295 295 296 296 295 295 294 292 290 289 287 286
283 283 283 283 283 284 285 285 285 285 285 285 285 285 285 284 284 285 285 285 284 284 285 287 288 289 291 291 293 293 294 294 295 295 295 294 294 294 292 290 289 287 287
283 283 283 283 283 284 284 284 284 284 285 285 285 284 284 284 284 284 284 284 284 284 285 286 287 289 289 290 292 293 293 295 295 294 294 294 294 293 292 290 290 288 287
283 283 283 283 283 283 283 284 284 284 284 284 283 283 282 282 283 283 283 283 283 284 284 285 286 288 289 290 292 292 293 294 294 294 295 294 294 293 292 290 288 288 287
282 282 282 282 282 282 282 282 282 282 282 282 282 282 282 282 282 283 283 284 284 284 284 286 288 289 290 291 292 293 293 293 294 295 295 294 294 293 292 291 289 289 287
282 282 282 281 281 281 281 281 281 281 281 281 281 281 281 282 283 283 283 284 284 285 286 287 289 290 291 292 292 293 293 293 294 294 293 293 293 292 292 291 289 287 287

GFSGL_850_thetae_099.txt.gz
Theta_e
311 311 310 312 315 320 318 320 322 320 321 323 322 321 322 322 324 323 324 323 323 323 324 324 323 324 324 324 323 325 324 324 321 319 320 319 317 316 314 314 313 313 312
307 306 306 306 308 310 307 308 309 310 311 312 314 315 318 321 323 324 323 322 322 323 323 323 324 323 323 323 323 321 321 321 320 320 321 320 318 315 314 313 313 312 312
303 304 304 304 304 304 304 304 304 304 305 306 308 310 311 313 315 318 323 324 324 323 322 322 322 323 324 324 321 322 321 322 321 320 320 320 319 314 313 313 312 312 311
301 301 302 301 302 301 301 302 302 303 304 304 304 304 306 309 311 312 314 316 318 320 323 323 322 324 324 325 324 321 322 323 323 323 322 322 320 315 312 312 312 312 310
299 299 298 297 297 297 297 297 297 297 298 300 301 303 303 304 306 309 311 312 314 315 319 318 321 321 322 322 323 323 323 322 323 321 320 319 317 313 312 312 311 310 307
296 296 296 297 296 295 294 294 295 295 295 295 295 296 299 302 303 305 308 310 311 312 313 315 316 318 319 321 322 321 322 321 321 321 319 320 316 313 312 311 310 308 306
294 294 293 292 292 293 293 293 293 292 292 293 293 293 294 295 298 301 303 305 308 310 310 311 312 314 317 318 319 320 320 321 320 320 320 320 315 312 311 310 309 308 306
293 293 293 293 293 293 292 292 292 292 292 292 291 291 292 292 293 293 296 301 302 305 308 309 311 311 313 315 317 318 319 318 317 316 314 313 312 311 312 311 308 306 304
291 291 291 291 291 290 290 290 290 289 289 289 290 290 290 291 291 291 294 295 298 301 303 306 308 309 311 311 312 313 314 314 314 313 313 312 313 311 312 308 306 304 303
291 290 289 288 288 288 288 288 288 288 288 288 288 289 289 289 289 290 291 298 299 299 301 302 306 307 309 309 309 309 310 312 312 311 311 310 309 308 306 306 304 303 303
290 289 288 288 287 287 286 286 287 287 287 287 288 288 288 288 288 289 290 291 297 297 298 301 302 305 306 307 307 307 308 308 309 308 307 307 307 306 305 303 302 302 302
287 287 287 287 287 287 287 286 286 286 287 288 288 288 288 288 288 288 288 289 291 295 296 298 301 303 304 305 304 305 305 305 305 305 305 305 304 304 302 301 302 301 300
287 287 286 286 286 286 286 286 286 286 287 288 288 288 288 287 287 288 288 288 289 292 295 296 297 300 302 303 304 303 303 303 304 303 303 303 304 302 301 301 301 299 297
286 286 286 286 286 286 286 286 286 286 288 288 288 288 287 287 288 288 287 288 289 289 291 295 296 297 299 301 301 301 301 301 302 303 303 302 301 300 300 300 299 295 294
286 286 285 285 285 285 285 285 286 287 288 287 287 287 286 286 286 288 288 288 287 288 289 290 293 296 297 298 299 299 300 300 300 300 301 300 300 300 299 298 294 292 291
284 284 284 284 284 285 285 285 285 287 287 287 287 287 286 286 287 287 287 287 287 287 288 289 291 293 296 296 297 298 298 299 300 299 299 299 299 299 298 294 291 290 290
284 284 284 284 284 284 284 285 285 286 286 286 286 287 287 286 286 286 287 286 286 287 287 288 289 291 294 296 296 296 297 298 298 298 298 297 298 297 296 294 291 289 289
284 284 284 284 284 284 284 285 285 286 286 286 287 287 286 286 286 286 286 286 285 285 286 287 288 289 292 294 295 295 296 296 296 297 297 297 297 297 296 294 291 288 288
284 284 284 283 283 284 284 285 285 285 286 286 286 286 286 286 286 285 285 285 285 285 285 286 287 288 290 292 293 294 295 295 296 296 296 296 296 296 295 295 294 288 287
284 284 282 283 283 283 283 284 285 285 285 285 285 285 285 285 285 285 285 285 285 285 285 285 286 287 288 289 292 293 293 294 295 295 295 296 296 296 296 295 293 290 288
283 283 283 283 283 283 283 283 283 284 285 284 284 284 285 285 285 285 284 284 285 285 285 284 285 286 287 288 290 292 292 293 293 294 294 295 295 295 294 295 293 291 288
283 283 283 282 282 282 283 283 283 284 284 284 284 284 284 284 284 284 284 284 284 284 284 284 284 285 286 287 288 290 291 292 293 293 293 294 294 294 294 294 293 291 290
283 282 282 282 282 282 282 282 283 283 284 284 284 284 283 283 283 282 282 283 283 283 283 283 283 285 286 287 288 290 290 292 293 293 293 293 294 293 293 293 292 290 289
283 282 282 282 282 281 281 281 281 282 282 282 282 282 282 282 282 282 282 282 283 283 283 283 283 284 285 286 288 289 290 291 293 293 293 293 293 293 293 293 292 291 290
282 282 282 282 281 281 280 280 280 280 281 281 281 281 281 281 281 281 282 283 283 283 283 284 284 284 285 286 288 289 291 291 292 293 292 292 293 292 293 293 292 291 290
282 282 281 281 281 280 279 279 279 279 279 279 280 280 280 280 281 281 282 283 283 283 283 284 284 285 286 287 289 290 291 291 292 292 292 292 292 292 292 292 292 291 290

GFSGL_850_thetae_102.txt.gz
Theta_e
305 304 306 306 308 311 310 307 307 310 311 312 313 318 321 322 321 322 321 321 324 324 324 324 322 320 321 323 324 324 324 325 324 322 323 324 322 320 320 319 317 314 313
305 307 306 305 304 304 308 309 303 304 304 305 307 310 311 313 316 319 321 321 323 321 322 323 323 322 322 324 323 323 323 323 323 321 321 320 319 318 318 317 315 314 313
305 303 301 300 301 300 300 300 299 300 301 302 303 304 305 307 310 312 314 317 320 322 322 322 321 322 321 321 323 323 323 322 321 321 320 319 319 318 317 317 315 314 313
297 297 298 297 297 296 295 296 295 295 296 297 297 298 300 302 303 305 308 310 312 315 318 320 321 322 322 322 322 323 322 323 321 321 321 320 320 319 317 316 314 313 313
296 296 296 295 295 295 295 295 294 294 294 295 295 295 295 295 297 300 302 304 306 309 311 313 315 317 320 320 321 321 322 323 322 321 322 321 320 319 319 317 313 313 312
296 296 295 294 294 293 293 293 293 293 293 293 293 293 293 294 294 294 294 296 300 303 305 308 310 312 315 317 318 319 319 320 321 321 320 321 320 318 318 317 313 312 309
294 294 294 293 293 293 293 292 292 292 292 292 292 292 292 292 292 293 293 293 293 294 298 302 305 309 310 313 314 316 318 318 317 318 320 320 320 320 319 319 315 312 311
293 293 292 292 291 290 290 289 289 289 288 288 289 289 289 290 290 291 291 291 292 293 294 296 300 301 306 308 311 312 314 316 317 316 316 317 318 319 319 319 314 311 309
291 290 288 288 287 287 287 287 287 286 286 287 287 287 287 288 288 288 289 289 290 291 293 294 296 299 301 305 307 309 311 313 315 317 317 314 314 314 313 313 311 308 310
288 287 287 287 287 287 287 287 287 287 287 286 286 286 287 287 287 287 288 288 288 289 288 294 297 299 301 302 305 307 309 310 311 312 313 312 312 311 312 311 311 310 311
287 287 287 287 287 287 287 287 286 286 286 286 286 286 287 287 287 287 287 287 288 288 289 291 293 295 297 300 302 304 307 308 309 309 310 311 310 310 311 309 312 310 310
287 287 287 287 287 286 286 286 286 286 286 286 286 287 287 287 287 287 287 288 288 289 289 290 291 294 295 297 300 302 304 305 306 306 306 307 308 309 309 308 309 305 304
287 286 286 286 286 286 285 285 285 286 285 286 287 288 287 287 287 287 287 287 288 288 288 288 289 291 294 295 297 300 301 301 304 304 304 305 306 307 307 306 305 303 301
286 285 285 285 285 285 285 285 285 285 285 286 287 287 287 287 287 287 286 287 287 287 287 287 288 289 290 294 296 298 299 300 301 303 303 302 303 303 303 303 302 301 300
285 285 285 285 285 285 285 285 284 285 285 286 287 287 287 286 287 287 287 287 287 287 287 287 287 288 289 291 294 296 297 298 299 300 300 301 300 301 300 300 300 300 299
285 284 284 284 284 284 284 285 285 285 285 285 286 286 286 286 286 287 287 287 287 287 286 286 286 287 289 289 292 294 295 296 298 299 299 299 299 299 299 299 300 299 299
284 284 284 284 284 284 284 284 284 285 285 285 285 286 286 286 286 286 286 286 286 286 285 285 285 286 287 288 290 292 294 295 296 297 297 297 298 298 298 297 297 296 296
285 284 284 284 284 283 283 283 283 283 284 285 285 285 286 286 286 285 286 286 286 285 284 284 285 286 286 287 288 290 293 294 294 295 296 296 296 297 297 296 295 294 292
284 284 284 283 283 283 283 283 283 283 283 284 284 285 285 285 285 285 285 285 285 284 284 284 285 285 285 285 287 289 291 293 293 293 294 295 296 296 295 296 296 295 292
284 284 283 283 283 283 282 282 282 282 282 283 283 283 284 284 285 285 285 285 285 284 284 284 285 285 285 285 287 288 290 291 293 293 293 293 294 294 295 296 296 295 293
284 284 283 283 282 281 281 281 282 282 282 283 283 283 283 284 284 285 284 284 284 283 283 283 284 284 284 285 286 287 288 290 291 292 292 293 293 293 293 294 295 294 293
284 283 283 282 282 281 281 281 281 281 281 282 282 283 283 283 283 283 283 283 282 282 282 283 283 283 283 284 285 286 287 289 290 291 291 292 292 293 293 293 293 293 292
283 283 282 282 282 281 280 280 280 280 280 280 281 281 281 281 281 281 281 282 282 282 282 282 282 282 282 283 284 285 286 288 289 291 291 291 291 292 292 292 293 292 291
282 282 282 282 282 280 280 280 279 279 279 279 280 280 280 279 280 280 281 281 282 282 282 282 282 283 283 283 284 285 286 288 289 291 291 291 291 291 291 291 292 292 291
282 282 282 281 281 281 280 279 278 278 279 279 279 279 279 279 280 280 281 281 282 282 283 283 282 283 283 284 285 285 287 288 289 290 291 291 291 291 292 292 292 291 290
283 282 282 281 281 280 279 279 278 278 278 279 279 279 279 280 280 280 281 282 282 283 283 284 283 283 283 284 284 286 287 289 290 290 291 291 291 291 290 291 291 291 290

GFSGL_850_thetae_105.txt.gz
Theta_e
308 308 304 304 305 305 309 311 308 306 306 304 304 306 309 310 314 318 321 321 321 322 321 324 323 321 324 324 324 323 323 321 321 323 323 322 323 324 324 323 321 321 318
306 305 305 304 302 301 302 305 304 306 301 301 302 303 304 305 307 310 311 315 319 321 321 322 321 322 323 321 322 323 322 320 321 322 322 323 323 323 322 321 318 317 318
302 302 302 300 298 298 297 297 298 298 298 297 298 297 298 299 301 303 305 308 310 312 314 317 321 320 321 322 322 323 323 321 320 323 323 322 321 320 319 317 316 317 316
298 297 294 294 295 295 295 295 295 295 295 295 295 295 295 295 295 296 297 298 301 303 306 310 312 316 319 320 321 321 321 321 321 321 322 321 320 319 317 315 316 316 315
294 294 294 294 293 293 293 293 293 293 293 293 293 293 293 294 294 295 295 295 295 296 296 299 302 306 310 313 316 318 320 321 321 318 321 320 320 319 318 317 317 316 315
294 294 293 293 293 292 292 291 291 290 290 290 290 290 290 291 292 292 292 293 294 294 295 296 295 296 300 305 310 313 315 317 318 319 321 320 320 320 319 318 317 314 311
292 292 292 292 291 290 289 289 288 289 288 288 288 288 288 288 288 289 289 290 290 292 292 293 294 295 295 296 300 307 310 313 314 316 317 318 320 319 320 319 319 317 317
293 292 291 289 288 288 288 287 287 287 287 287 287 287 287 287 287 287 287 288 288 288 289 290 291 292 294 295 297 299 302 307 311 313 313 315 316 317 318 319 319 316 314
290 289 288 287 287 287 287 287 287 287 287 287 287 287 286 286 286 287 287 287 287 287 288 288 289 289 291 294 297 299 300 303 307 309 310 314 313 316 316 316 314 312 310
288 287 287 287 287 287 286 286 286 286 286 286 286 286 286 286 286 287 287 287 287 287 287 287 288 288 292 294 295 297 299 300 303 307 308 310 313 313 313 314 314 312 308
287 287 286 286 286 286 286 285 286 286 286 286 286 286 286 286 286 286 287 287 287 288 288 288 288 287 288 291 291 294 296 298 300 303 306 308 310 311 311 312 312 312 312
287 287 286 286 286 286 286 286 286 285 286 286 286 286 286 287 287 287 287 287 287 288 288 287 287 288 288 288 289 290 293 296 298 301 303 306 306 308 309 311 311 311 311
286 286 286 286 286 286 286 286 286 286 285 285 285 285 286 287 287 286 286 286 287 288 287 287 287 287 287 288 288 289 291 294 297 299 300 302 305 306 308 309 310 308 310
286 286 286 286 286 286 286 285 285 285 285 285 285 286 286 286 286 286 286 287 287 287 287 287 287 287 287 287 287 289 291 293 296 298 299 300 301 304 304 306 305 308 305
286 286 286 286 285 285 285 285 285 285 284 285 285 285 286 286 286 286 287 287 287 287 288 287 286 286 285 286 287 288 289 292 294 296 297 298 299 301 301 301 303 302 303
286 286 285 285 285 285 284 285 285 283 283 283 284 286 286 286 286 286 286 287 287 287 287 287 286 284 285 285 286 287 288 291 292 294 295 296 297 299 299 300 300 300 300
285 285 285 284 284 284 284 283 282 284 284 283 283 284 285 286 286 286 286 286 286 286 287 285 284 284 284 285 285 286 287 289 291 293 294 295 296 296 297 298 298 299 298
285 284 284 284 284 283 283 282 283 281 282 282 283 283 283 284 284 284 285 286 286 285 285 284 284 284 284 285 285 284 286 288 290 292 293 293 294 295 296 296 296 297 296
284 284 284 284 283 283 283 282 281 281 281 282 282 282 283 283 283 284 284 285 285 285 285 284 284 284 284 285 284 284 286 287 289 291 292 292 292 293 294 294 295 296 297
284 284 283 283 283 283 283 281 281 281 281 281 281 281 282 283 284 284 284 284 284 284 283 283 283 283 283 284 284 284 285 286 287 290 291 291 291 292 292 293 293 293 294
284 284 283 283 283 283 282 281 281 281 280 280 281 281 282 282 282 282 282 282 282 282 282 282 282 282 283 283 283 283 284 285 287 288 290 290 291 291 291 292 292 292 293
283 283 283 283 283 283 281 281 281 280 280 279 280 280 280 281 281 281 281 281 281 281 281 281 282 282 282 282 282 282 283 285 286 288 289 290 291 291 291 290 291 290 291
283 282 282 282 282 282 282 281 281 280 279 279 279 279 279 279 280 280 280 280 280 281 281 281 282 282 282 282 282 283 283 284 285 287 289 290 290 290 290 290 290 289 290
281 281 282 282 282 281 281 281 280 280 279 279 279 279 279 278 279 279 280 280 280 281 282 282 282 283 282 282 282 283 283 284 285 287 288 289 290 290 290 290 290 290 290
281 282 282 282 281 281 281 281 280 279 279 279 279 279 279 279 279 280 280 281 281 281 282 282 283 283 283 283 283 283 284 285 286 288 289 290 290 290 290 289 289 289 289
281 281 281 281 281 282 281 281 280 279 279 279 279 279 279 280 280 281 281 281 282 282 283 283 284 284 285 285 284 283 284 286 287 288 289 290 290 290 290 290 290 289 288

GFSGL_850_thetae_108.txt.gz
Theta_e
306 305 302 302 300 299 301 304 307 307 304 303 304 304 303 304 306 308 310 312 317 320 321 320 322 321 324 324 323 322 323 324 324 323 322 323 323 322 322 321 322 322 322
306 304 306 306 298 296 296 297 297 297 302 298 298 298 298 299 299 301 304 304 306 310 310 314 317 319 321 321 323 323 322 323 324 323 323 323 321 321 320 322 322 323 323
299 297 298 300 302 301 297 296 296 296 297 297 296 296 296 296 296 297 296 297 298 299 301 304 308 311 314 318 320 320 321 322 321 320 321 321 321 321 320 321 321 321 321
297 297 296 296 296 294 294 294 294 294 294 294 294 294 294 294 294 295 295 295 296 296 296 296 297 300 304 308 311 315 318 319 320 319 319 321 320 321 320 321 319 318 315
295 295 294 293 292 292 292 291 291 290 290 289 289 290 290 290 290 290 290 291 292 293 294 294 295 295 295 296 300 305 310 313 315 317 319 320 321 319 320 320 319 316 314
293 292 292 291 290 289 289 289 288 288 288 288 288 288 289 288 288 288 288 288 289 289 289 290 291 293 294 294 295 295 300 307 310 313 314 316 317 318 319 320 318 314 313
292 291 291 289 288 288 288 288 288 288 288 288 288 288 288 288 288 288 288 287 288 288 288 288 288 289 290 291 292 294 295 297 304 308 310 312 312 316 315 319 319 319 317
292 291 289 288 288 288 288 288 287 287 287 287 287 286 286 287 286 287 287 287 287 287 287 287 288 288 288 292 293 293 294 295 297 300 305 307 310 312 313 315 315 319 317
291 289 288 288 288 287 287 286 286 286 286 286 286 286 286 286 286 287 287 289 290 290 289 289 288 288 289 288 290 292 293 294 296 297 298 303 307 309 311 313 314 312 310
288 288 288 287 287 286 286 286 286 287 287 287 287 287 286 286 286 287 287 288 289 289 289 289 289 289 288 288 289 290 290 291 292 293 297 297 301 306 308 310 311 313 311
288 288 287 286 286 286 286 286 286 286 286 286 286 287 286 287 287 287 287 287 288 289 289 288 288 288 288 288 289 289 289 290 291 291 293 296 298 301 305 309 310 310 311
287 286 286 286 286 286 286 286 286 286 286 286 286 286 286 287 287 287 287 286 287 288 288 288 288 287 288 287 287 288 288 288 289 290 291 294 296 298 302 304 308 309 309
286 286 286 286 286 286 286 286 286 285 285 285 286 286 286 287 287 287 287 287 287 287 288 287 287 288 288 288 287 287 287 288 290 291 291 294 296 297 299 302 303 305 307
286 286 286 286 286 286 285 285 285 285 285 285 286 286 286 286 286 287 287 287 287 288 288 287 287 288 287 287 286 287 287 287 288 289 291 293 296 297 298 300 300 302 304
286 286 286 286 286 286 286 286 285 285 284 285 285 284 285 285 286 286 286 287 287 287 288 287 287 288 287 286 286 286 286 286 287 288 290 292 293 295 297 298 298 299 301
285 285 285 285 285 285 285 285 285 284 284 284 283 283 284 284 285 285 286 286 286 287 287 287 287 287 286 286 285 285 286 286 285 286 288 291 292 293 295 296 296 297 298
285 285 285 285 285 284 284 283 284 286 285 284 283 283 283 284 284 284 284 285 285 286 286 286 286 286 285 285 285 285 285 285 285 287 288 290 291 293 293 294 295 295 296
285 285 285 285 284 283 283 283 283 282 282 284 283 282 282 283 283 284 284 285 285 285 285 285 285 285 285 284 284 285 285 285 285 286 288 289 290 291 292 292 293 294 295
285 285 285 284 283 283 283 282 282 282 282 282 282 282 282 282 283 283 284 285 284 284 284 284 284 283 284 284 284 284 284 284 284 285 287 288 290 291 291 292 292 293 293
285 284 284 283 282 283 282 282 282 282 282 282 281 281 281 281 282 282 283 282 282 283 282 282 282 282 282 282 283 283 283 283 283 284 286 287 289 290 290 291 291 291 291
284 284 283 282 283 282 281 281 281 281 281 281 280 280 281 281 280 281 281 281 281 281 281 281 281 281 281 281 282 282 282 282 283 284 285 287 288 289 290 290 290 290 290
284 283 283 282 281 281 281 281 281 280 280 280 280 280 279 279 279 279 280 280 280 280 280 280 280 280 281 281 282 282 282 282 283 284 285 286 288 289 289 289 290 289 289
283 283 282 282 282 282 281 280 280 280 280 279 279 279 279 279 278 278 278 278 279 280 280 280 280 281 282 282 282 282 282 283 283 283 284 286 287 288 289 289 289 289 288
283 282 282 282 282 281 281 280 279 279 279 279 279 279 278 278 278 279 280 280 280 281 281 281 282 282 282 282 282 283 282 283 284 284 285 286 287 289 289 289 289 289 288
283 282 282 282 282 282 282 281 279 278 279 278 279 280 281 280 281 281 281 281 281 282 282 282 283 283 283 283 283 284 284 283 284 284 286 287 288 289 289 289 289 289 288
282 282 282 282 282 282 282 281 280 279 280 280 281 281 281 282 282 282 282 282 282 283 283 283 284 284 284 284 284 284 285 283 284 285 286 287 288 289 289 288 288 288 288

GFSGL_850_thetae_111.txt.gz
Theta_e
304 304 303 300 298 297 297 298 301 303 307 307 306 303 302 302 306 306 302 304 308 309 309 313 312 315 318 319 321 321 324 324 324 324 324 322 323 323 323 323 322 323 323
305 306 305 305 305 307 305 298 296 296 296 296 296 297 298 298 297 299 306 305 298 297 302 303 301 307 311 310 314 319 320 320 320 322 322 323 324 323 323 322 322 322 321
296 296 297 298 299 298 298 297 296 295 295 294 294 294 295 295 294 295 295 294 294 295 296 296 296 296 297 300 302 310 313 316 317 319 320 323 321 322 322 321 320 320 320
296 295 295 294 294 294 294 294 293 292 291 291 291 290 290 291 290 290 290 291 291 291 292 292 293 294 295 296 296 296 298 301 307 311 316 317 319 319 320 319 321 320 320
295 294 293 293 293 292 291 290 289 289 289 289 289 290 290 289 289 289 289 289 289 289 290 290 290 290 290 291 293 294 294 295 296 300 306 311 313 315 316 319 318 320 319
294 293 293 292 290 289 289 289 289 289 289 289 289 288 288 288 288 288 288 288 288 289 289 289 289 289 289 289 290 292 292 293 295 299 303 306 308 311 313 314 316 317 317
293 292 292 290 289 288 288 288 288 288 288 288 288 288 288 288 287 287 287 287 287 288 288 288 288 289 289 289 290 291 290 292 293 296 298 301 303 306 308 311 312 314 315
292 291 289 288 288 288 288 287 287 287 287 287 287 287 287 287 287 287 287 287 288 289 290 290 289 289 289 291 290 289 289 289 291 291 293 296 299 301 305 307 308 310 312
291 290 288 288 288 288 287 287 287 287 287 287 287 287 287 287 287 287 288 288 289 289 290 290 290 290 290 288 288 288 288 289 288 288 289 291 294 296 298 303 307 307 309
290 288 288 287 287 287 287 286 286 286 286 286 287 287 287 287 288 289 288 288 289 289 289 289 289 289 289 289 288 288 288 288 288 288 288 288 288 289 290 296 301 303 306
288 288 288 287 287 287 287 287 286 286 286 286 287 287 287 288 288 288 288 288 288 288 288 288 289 289 289 288 289 288 288 288 288 288 288 287 288 289 289 293 295 300 303
288 288 287 288 287 287 286 286 286 286 286 286 287 287 287 287 287 288 288 288 288 288 287 288 288 288 288 289 289 289 288 288 287 287 289 289 291 291 291 294 294 295 298
287 287 287 287 286 286 286 286 286 286 286 286 286 286 286 286 286 287 287 288 288 288 287 288 288 288 287 287 288 288 287 287 287 287 287 287 289 289 291 292 294 296 298
287 287 287 286 286 286 286 286 286 286 286 285 285 285 285 285 285 285 286 286 286 287 287 288 288 288 287 288 288 287 286 286 286 287 286 287 287 288 289 291 292 294 296
287 287 286 286 285 285 285 286 285 285 285 285 285 284 284 284 284 285 285 285 286 286 287 287 287 286 287 287 287 286 286 285 286 285 285 285 286 287 289 291 292 293 294
286 286 286 285 285 285 285 285 285 285 285 284 284 284 284 284 284 284 284 284 285 286 286 286 285 286 286 286 285 285 285 285 285 285 285 285 286 288 289 290 292 292 293
286 286 285 285 285 285 285 285 285 285 284 284 284 284 284 284 283 283 283 284 284 285 285 285 286 286 286 285 285 285 285 285 285 285 284 285 286 287 288 289 290 291 292
286 285 285 285 284 284 284 284 284 283 283 283 283 283 283 283 283 283 283 284 284 285 285 285 285 285 285 284 284 284 284 284 284 284 284 284 285 286 288 289 290 290 291
285 285 284 284 284 284 283 283 283 283 283 282 282 282 282 282 282 282 282 282 282 283 283 283 283 283 283 283 283 283 282 283 283 283 283 283 284 286 287 289 289 290 291
285 284 284 284 283 283 283 282 282 282 282 282 281 281 281 281 281 281 280 281 281 281 281 281 281 281 281 281 282 282 282 282 282 283 283 283 284 286 287 288 289 289 290
284 284 284 283 283 282 282 282 282 282 282 281 281 281 281 281 280 280 279 280 280 281 281 281 280 280 281 280 281 281 281 282 282 283 282 283 284 285 287 288 289 289 289
284 284 283 283 283 282 282 282 282 281 281 281 280 280 280 280 279 279 279 279 279 279 279 279 279 279 279 279 279 280 280 281 282 283 283 283 284 285 286 288 288 289 289
284 283 283 283 282 282 281 281 281 280 280 280 280 280 280 280 279 280 280 280 281 281 281 281 281 281 281 281 280 280 281 281 282 282 283 284 284 285 287 287 288 288 288
284 284 283 282 282 282 281 280 280 279 279 280 280 280 280 281 281 282 282 282 282 282 282 282 282 282 282 282 283 282 282 282 282 282 283 283 284 286 287 287 288 288 288
284 283 283 282 282 282 282 281 280 280 279 280 281 281 281 282 282 283 283 283 283 283 284 284 284 284 284 284 284 284 283 282 282 283 283 283 285 286 287 288 288 288 288
283 283 282 282 282 282 282 282 282 281 281 281 281 281 282 282 283 283 284 284 284 284 285 285 285 285 285 285 285 283 283 282 282 282 283 284 286 287 287 288 288 287 287

GFSGL_850_thetae_114.txt.gz
Theta_e
304 304 304 304 305 304 300 297 296 297 298 299 302 306 305 305 304 304 303 306 309 305 301 299 303 300 306 304 311 312 314 316 313 319 321 322 325 325 325 325 324 324 322
298 297 297 298 299 299 297 297 296 297 297 296 295 295 295 295 294 294 295 295 296 297 302 305 301 296 297 302 303 298 307 309 307 311 317 318 318 322 322 323 323 323 323
297 297 296 296 295 294 294 293 293 292 292 291 291 290 290 291 290 291 291 291 291 291 291 292 293 294 294 294 295 297 295 298 298 301 308 314 314 317 320 321 322 322 323
296 295 294 294 293 292 291 290 290 290 290 290 290 290 290 290 289 290 290 290 290 290 290 290 290 291 291 290 290 291 292 294 295 295 297 299 304 309 313 315 318 319 318
296 295 294 293 292 290 289 289 289 290 289 289 289 289 289 289 289 289 289 288 289 289 289 289 289 289 288 289 290 293 294 292 292 293 294 296 299 304 307 309 312 313 316
295 294 293 292 290 289 289 289 289 288 288 288 288 288 288 288 288 288 288 288 288 288 288 288 288 288 289 289 290 290 291 292 294 294 293 295 296 299 302 304 306 308 311
296 294 293 292 289 289 289 288 288 288 288 288 288 288 288 288 288 288 287 287 287 288 288 289 289 290 290 289 290 289 288 288 289 291 292 292 292 293 296 299 303 304 304
295 293 292 289 289 289 288 288 288 288 288 288 288 288 288 288 288 287 287 287 288 288 288 289 290 290 290 290 290 288 287 287 288 288 288 288 289 289 289 293 296 300 303
294 293 290 289 289 288 288 289 289 289 288 288 288 288 287 288 288 288 288 288 288 288 289 289 289 289 289 289 289 288 288 288 288 287 287 287 287 287 288 288 289 292 296
293 291 289 289 288 288 288 288 288 288 288 287 287 287 287 287 288 288 289 288 288 288 288 288 287 288 289 289 289 288 289 288 288 288 287 287 287 287 288 288 290 293 295
292 289 289 288 288 288 287 287 287 287 287 287 287 287 287 287 287 288 288 288 288 288 288 288 287 288 289 289 289 289 288 289 288 287 287 287 287 288 288 291 292 291 292
289 289 288 288 288 287 287 287 287 286 286 286 286 287 286 286 286 286 286 287 288 288 287 287 287 288 288 289 288 288 288 289 288 286 286 286 286 287 287 287 288 291 290
288 288 287 287 287 287 287 287 286 286 286 286 286 286 286 286 286 285 285 286 286 286 286 286 287 288 288 288 287 287 288 288 286 286 286 286 285 285 285 286 286 287 289
288 287 288 287 287 287 287 286 286 286 286 286 285 285 285 286 285 285 285 285 285 285 285 286 286 286 286 286 286 286 286 286 285 285 285 285 285 285 285 285 287 288 290
288 287 287 287 287 286 286 285 285 285 285 285 285 285 284 284 284 285 285 285 285 285 286 286 285 285 285 285 285 286 286 285 285 285 285 285 285 284 285 285 286 287 288
287 287 287 287 287 286 285 285 285 285 285 285 285 284 284 284 284 284 284 284 284 285 285 285 285 285 285 285 286 285 285 285 284 284 284 284 284 284 284 285 286 287 288
287 287 287 286 286 285 285 285 284 285 284 284 284 284 284 284 284 283 283 283 283 284 284 284 285 285 285 285 285 285 284 283 283 283 283 284 283 283 283 284 285 286 288
287 287 286 286 285 285 284 284 284 284 283 284 284 283 283 283 283 283 282 283 282 281 282 282 282 282 282 283 283 283 282 282 282 282 282 282 282 282 283 284 285 286 288
286 286 285 285 284 284 284 284 283 283 283 283 283 283 282 281 281 281 281 280 280 280 281 281 281 281 281 281 281 281 281 281 281 282 282 282 282 282 283 284 285 286 288
286 285 285 285 284 284 283 283 282 282 282 282 282 281 281 281 282 281 281 280 280 280 280 280 281 281 280 280 280 280 280 280 280 281 281 282 282 282 283 284 285 286 288
285 285 285 284 284 283 283 282 282 282 282 282 281 281 281 282 281 281 281 281 281 280 280 280 280 280 280 280 280 280 280 280 280 280 281 282 282 283 283 284 285 286 288
285 285 284 284 284 283 282 282 282 281 281 281 281 281 280 281 281 281 281 281 282 282 282 282 281 282 282 281 281 281 280 280 281 281 281 281 282 283 283 284 285 287 288
285 284 284 284 283 283 282 282 281 281 280 281 281 281 281 281 282 282 282 283 283 283 283 283 283 283 283 283 282 282 281 282 282 281 281 281 281 282 283 284 285 287 287
284 284 284 284 283 282 282 282 282 281 280 281 281 281 282 282 282 282 283 283 284 284 284 284 284 284 284 284 284 283 283 283 283 282 282 281 282 283 283 284 286 287 287
284 284 284 283 282 282 282 282 282 282 282 281 282 282 282 282 282 283 283 284 284 285 285 285 285 285 285 285 285 285 284 284 283 282 282 282 282 283 284 286 287 287 287
284 284 284 283 282 282 282 282 283 282 282 282 282 282 282 282 283 283 284 284 285 285 285 286 286 286 286 286 286 286 285 284 284 283 283 283 283 284 285 286 287 287 287

GFSGL_850_thetae_117.txt.gz
Theta_e
300 299 298 298 297 296 295 295 296 296 296 294 295 295 295 296 300 300 300 302 302 300 301 304 305 304 303 300 299 302 301 300 302 308 310 312 315 319 321 323 324 324 324
298 297 296 295 295 294 294 293 292 291 291 291 291 291 292 292 292 293 293 294 293 292 292 293 293 294 299 301 305 302 294 296 298 302 305 303 304 310 316 317 321 322 323
298 297 297 296 295 294 292 291 290 290 290 290 290 290 291 290 291 291 291 291 291 290 290 290 291 291 291 291 292 294 298 294 293 293 296 296 296 299 306 314 317 317 320
299 299 298 296 295 293 291 290 291 291 291 290 289 289 289 289 289 289 290 289 289 289 289 289 289 290 289 289 290 290 292 292 292 292 292 292 294 296 299 303 312 315 315
299 298 297 295 293 290 290 290 290 290 289 289 289 290 290 289 289 289 289 289 288 288 288 288 288 289 288 289 290 290 290 290 290 290 291 291 292 293 296 299 302 306 311
297 297 296 294 292 289 290 289 288 288 288 288 288 288 288 288 288 288 288 288 288 288 288 289 289 290 290 290 290 289 289 288 288 289 290 290 290 290 290 291 293 298 300
298 296 295 293 290 289 289 288 288 289 288 288 288 288 288 288 288 288 288 288 288 288 288 288 289 290 290 290 290 290 289 288 287 287 288 288 288 288 288 288 289 289 291
297 296 294 292 289 289 288 288 288 288 288 289 288 288 288 288 288 288 289 289 288 288 288 288 289 289 289 289 290 289 288 288 288 288 288 288 287 287 287 287 288 288 288
298 296 293 290 289 288 288 288 288 288 288 288 288 288 288 288 288 288 289 288 288 288 288 288 288 287 287 289 290 289 288 288 288 288 288 287 287 287 287 288 288 289 290
297 295 292 289 289 288 288 288 288 287 288 288 288 287 287 287 287 287 288 288 288 288 287 288 288 287 287 289 289 289 288 288 287 289 288 287 286 286 286 287 287 289 290
296 293 289 289 288 288 288 288 287 287 287 287 287 287 287 286 286 286 286 287 287 288 288 288 287 287 287 288 288 289 289 288 288 289 288 286 286 286 286 286 286 287 288
294 291 289 288 288 288 287 287 287 286 286 287 287 287 286 286 286 286 285 286 286 286 286 285 285 286 287 288 288 289 288 288 288 288 287 286 285 285 285 285 285 285 286
292 289 288 287 287 287 287 287 286 286 286 286 286 286 286 286 286 285 285 285 285 285 285 285 285 286 286 286 286 286 287 287 286 287 285 285 285 285 285 285 285 285 285
290 288 287 288 287 287 287 286 286 286 286 286 286 286 286 285 285 285 285 285 284 284 284 285 285 285 285 285 285 285 285 285 286 286 285 284 284 284 284 284 284 284 284
288 288 287 287 287 287 287 286 286 285 285 285 285 285 285 284 285 285 285 284 284 284 285 284 285 284 284 284 285 284 285 285 285 285 284 283 283 283 283 284 283 283 285
288 287 287 287 287 287 286 286 285 285 285 285 285 284 284 284 284 285 284 284 284 284 284 284 283 283 284 284 285 285 284 284 284 284 283 283 282 282 283 283 282 282 283
288 287 287 287 287 286 286 285 286 285 284 285 284 284 283 283 284 283 283 283 283 282 282 281 281 282 282 282 282 282 282 282 282 282 282 281 281 282 282 282 282 282 283
287 287 287 287 286 286 285 285 285 284 284 284 284 283 283 282 282 282 283 282 282 281 281 281 281 281 281 281 281 281 281 281 281 281 281 281 281 281 281 282 282 283 283
287 287 286 286 286 285 285 284 284 283 283 283 284 284 282 282 282 282 282 281 281 281 281 281 281 281 281 281 281 281 281 280 280 281 281 280 280 281 281 282 282 283 283
287 286 286 286 285 284 284 284 283 283 283 283 283 283 282 282 282 282 281 282 282 282 282 282 282 282 281 281 281 281 281 281 280 280 281 280 281 281 281 282 282 283 283
286 286 286 285 285 284 284 283 283 283 282 283 283 283 281 281 281 281 282 282 282 282 282 282 282 283 283 282 282 282 282 282 282 281 281 281 281 281 281 281 282 283 283
286 286 285 285 284 284 283 283 282 282 282 283 283 283 282 282 282 282 282 283 283 283 283 283 283 284 283 283 283 283 282 282 282 282 282 282 281 281 281 281 282 282 284
286 285 285 285 284 284 283 282 282 282 283 283 283 282 282 282 282 282 283 283 283 284 284 284 285 285 285 285 284 284 283 283 283 282 282 282 281 281 281 281 282 283 285
285 285 285 284 284 283 283 282 282 283 283 282 283 282 282 282 282 283 283 284 284 284 285 285 285 285 285 285 285 285 285 285 284 283 283 282 282 281 282 282 283 285 285
285 285 285 284 284 283 283 282 282 283 283 283 283 283 283 282 282 283 283 284 284 285 285 286 286 286 286 286 286 286 286 285 285 284 283 283 283 283 283 283 285 285 286
285 285 284 284 283 283 282 282 282 283 283 283 283 283 283 282 283 283 283 284 284 285 285 286 286 286 287 287 287 287 287 287 286 285 284 284 283 283 284 285 285 286 287

GFSGL_850_thetae_120.txt.gz
Theta_e
300 299 298 297 296 295 293 292 292 291 292 291 292 292 292 292 292 293 293 294 294 295 295 296 298 299 303 303 303 303 300 299 299 300 302 305 309 309 310 314 314 318 321
299 299 298 297 295 294 292 290 290 290 290 291 291 291 291 291 291 291 291 291 291 291 291 291 291 291 292 292 292 293 295 299 301 300 304 304 299 296 304 303 304 313 316
299 298 298 296 295 294 292 290 290 290 290 289 289 289 289 290 290 290 290 290 290 290 289 290 290 290 290 290 290 290 290 291 292 293 293 295 293 292 294 296 298 302 311
299 299 298 297 295 294 291 290 290 290 289 289 289 289 289 288 288 289 289 289 289 289 289 289 289 289 289 289 289 289 290 290 290 290 290 290 290 291 291 292 294 296 299
300 299 298 297 295 293 290 290 289 289 289 289 289 289 289 288 288 288 289 289 288 288 288 288 289 289 289 289 289 289 289 289 288 288 288 288 289 289 289 289 289 290 293
301 300 298 297 294 292 290 290 289 289 289 289 289 289 289 289 289 289 288 288 288 288 288 288 289 289 290 290 290 290 289 289 288 288 287 287 287 287 287 287 288 288 289
302 299 297 296 293 291 289 289 289 289 289 289 289 288 288 288 288 288 288 289 288 288 288 288 288 289 289 289 289 290 289 289 288 288 288 288 288 288 287 287 287 287 287
301 299 297 296 293 289 289 288 288 288 288 288 288 288 288 288 288 288 289 289 289 288 288 288 288 288 287 288 289 290 290 289 288 288 288 288 288 287 286 287 287 288 288
302 299 297 295 292 289 288 288 288 287 287 287 287 288 288 288 287 287 287 288 288 287 287 287 288 288 288 288 289 289 289 289 288 288 287 288 289 287 286 286 286 287 287
301 299 297 294 291 289 288 288 287 287 287 287 287 287 287 287 287 287 287 287 287 287 287 287 287 287 287 288 288 288 288 288 289 288 288 288 288 287 286 285 285 285 286
300 298 296 292 289 288 288 288 287 287 287 287 287 287 287 287 287 286 286 286 286 286 286 286 286 285 286 287 288 288 288 289 289 289 288 287 287 287 286 285 285 285 285
298 297 293 290 288 288 288 287 287 287 286 286 286 287 287 287 286 286 286 285 285 286 285 285 284 285 286 286 286 287 287 287 287 287 287 286 287 286 285 285 285 285 285
297 295 292 289 288 287 287 287 287 286 286 286 286 286 286 286 286 286 286 285 285 285 285 285 285 285 285 285 285 285 286 285 285 285 285 286 286 285 284 284 284 284 284
296 293 289 288 287 287 287 287 286 286 285 285 286 286 286 286 286 286 285 285 285 284 284 284 284 284 284 284 284 284 284 284 285 286 286 286 285 284 284 283 283 283 283
294 291 288 287 287 287 287 286 286 285 285 285 285 285 285 285 285 285 285 285 284 284 284 284 284 283 282 283 283 284 284 284 284 284 285 284 284 283 283 282 282 282 282
293 289 288 287 287 287 286 286 285 285 284 284 284 284 285 284 284 284 284 284 284 284 284 283 282 282 282 282 282 282 282 282 282 282 282 282 282 282 281 281 282 282 281
290 288 287 287 287 287 286 286 285 285 284 284 284 284 284 283 284 283 284 283 283 283 282 282 282 282 281 281 281 281 281 281 281 281 281 280 280 280 281 281 281 281 282
288 288 287 287 287 286 286 285 285 285 285 284 284 284 284 284 283 282 283 283 283 283 283 282 282 282 282 281 281 281 281 281 281 281 281 280 280 280 280 280 280 281 281
288 287 287 287 286 286 285 285 284 284 284 283 284 284 284 284 284 283 283 282 282 283 283 282 283 283 283 282 282 282 282 282 282 281 281 280 280 280 280 280 281 280 281
288 287 287 286 286 286 285 284 284 284 283 283 283 283 283 283 283 283 283 283 283 283 283 283 283 283 283 283 283 283 283 283 282 282 282 282 281 281 281 281 281 280 280
287 287 286 286 286 285 285 284 284 283 283 283 283 283 282 282 282 283 283 283 283 283 283 284 284 284 284 284 284 284 283 283 283 283 282 282 282 281 281 281 281 281 281
287 286 286 286 285 285 284 284 284 283 283 282 283 284 283 283 283 283 283 283 284 284 284 284 284 285 285 285 285 284 284 284 284 283 283 282 282 282 281 281 281 281 281
287 286 286 285 285 284 284 284 283 283 282 283 284 283 283 283 283 283 283 283 284 284 284 285 285 285 285 285 285 285 285 285 285 284 284 283 282 282 281 281 281 281 282
286 286 285 285 285 284 284 284 283 282 282 283 283 283 283 283 283 283 283 283 284 284 284 285 285 285 286 286 285 286 286 286 286 285 284 284 283 283 282 282 282 283 283
286 286 285 285 285 284 284 283 283 282 282 283 284 283 283 283 283 283 283 283 284 284 285 285 286 286 286 286 286 286 286 286 286 286 286 285 284 284 283 283 283 284 285
286 285 285 285 284 284 283 283 282 282 282 283 283 283 283 283 283 283 283 283 283 284 285 285 286 286 286 287 287 287 287 287 287 287 286 285 285 284 284 284 285 285 286